[[{"header":{"parameterUnit":"m.s-1","parameterCategory":1,"la1":30.6,"la2":28.766,"lo1":-90.7593,"lo2":-88.6598,"dy":0.0162,"dx":0.0183,"nx":116,"ny":114,"refTime":"2023-05-22T00:00:00:Z","depth":0,"parameterNumber":2,"parameterNumberName":"U-component_of_WINDS"},"data":[0.0,0.0,0.0,0.0,0.0,0.0,0.0,0.0,0.0,0.0,0.0,0.0,0.0,0.0,0.0,0.0,0.0,0.0,0.0,0.0,0.0,0.0,0.0,0.0,0.0,0.0,0.0,0.0,0.0,0.0,0.0,0.0,0.0,0.0,0.0,0.0,0.0,0.0,0.0,0.0,0.0,0.0,0.0,0.0,0.0,0.0,0.0,0.0,0.0,0.0,0.0,0.0,0.0,0.0,0.0,0.0,0.0,0.0,0.0,0.0,0.0,0.0,0.0,0.0,0.0,0.0,0.0,0.0,0.0,0.0,0.0,0.0,0.0,0.0,0.0,0.0,0.0,0.0,0.0,0.0,0.0,0.0,0.0,0.0,0.0,0.0,0.0,0.0,0.0,0.0,0.0,0.0,0.0,0.0,0.0,0.0,0.0,0.0,0.0,0.0,0.0,0.0,0.0,0.0,0.0,0.0,0.0,0.0,0.0,0.0,0.0,0.0,0.0,0.0,0.0,0.0,0.0,0.0,0.0,0.0,0.0,0.0,0.0,0.0,0.0,0.0,0.0,0.0,0.0,0.0,0.0,0.0,0.0,0.0,0.0,0.0,0.0,0.0,0.0,0.0,0.0,0.0,0.0,0.0,0.0,0.0,0.0,0.0,0.0,0.0,0.0,0.0,0.0,0.0,0.0,0.0,0.0,0.0,0.0,0.0,0.0,0.0,0.0,0.0,0.0,0.0,0.0,0.0,0.0,0.0,0.0,0.0,0.0,0.0,0.0,0.0,0.0,0.0,0.0,0.0,0.0,0.0,0.0,0.0,0.0,0.0,0.0,0.0,0.0,0.0,0.0,0.0,0.0,0.0,0.0,0.0,0.0,0.0,0.0,0.0,0.0,0.0,0.0,0.0,0.0,0.0,0.0,0.0,0.0,0.0,0.0,0.0,0.0,0.0,0.0,0.0,0.0,0.0,0.0,0.0,0.0,0.0,0.0,0.0,0.0,0.0,0.0,0.0,0.0,0.0,0.0,0.0,0.0,0.0,0.0,0.0,0.0,0.0,0.0,0.0,0.0,0.0,0.0,0.0,0.0,0.0,0.0,0.0,0.0,0.0,0.0,0.0,0.0,0.0,0.0,0.0,0.0,0.0,0.0,0.0,0.0,0.0,0.0,0.0,0.0,0.0,0.0,0.0,0.0,0.0,0.0,0.0,0.0,0.0,0.0,0.0,0.0,0.0,0.0,0.0,0.0,0.0,0.0,0.0,0.0,0.0,0.0,0.0,0.0,0.0,0.0,0.0,0.0,0.0,0.0,0.0,0.0,0.0,0.0,0.0,0.0,0.0,0.0,0.0,0.0,0.0,0.0,0.0,0.0,0.0,0.0,0.0,0.0,0.0,0.0,0.0,0.0,0.0,0.0,0.0,0.0,0.0,0.0,0.0,0.0,0.0,0.0,0.0,0.0,0.0,0.0,0.0,0.0,0.0,0.0,0.0,0.0,0.0,0.0,0.0,0.0,0.0,0.0,0.0,0.0,0.0,0.0,0.0,0.0,0.0,0.0,0.0,0.0,0.0,0.0,0.0,0.0,0.0,0.0,0.0,0.0,0.0,0.0,0.0,0.0,0.0,0.0,0.0,0.0,0.0,0.0,0.0,0.0,0.0,0.0,0.0,0.0,0.0,0.0,0.0,0.0,0.0,0.0,0.0,0.0,0.0,0.0,0.0,0.0,0.0,0.0,0.0,0.0,0.0,0.0,0.0,0.0,0.0,0.0,0.0,0.0,0.0,0.0,0.0,0.0,0.0,0.0,0.0,0.0,0.0,0.0,0.0,0.0,0.0,0.0,0.0,0.0,0.0,0.0,0.0,0.0,0.0,0.0,0.0,0.0,0.0,0.0,0.0,0.0,0.0,0.0,0.0,0.0,0.0,0.0,0.0,0.0,0.0,0.0,0.0,0.0,0.0,0.0,0.0,0.0,0.0,0.0,0.0,0.0,0.0,0.0,0.0,0.0,0.0,0.0,0.0,0.0,0.0,0.0,0.0,0.0,0.0,0.0,0.0,0.0,0.0,0.0,0.0,0.0,0.0,0.0,0.0,0.0,0.0,0.0,0.0,0.0,0.0,0.0,0.0,0.0,0.0,0.0,0.0,0.0,0.0,0.0,0.0,0.0,0.0,0.0,0.0,0.0,0.0,0.0,0.0,0.0,0.0,0.0,0.0,0.0,0.0,0.0,0.0,0.0,0.0,0.0,0.0,0.0,0.0,0.0,0.0,0.0,0.0,0.0,0.0,0.0,0.0,0.0,0.0,0.0,0.0,0.0,0.0,0.0,0.0,0.0,0.0,0.0,0.0,0.0,0.0,0.0,0.0,0.0,0.0,0.0,0.0,0.0,0.0,0.0,0.0,0.0,0.0,0.0,0.0,0.0,0.0,0.0,0.0,0.0,0.0,0.0,0.0,0.0,0.0,0.0,0.0,0.0,0.0,0.0,0.0,0.0,0.0,0.0,0.0,0.0,0.0,0.0,0.0,0.0,0.0,0.0,0.0,0.0,0.0,0.0,0.0,0.0,0.0,0.0,0.0,0.0,0.0,0.0,0.0,0.0,0.0,0.0,0.0,0.0,0.0,0.0,0.0,0.0,0.0,0.0,0.0,0.0,0.0,0.0,0.0,0.0,0.0,0.0,0.0,0.0,0.0,0.0,0.0,0.0,0.0,0.0,0.0,0.0,0.0,0.0,0.0,0.0,0.0,0.0,0.0,0.0,0.0,0.0,0.0,0.0,0.0,0.0,0.0,0.0,0.0,0.0,0.0,0.0,0.0,0.0,0.0,0.0,0.0,0.0,0.0,0.0,0.0,0.0,0.0,0.0,0.0,0.0,0.0,0.0,0.0,0.0,0.0,0.0,0.0,0.0,0.0,0.0,0.0,0.0,0.0,0.0,0.0,0.0,0.0,0.0,0.0,0.0,0.0,0.0,0.0,0.0,0.0,0.0,0.0,0.0,0.0,0.0,0.0,0.0,0.0,0.0,0.0,0.0,0.0,0.0,0.0,0.0,0.0,0.0,0.0,0.0,0.0,0.0,0.0,0.0,0.0,0.0,0.0,0.0,0.0,0.0,0.0,0.0,0.0,0.0,0.0,0.0,0.0,0.0,0.0,0.0,0.0,0.0,0.0,0.0,0.0,0.0,0.0,0.0,0.0,0.0,0.0,0.0,0.0,0.0,0.0,0.0,0.0,0.0,0.0,0.0,0.0,0.0,0.0,0.0,0.0,0.0,0.0,0.0,0.0,0.0,0.0,0.0,0.0,0.0,0.0,0.0,0.0,0.0,0.0,0.0,0.0,0.0,0.0,0.0,0.0,0.0,0.0,0.0,0.0,0.0,0.0,0.0,0.0,0.0,0.0,0.0,0.0,0.0,0.0,0.0,0.0,0.0,0.0,0.0,0.0,0.0,0.0,0.0,0.0,0.0,0.0,0.0,0.0,0.0,0.0,0.0,0.0,0.0,0.0,0.0,0.0,0.0,0.0,0.0,0.0,0.0,0.0,0.0,0.0,0.0,0.0,0.0,0.0,0.0,0.0,0.0,0.0,0.0,0.0,0.0,0.0,0.0,0.0,0.0,0.0,0.0,0.0,0.0,0.0,0.0,0.0,0.0,0.0,0.0,0.0,0.0,0.0,0.0,0.0,0.0,0.0,0.0,0.0,0.0,0.0,0.0,0.0,0.0,0.0,0.0,0.0,0.0,0.0,0.0,0.0,0.0,0.0,0.0,0.0,0.0,0.0,0.0,0.0,0.0,0.0,0.0,0.0,0.0,0.0,0.0,0.0,0.0,0.0,0.0,0.0,0.0,0.0,0.0,0.0,0.0,0.0,0.0,0.0,0.0,0.0,0.0,0.0,0.0,0.0,0.0,0.0,0.0,0.0,0.0,0.0,0.0,0.0,0.0,0.0,0.0,0.0,0.0,0.0,0.0,0.0,0.0,0.0,0.0,0.0,0.0,0.0,0.0,0.0,0.0,0.0,0.0,0.0,0.0,0.0,0.0,0.0,0.0,0.0,0.0,0.0,0.0,0.0,0.0,0.0,0.0,0.0,0.0,0.0,0.0,0.0,0.0,0.0,0.0,0.0,0.0,0.0,0.0,0.0,0.0,0.0,0.0,0.0,0.0,0.0,0.0,0.0,0.0,0.0,0.0,0.0,0.0,0.0,0.0,0.0,0.0,0.0,0.0,0.0,0.0,0.0,0.0,0.0,0.0,0.0,0.0,0.0,0.0,0.0,0.0,0.0,0.0,0.0,0.0,0.0,0.0,0.0,0.0,0.0,0.0,0.0,0.0,0.0,0.0,0.0,0.0,0.0,0.0,0.0,0.0,0.0,0.0,0.0,0.0,0.0,0.0,0.0,0.0,0.0,0.0,0.0,0.0,0.0,0.0,0.0,0.0,0.0,0.0,0.0,0.0,0.0,0.0,0.0,0.0,0.0,0.0,0.0,0.0,0.0,0.0,0.0,0.0,0.0,0.0,0.0,0.0,0.0,0.0,0.0,0.0,0.0,0.0,0.0,0.0,0.0,0.0,0.0,0.0,0.0,0.0,0.0,0.0,0.0,0.0,0.0,0.0,0.0,0.0,0.0,0.0,0.0,0.0,0.0,0.0,0.0,0.0,0.0,0.0,0.0,0.0,0.0,0.0,0.0,0.0,0.0,0.0,0.0,0.0,0.0,0.0,0.0,0.0,0.0,0.0,0.0,0.0,0.0,0.0,0.0,0.0,0.0,0.0,0.0,0.0,0.0,0.0,0.0,0.0,0.0,0.0,0.0,0.0,0.0,0.0,0.0,0.0,0.0,0.0,0.0,0.0,0.0,0.0,0.0,0.0,0.0,0.0,0.0,0.0,0.0,0.0,0.0,0.0,0.0,0.0,0.0,0.0,0.0,0.0,0.0,0.0,0.0,0.0,0.0,0.0,0.0,0.0,0.0,0.0,0.0,0.0,0.0,0.0,0.0,0.0,0.0,0.0,0.0,0.0,0.0,0.0,0.0,0.0,0.0,0.0,0.0,0.0,0.0,0.0,0.0,0.0,0.0,0.0,0.0,0.0,0.0,0.0,0.0,0.0,0.0,0.0,0.0,0.0,0.0,0.0,0.0,0.0,0.0,0.0,0.0,0.0,0.0,0.0,0.0,0.0,0.0,0.0,0.0,0.0,0.0,0.0,0.0,0.0,0.0,0.0,0.0,0.0,0.0,0.0,0.0,0.0,0.0,0.0,0.0,0.0,0.0,0.0,0.0,0.0,0.0,0.0,0.0,0.0,0.0,0.0,0.0,0.0,0.0,0.0,0.0,0.0,0.0,0.0,0.0,0.0,0.0,0.0,0.0,0.0,0.0,0.0,0.0,0.0,0.0,0.0,0.0,0.0,0.0,0.0,0.0,0.0,0.0,0.0,0.0,0.0,0.0,0.0,0.0,0.0,0.0,0.0,0.0,0.0,0.0,0.0,0.0,0.0,0.0,0.0,0.0,0.0,0.0,0.0,0.0,0.0,0.0,0.0,0.0,0.0,0.0,0.0,0.0,0.0,0.0,0.0,0.0,0.0,0.0,0.0,0.0,0.0,0.0,0.0,0.0,0.0,0.0,0.0,0.0,0.0,0.0,0.0,0.0,0.0,0.0,0.0,0.0,0.0,0.0,0.0,0.0,0.0,0.0,0.0,0.0,0.0,0.0,0.0,0.0,0.0,0.0,0.0,0.0,0.0,0.0,0.0,0.0,0.0,0.0,0.0,0.0,0.0,0.0,0.0,0.0,0.0,0.0,0.0,0.0,0.0,0.0,0.0,0.0,0.0,0.0,0.0,0.0,0.0,0.0,0.0,0.0,0.0,0.0,0.0,0.0,0.0,0.0,0.0,0.0,0.0,0.0,0.0,0.0,0.0,0.0,0.0,0.0,0.0,0.0,0.0,0.0,0.0,0.0,0.0,0.0,0.0,0.0,0.0,0.0,0.0,0.0,0.0,0.0,0.0,0.0,0.0,0.0,0.0,0.0,0.0,0.0,0.0,0.0,0.0,0.0,0.0,0.0,0.0,0.0,0.0,0.0,0.0,0.0,0.0,0.0,1.4047,0.0,0.0,0.0,0.0,0.0,0.0,0.0,0.0,0.0,0.0,0.0,0.0,0.0,0.0,0.0,0.0,0.0,0.0,0.0,0.0,0.0,0.0,0.0,0.0,0.0,0.0,0.0,0.0,0.0,0.0,0.0,0.0,0.0,0.0,0.0,0.0,0.0,0.0,0.0,1.4098,1.4013,1.404,1.4433,1.5029,1.5838,0.0,0.0,0.0,0.0,0.0,0.0,0.0,0.0,0.0,0.0,0.0,0.0,0.0,0.0,0.0,0.0,0.0,0.0,0.0,0.0,0.0,0.0,0.0,0.0,0.0,0.0,0.0,0.0,0.0,0.0,0.0,0.0,0.0,0.0,0.0,0.0,0.0,0.0,0.0,0.0,0.0,0.0,0.0,0.0,0.0,0.0,0.0,0.0,0.0,0.0,0.0,0.0,0.0,0.0,0.0,0.0,0.0,0.0,0.0,0.0,0.0,0.0,0.0,0.0,0.0,0.0,0.0,0.0,0.0,0.0,0.0,1.3524,0.0,0.0,0.0,0.0,0.0,0.0,0.0,0.0,0.0,0.0,0.0,0.0,0.0,0.0,0.0,0.0,0.0,0.0,0.0,0.0,0.0,0.0,0.0,0.0,0.0,0.0,0.0,0.0,0.0,0.0,0.0,0.0,0.0,0.0,0.0,1.4994,1.4746,1.4461,1.4241,1.4176,1.43,1.4683,1.5102,1.5507,1.6024,0.0,0.0,0.0,0.0,0.0,0.0,0.0,0.0,0.0,0.0,0.0,0.0,0.0,0.0,0.0,0.0,0.0,0.0,0.0,0.0,0.0,0.0,0.0,0.0,0.0,0.0,0.0,0.0,0.0,0.0,0.0,0.0,0.0,0.0,0.0,0.0,0.0,0.0,0.0,0.0,0.0,0.0,0.0,0.0,0.0,0.0,0.0,0.0,0.0,0.0,0.0,0.0,0.0,0.0,0.0,0.0,0.0,0.0,0.0,0.0,0.0,0.0,0.0,0.0,1.1506,1.1308,1.0769,1.0504,1.0538,1.1559,1.2034,1.209,0.0,0.0,0.0,0.0,0.0,0.0,0.0,0.0,0.0,0.0,0.0,0.0,0.0,0.0,0.0,0.0,0.0,0.0,0.0,0.0,0.0,0.0,0.0,1.5747,1.6438,1.6528,0.0,0.0,0.0,0.0,0.0,0.0,0.0,1.5463,1.5268,1.5025,1.4746,1.4637,1.4637,1.4746,1.4994,1.5254,1.5507,1.5827,1.6123,1.6394,0.0,0.0,0.0,0.0,0.0,0.0,0.0,0.0,0.0,0.0,0.0,0.0,0.0,0.0,0.0,0.0,0.0,0.0,0.0,0.0,0.0,0.0,0.0,0.0,0.0,0.0,0.0,0.0,0.0,0.0,0.0,0.0,0.0,0.0,0.0,0.0,0.0,0.0,0.0,0.0,0.0,1.2298,1.2987,0.0,0.0,0.0,0.0,0.0,0.0,0.0,0.0,0.0,0.0,0.0,0.0,0.0,0.0,1.2893,1.268,1.2255,1.1652,1.1058,1.0561,1.0109,0.9767,0.9475,0.9227,0.9405,0.0,1.083,1.0872,0.0,0.0,0.0,0.0,0.0,0.0,0.0,0.0,0.0,0.0,0.0,0.0,0.0,0.0,0.0,0.0,0.0,0.0,0.0,0.0,0.0,0.0,1.593,1.6722,1.6785,0.0,0.0,0.0,0.0,0.0,0.0,1.587,1.5551,1.5433,1.5268,1.5025,1.4994,1.5025,1.5102,1.5284,1.5463,1.5609,1.5854,1.6067,1.6262,1.634,0.0,0.0,0.0,0.0,0.0,0.0,0.0,0.0,0.0,0.0,0.0,0.0,0.0,0.0,0.0,0.0,0.0,0.0,0.0,0.0,0.0,0.0,0.0,0.0,0.0,0.0,0.0,0.0,0.0,0.0,0.0,0.0,0.0,0.0,0.0,0.0,0.0,0.0,0.0,1.1737,1.1982,1.2521,1.2703,1.3037,0.0,0.0,0.0,0.0,0.0,0.0,0.0,0.0,0.0,1.3598,1.3328,1.2787,1.2035,1.1598,1.1061,1.0386,0.9748,0.9234,0.8884,0.8487,0.8193,0.8075,0.801,0.8282,0.8856,0.9632,1.0024,1.0188,0.0,0.0,0.0,0.0,0.0,0.9708,0.0,0.0,0.0,0.0,0.0,0.0,0.0,0.0,0.0,0.0,0.0,0.0,0.0,1.5487,1.6328,1.6975,1.7023,0.0,0.0,0.0,0.0,0.0,0.0,1.6039,1.5726,1.561,1.5433,1.5268,1.5298,1.5344,1.5418,1.5566,1.5711,1.5839,1.6011,1.6095,1.6166,1.6166,1.6126,1.6042,0.0,0.0,0.0,0.0,0.0,0.0,0.0,0.0,0.0,0.0,0.0,0.0,0.0,0.0,0.0,0.0,0.0,0.0,0.0,0.0,0.0,0.0,0.0,0.0,0.0,0.0,0.0,0.0,0.0,0.0,0.0,0.0,0.0,0.0,0.0,0.0,0.0,1.1518,1.1612,1.1937,1.1978,1.2149,0.0,0.0,0.0,0.0,0.0,0.0,1.3307,1.3119,1.2945,1.2668,1.2329,1.1817,1.1191,1.0639,1.0044,0.9351,0.8686,0.8204,0.7836,0.7355,0.712,0.712,0.6993,0.7054,0.7294,0.848,0.9066,0.924,0.9414,0.9363,0.0,0.9421,0.9363,0.9259,0.0,0.0,0.0,0.0,0.0,0.0,0.0,0.0,0.0,0.0,0.0,0.0,0.0,1.6128,1.7075,1.7174,1.7248,1.7232,0.0,1.7083,1.694,1.6596,1.6463,1.6289,1.6067,1.5755,1.5551,1.5477,1.5551,1.5654,1.577,1.5926,1.6039,1.6194,1.6253,1.6225,1.6095,1.6098,1.597,1.5696,1.5521,0.0,0.0,0.0,0.0,0.0,0.0,0.0,0.0,0.0,0.0,0.0,0.0,0.0,0.0,0.0,0.0,0.0,0.0,0.0,0.0,0.0,0.0,0.0,0.0,0.0,0.0,0.0,0.0,0.0,0.0,0.0,0.0,0.0,0.0,0.0,0.0,0.0,0.0,1.1084,1.1314,0.0,0.0,0.0,0.0,1.2597,1.2442,1.2341,1.2265,1.1981,1.1599,1.123,1.1033,1.0728,1.0254,0.9974,0.9545,0.9046,0.8339,0.7757,0.7233,0.6702,0.6445,0.6453,0.6248,0.6379,0.6811,0.7487,0.7844,0.8016,0.8145,0.821,0.821,0.821,0.8328,0.8445,0.0,0.0,0.0,0.0,0.0,0.0,0.0,0.0,0.0,0.0,0.0,0.0,0.0,1.6508,1.7199,1.7338,1.7322,1.7281,1.7298,1.7158,1.6991,1.6753,1.6554,1.6355,1.6095,1.594,1.5854,1.5826,1.5854,1.6167,1.6768,1.6811,1.7157,1.772,1.7731,1.7688,1.7571,1.6493,1.5886,1.5595,1.5222,1.4794,0.0,0.0,0.0,0.0,0.0,0.0,0.0,0.0,0.0,0.0,0.0,0.0,0.0,0.0,0.0,0.0,0.0,0.0,0.0,0.0,0.0,0.0,0.0,0.0,0.0,0.0,0.0,0.0,0.0,0.0,0.0,0.0,0.0,0.0,0.0,0.0,0.0,1.1235,1.1274,0.0,1.1225,1.117,1.1154,1.1166,1.0997,1.0925,1.1092,1.0865,1.0664,1.056,1.0438,1.0149,0.9627,0.9205,0.8655,0.8051,0.7325,0.6745,0.6354,0.5993,0.5841,0.5852,0.5949,0.6132,0.6263,0.6755,0.7152,0.7487,0.7618,0.7739,0.7744,0.7812,0.8001,0.8185,0.0,0.0,0.0,0.0,0.0,0.0,0.0,0.0,0.0,0.0,0.0,1.5091,1.5652,1.662,1.7298,1.7419,1.7378,1.7371,1.7371,1.7232,1.7066,1.6847,1.6596,1.6355,1.6095,1.6281,1.6374,1.6346,1.6632,1.7085,1.7666,1.7755,1.8091,1.8708,1.8643,1.8611,1.8462,1.7212,1.6366,1.5844,1.531,1.4708,1.4046,0.0,0.0,0.0,0.0,0.0,0.0,0.0,0.0,0.0,0.0,0.0,0.0,0.0,0.0,0.0,0.0,0.0,0.0,0.0,0.0,0.0,0.0,0.0,0.0,0.0,0.0,0.0,0.0,0.0,0.0,0.0,0.0,0.0,0.0,0.0,1.1012,1.102,1.092,1.0792,1.0592,1.0632,1.0618,1.0411,1.0234,1.0203,1.0275,1.0098,0.9988,0.9903,0.9758,0.9446,0.8969,0.8427,0.7877,0.7384,0.6652,0.612,0.5852,0.5477,0.531,0.5383,0.562,0.5734,0.5882,0.6241,0.6604,0.6865,0.7198,0.7333,0.7333,0.7472,0.7673,0.7865,0.0,0.0,0.0,0.0,0.0,0.0,0.0,0.0,0.0,0.0,1.4022,1.4935,1.5098,1.642,1.7338,1.7491,1.7515,1.7427,1.7306,1.7306,1.7183,1.6905,1.6559,1.6316,1.6126,1.6768,1.7075,1.703,1.7884,1.8346,1.8439,1.8651,1.8815,1.898,1.8975,1.8876,1.8661,1.8242,1.7432,1.6413,1.5835,1.4863,1.3708,0.0,0.0,0.0,0.0,0.0,0.0,0.0,0.0,0.0,0.0,0.0,0.0,0.0,0.0,0.0,0.0,0.0,0.0,0.0,0.0,0.0,0.0,0.0,0.0,0.0,0.0,0.0,0.0,0.0,0.0,0.0,0.0,0.0,1.0868,1.0674,1.0437,1.035,1.0258,1.0247,1.0345,1.0497,1.0508,1.036,1.0245,1.0043,0.9834,0.9625,0.9416,0.9055,0.8855,0.8584,0.8245,0.7673,0.7313,0.7162,0.638,0.5875,0.5731,0.5165,0.502,0.5162,0.5237,0.5312,0.5535,0.5967,0.6111,0.6183,0.667,0.6877,0.6877,0.7086,0.7229,0.7482,0.0,0.0,0.0,0.0,0.0,0.0,0.0,0.0,0.0,0.0,1.3929,1.4604,1.5774,1.6249,1.6779,1.7441,1.7443,1.7395,1.7371,1.7248,1.6991,1.6623,1.6479,1.6549,1.6872,1.7071,1.7409,1.7869,1.8223,1.8703,1.9343,1.9498,1.9936,2.065,2.0572,2.0461,2.024,1.9728,1.8807,1.7615,1.6473,1.5597,1.4879,0.0,0.0,0.0,0.0,0.0,0.0,0.0,0.0,0.0,0.0,0.0,0.0,0.0,0.0,0.0,0.0,0.0,0.0,0.0,0.0,0.0,0.0,0.0,0.0,0.0,0.0,0.0,0.0,0.0,0.0,0.0,0.0,0.9812,1.0486,1.0479,1.0448,1.0424,1.028,1.0086,0.9894,0.9765,0.9621,0.9265,0.913,0.8931,0.872,0.8574,0.8428,0.8287,0.8078,0.7865,0.7655,0.7212,0.6772,0.6331,0.5857,0.545,0.5165,0.4893,0.4858,0.4938,0.533,0.5527,0.5603,0.6059,0.6215,0.6266,0.6397,0.6444,0.6444,0.6516,0.6722,0.7095,0.0,0.0,0.0,0.0,0.0,0.0,0.0,0.0,0.0,0.0,1.3682,1.4205,1.5179,1.5801,1.6371,1.6908,1.7166,1.7298,1.7273,1.7016,1.6769,1.649,1.6647,1.6921,1.7193,1.7792,1.8269,1.8669,1.909,1.9592,2.0177,2.0353,2.0749,2.134,2.1276,2.1134,2.0943,2.0385,1.9557,1.86,1.746,1.6335,1.5263,1.4748,1.4398,1.4195,1.4409,1.4425,1.4441,1.4964,0.0,0.0,0.0,0.0,0.0,0.0,0.0,0.0,0.0,0.0,0.0,0.0,0.0,0.0,0.0,0.0,0.0,0.0,0.0,0.0,0.0,0.0,0.0,0.0,0.9188,0.9265,0.9742,0.9928,0.9977,1.0008,0.9856,0.9706,0.9357,0.9304,0.9,0.8563,0.8417,0.8276,0.7983,0.7828,0.7755,0.7681,0.7567,0.7401,0.7175,0.6949,0.6576,0.6273,0.5738,0.5402,0.5184,0.4955,0.4909,0.0,0.5449,0.5637,0.5789,0.6106,0.6338,0.0,0.0,0.0,0.0,0.0,0.6699,0.7041,0.0,0.0,0.0,0.0,0.0,0.0,0.0,0.0,0.0,0.0,0.0,1.3734,1.3958,1.5082,1.5935,1.6144,1.6694,1.7043,1.7016,1.6743,1.6548,1.648,1.6998,1.7313,1.7394,1.8638,1.9317,1.941,2.0131,2.0595,2.0794,2.1071,2.1294,2.1417,2.1433,2.1339,2.1181,2.0677,2.0132,1.9507,1.8577,1.7095,1.5349,1.4823,1.4472,1.4287,1.4661,1.4767,1.4786,1.5136,0.0,0.0,0.0,0.0,0.0,0.0,0.0,0.0,0.0,0.0,0.0,0.0,0.0,0.0,0.0,0.0,0.0,0.0,0.0,0.0,0.0,0.0,0.0,0.0,0.8531,0.8727,0.8875,0.9054,0.9301,0.9378,0.9259,0.9069,0.8901,0.8849,0.8651,0.803,0.8025,0.7872,0.7484,0.0,0.0,0.0,0.0,0.7026,0.6865,0.6637,0.6563,0.6483,0.5944,0.5637,0.5559,0.5249,0.5171,0.5321,0.5556,0.5712,0.5941,0.618,0.6338,0.6338,0.6338,0.6338,0.6338,0.6563,0.6844,0.0,0.0,0.0,0.0,0.0,0.0,0.0,0.0,0.0,0.0,1.2659,1.2751,1.3075,1.3775,1.4066,1.4697,1.5861,1.604,1.6198,1.6512,1.6463,1.662,1.6933,1.7087,1.7609,1.8627,1.8984,1.94,1.9951,2.033,2.0595,2.0794,2.1119,2.1388,2.1559,2.2115,2.2195,2.1979,2.1973,2.1587,2.0807,1.944,1.7984,1.6572,1.6046,1.5592,1.5215,1.5174,1.5028,1.4891,1.4959,1.4824,1.464,1.4571,1.4387,0.0,0.0,0.0,0.0,0.0,0.0,0.0,0.0,0.0,0.0,0.0,0.0,0.0,0.0,0.0,0.0,0.0,0.0,0.0,0.8475,0.8305,0.8273,0.8591,0.8412,0.844,0.9156,0.9035,0.8838,0.8516,0.8382,0.803,0.7423,0.7334,0.7257,0.7019,0.7019,0.0,0.6942,0.6791,0.6718,0.6637,0.649,0.6257,0.6018,0.0,0.0,0.5559,0.5482,0.5482,0.5559,0.5786,0.5864,0.5941,0.618,0.6338,0.6338,0.6338,0.6338,0.6338,0.6563,0.6536,0.6541,0.0,0.0,0.0,0.0,0.0,0.0,0.0,0.0,0.0,0.0,1.2577,1.2705,1.3115,1.3451,1.3946,1.4642,1.5233,1.5753,1.6215,1.6262,1.6486,1.7029,1.738,1.8003,1.8988,1.9375,1.9764,2.01,2.0392,2.0595,2.0794,2.1151,2.1419,2.1622,2.2389,2.2556,2.2297,2.2571,2.2207,2.1441,2.0021,1.8794,1.7623,1.6522,1.5872,1.5462,1.5119,1.4789,1.4503,1.4329,1.405,1.3815,1.3589,1.3358,1.313,0.0,0.0,0.0,0.0,0.0,0.0,0.0,0.0,0.0,0.0,0.0,0.0,0.0,0.0,0.7391,0.0,0.0,0.7716,0.7829,0.7787,0.7845,0.8113,0.7895,0.7943,0.8513,0.8341,0.8225,0.8052,0.7725,0.7398,0.7006,0.6999,0.6917,0.6674,0.6748,0.6795,0.6795,0.6715,0.6638,0.6638,0.6558,0.6361,0.6202,0.6126,0.5934,0.5712,0.5634,0.5637,0.5789,0.5864,0.5941,0.6099,0.6261,0.6338,0.6338,0.6338,0.6338,0.6338,0.6412,0.6437,0.6504,0.0,0.0,0.0,0.0,0.0,0.0,0.0,0.0,0.0,0.0,1.2514,1.2459,1.2459,1.2931,1.333,1.3584,1.4581,1.5415,1.5966,1.6011,1.6318,1.7091,1.7619,1.8316,1.9118,1.9737,2.008,2.008,2.0357,2.0628,2.0827,2.1151,2.1419,2.1653,2.2584,2.285,2.2618,2.3115,2.2809,2.1913,2.0519,1.9364,1.8313,1.6641,1.5763,1.5393,1.4812,1.4367,1.3935,1.3515,1.315,1.2764,1.2463,1.2209,1.1981,1.165,1.1404,0.0,0.0,0.0,0.0,0.0,0.0,0.0,0.0,0.738,0.713,0.71,0.6944,0.686,0.7086,0.7214,0.7312,0.7196,0.7377,0.7545,0.7539,0.7476,0.7513,0.7628,0.7617,0.7507,0.736,0.7156,0.6827,0.6642,0.6638,0.6568,0.6435,0.6552,0.6619,0.6702,0.6702,0.6702,0.6702,0.6702,0.6637,0.6515,0.6361,0.6218,0.6025,0.5871,0.5871,0.6022,0.5993,0.6139,0.6298,0.6349,0.6338,0.6338,0.6338,0.6338,0.6338,0.6338,0.6412,0.6546,0.0,0.0,0.0,0.0,0.0,0.0,0.0,0.0,0.0,0.0,0.0,0.0,0.0,0.0,1.2781,1.3861,1.4494,1.5079,1.5623,1.5668,1.6203,1.7385,1.7555,1.8246,1.9513,1.9854,2.0005,2.0005,2.0323,2.0646,2.0893,2.1183,2.1433,2.1744,2.3074,2.3571,2.344,2.4297,2.3974,2.2709,2.1139,1.9692,1.824,1.6633,1.572,1.5222,1.4525,1.3867,1.3243,1.2686,1.2104,1.1569,1.141,1.1108,1.0751,1.0597,1.0368,1.0068,0.9621,0.9119,0.8633,0.8509,0.7929,0.7511,0.0,0.72,0.6854,0.6884,0.6869,0.6845,0.6667,0.6942,0.7217,0.7368,0.7293,0.7204,0.7183,0.7031,0.6848,0.6562,0.7085,0.7242,0.6636,0.6513,0.6286,0.5919,0.591,0.6047,0.6341,0.6363,0.6453,0.6702,0.6702,0.6702,0.6702,0.6702,0.6692,0.6675,0.6675,0.6664,0.6651,0.6569,0.6569,0.6644,0.6505,0.6447,0.6437,0.6312,0.6338,0.6338,0.6338,0.6338,0.6338,0.6338,0.6338,0.6335,0.0,0.0,0.0,0.0,0.0,0.0,0.0,0.0,0.0,0.0,0.0,0.0,0.0,1.2117,1.2355,1.3232,1.3748,1.4296,1.4846,1.5271,1.5904,1.6828,1.7308,1.8011,1.9001,1.9581,1.9955,2.0045,2.0426,2.0728,2.1023,2.1327,2.1578,2.1793,2.2865,2.3198,2.301,2.3597,2.3277,2.2245,2.0782,1.9433,1.8147,1.6216,1.4958,1.4128,1.3867,1.3158,0.0,1.1704,1.1006,1.0419,1.0118,0.9859,0.9602,0.9337,0.9164,0.8965,0.8511,0.8128,0.7854,0.7928,0.7516,0.7122,0.7319,0.7,0.6662,0.6691,0.6648,0.6574,0.6598,0.6723,0.6767,0.0,0.6827,0.6797,0.6678,0.6523,0.6319,0.5982,0.6054,0.6183,0.6072,0.5838,0.5676,0.5536,0.57,0.5838,0.606,0.6401,0.6618,0.6787,0.6873,0.6956,0.6956,0.6956,0.6915,0.6834,0.6834,0.6787,0.6702,0.6702,0.6702,0.6698,0.663,0.6556,0.6468,0.641,0.6335,0.6338,0.6338,0.6338,0.6338,0.6338,0.6338,0.6338,0.0,0.0,0.0,0.0,0.0,0.0,0.0,0.0,0.0,0.0,0.0,0.0,0.0,1.2012,1.214,1.2709,1.3031,1.3534,1.4281,1.4776,1.5401,1.6259,1.6837,1.7478,1.8214,1.9041,1.9597,1.9791,2.0364,2.0809,2.1135,2.1454,2.1671,2.1864,2.2664,2.2912,2.2687,2.301,2.2556,2.1549,2.0327,1.8947,1.747,1.5585,1.4043,1.2868,1.2797,1.2104,1.109,1.0411,0.9777,0.9116,0.8825,0.8596,0.84,0.8087,0.7943,0.7897,0.7576,0.7375,0.7298,0.7395,0.71,0.678,0.7091,0.6805,0.6569,0.6585,0.6464,0.6349,0.6465,0.6455,0.6351,0.6296,0.6344,0.6297,0.6132,0.5889,0.5597,0.5339,0.4957,0.4852,0.5191,0.5154,0.511,0.5111,0.5396,0.5636,0.5846,0.6383,0.6704,0.6795,0.6966,0.7139,0.7139,0.7139,0.7088,0.6987,0.6987,0.6929,0.682,0.682,0.682,0.682,0.678,0.6702,0.6593,0.6508,0.6413,0.6315,0.6278,0.6338,0.6338,0.6338,0.6338,0.6338,0.0,0.0,0.0,0.0,0.0,0.0,0.0,0.0,0.0,0.0,0.0,0.0,0.0,0.0,1.2133,1.2668,1.2536,1.2925,1.4112,1.4156,1.47,1.5974,1.6207,1.6623,1.7229,1.8233,1.8835,1.9022,2.0008,2.0736,2.1182,2.1482,2.1702,2.1927,2.2733,2.2979,2.2815,2.316,2.2445,2.1038,2.0036,1.8245,1.6019,1.4785,1.3158,1.1534,1.1241,1.0489,0.9511,0.8922,0.829,0.7631,0.7576,0.7356,0.7139,0.6965,0.6875,0.6818,0.7189,0.7042,0.6884,0.7045,0.6861,0.663,0.6869,0.6611,0.636,0.6597,0.6405,0.6335,0.6338,0.6222,0.6241,0.6163,0.5952,0.5705,0.5463,0.5131,0.4711,0.4453,0.3957,0.366,0.0,0.4309,0.4615,0.4448,0.4879,0.5331,0.5708,0.616,0.652,0.6795,0.6966,0.7139,0.7139,0.7139,0.7139,0.7132,0.7132,0.7132,0.7126,0.7126,0.7126,0.7119,0.6983,0.6919,0.6892,0.6597,0.6471,0.6454,0.6315,0.6338,0.6338,0.6338,0.6338,0.6338,0.0,0.0,0.0,0.0,0.0,0.0,0.0,0.0,0.0,0.0,0.0,0.0,0.0,0.0,0.0,0.0,1.2344,1.2599,1.2917,1.3669,1.4269,1.4681,1.5636,1.6293,1.6608,1.7552,1.8167,1.8401,1.9029,1.956,1.9947,2.027,2.0505,2.0659,2.0921,2.0928,2.0727,2.0475,1.9799,1.8834,1.7827,1.6418,1.4807,1.3179,1.1592,1.0027,0.0,0.8409,0.8332,0.7594,0.6934,0.6387,0.6243,0.6046,0.5931,0.6001,0.6173,0.6303,0.6494,0.6591,0.669,0.6775,0.6614,0.6434,0.6673,0.6485,0.6318,0.6191,0.618,0.6078,0.5976,0.5851,0.572,0.5593,0.5419,0.5181,0.4763,0.4534,0.4178,0.3701,0.3388,0.0,0.0,0.0,0.0,0.3775,0.4197,0.464,0.5008,0.5633,0.6077,0.652,0.6789,0.6966,0.7139,0.7139,0.7139,0.7139,0.7139,0.7139,0.7139,0.7139,0.7139,0.7136,0.7088,0.7014,0.6912,0.6709,0.6563,0.6458,0.6315,0.6338,0.6338,0.6338,0.6338,0.6338,0.0,0.0,0.0,0.0,0.0,0.0,0.0,0.0,0.0,0.0,0.0,0.0,0.0,0.0,0.0,0.0,0.0,1.2282,1.2371,1.3037,1.3614,1.3983,1.4914,1.5538,1.5831,1.6802,1.7458,1.7725,1.8451,1.9001,1.9393,1.9714,1.9933,2.0069,2.0102,1.9968,1.9703,1.9186,1.8479,1.761,1.6557,1.5175,1.3548,1.1871,1.016,0.0,0.6871,0.65,0.6597,0.6154,0.5546,0.5019,0.4971,0.496,0.4989,0.5266,0.5568,0.5719,0.5895,0.6168,0.6364,0.6371,0.6335,0.6363,0.6465,0.6371,0.6149,0.6051,0.5986,0.5918,0.582,0.5587,0.5359,0.5234,0.4841,0.4453,0.4029,0.3753,0.3355,0.2925,0.2714,0.2483,0.0,0.0,0.0,0.3143,0.3815,0.4414,0.4656,0.5366,0.5897,0.634,0.6704,0.6881,0.7139,0.7139,0.7139,0.7139,0.7139,0.7139,0.7139,0.7139,0.7139,0.7139,0.7139,0.7088,0.699,0.6783,0.6644,0.6532,0.6339,0.6338,0.6338,0.6338,0.6338,0.6338,0.0,0.0,0.0,0.0,0.0,0.0,0.0,0.0,0.0,0.0,0.0,0.0,0.0,0.0,0.0,0.0,0.0,0.0,1.2458,1.2371,1.2782,1.3856,1.4056,1.44,1.4913,1.5922,1.6635,1.6964,1.8037,1.8831,1.9286,1.9638,1.9889,2.0044,2.0112,1.9974,1.9662,1.9203,1.8385,1.7312,1.6215,1.4448,1.2323,1.0854,0.8907,0.6842,0.5476,0.4714,0.4401,0.4581,0.4162,0.3664,0.3883,0.4023,0.4258,0.477,0.4967,0.507,0.5549,0.5813,0.6002,0.5915,0.6106,0.6257,0.6251,0.6135,0.6023,0.6,0.5878,0.5772,0.5759,0.0,0.5129,0.4997,0.4372,0.3772,0.3323,0.2857,0.2454,0.0,0.0,0.0,0.0,0.0,0.0,0.2701,0.0,0.4389,0.4661,0.5277,0.5897,0.634,0.6615,0.6881,0.7051,0.7051,0.7139,0.7139,0.7139,0.7139,0.7139,0.7139,0.7139,0.7139,0.7139,0.7136,0.7105,0.6817,0.6695,0.6661,0.6373,0.6338,0.6338,0.6338,0.6338,0.6338,0.0,0.0,0.0,0.0,0.0,0.0,0.0,0.0,0.0,0.0,0.0,0.0,0.0,0.0,0.0,0.0,0.0,0.0,1.2125,1.237,1.2614,1.2787,1.3274,1.3596,1.3728,1.4235,1.4641,1.4868,1.5517,1.6007,1.6373,1.671,1.7262,1.7954,1.7942,1.8061,1.8276,1.7664,1.6803,1.5739,1.4419,1.2794,1.1012,0.9328,0.7578,0.5786,0.4357,0.324,0.2602,0.3402,0.3197,0.2634,0.3014,0.3186,0.3327,0.3865,0.4341,0.473,0.5293,0.5582,0.577,0.5988,0.6022,0.5992,0.6039,0.6129,0.6152,0.5741,0.5702,0.56,0.5304,0.4968,0.468,0.4441,0.4065,0.0,0.2941,0.2626,0.0,0.1866,0.1816,0.1683,0.1464,0.1583,0.0,0.0,0.2681,0.3492,0.4117,0.4656,0.528,0.5897,0.6169,0.6435,0.6868,0.7051,0.7139,0.7139,0.7139,0.7139,0.7139,0.7139,0.7139,0.7139,0.7139,0.7082,0.6966,0.6776,0.6634,0.6512,0.6332,0.6338,0.6338,0.6338,0.6338,0.6338,0.0,0.0,0.0,0.0,0.0,0.0,0.0,0.0,0.0,0.0,0.0,0.0,0.0,0.0,0.0,0.0,0.0,0.0,0.0,1.2303,1.2401,1.2478,1.2841,1.3165,1.3388,1.3738,1.3995,1.4232,1.4664,1.5064,1.5435,1.5777,1.6235,1.6798,1.6726,1.6764,1.6838,1.6193,1.5304,0.0,0.0,1.1261,0.9508,0.7889,0.6435,0.5003,0.3256,0.1682,0.0522,0.0806,0.1203,0.1709,0.2032,0.2408,0.2838,0.3249,0.3765,0.4185,0.4724,0.5048,0.5352,0.5639,0.5761,0.5841,0.5822,0.5915,0.5946,0.5662,0.5505,0.5293,0.5118,0.4765,0.4454,0.0,0.0,0.0,0.2589,0.2281,0.2044,0.1562,0.1504,0.1363,0.1055,0.107,0.1166,0.0,0.2331,0.3135,0.3583,0.421,0.4835,0.5364,0.5725,0.6169,0.6605,0.6871,0.6962,0.6966,0.7051,0.7139,0.7139,0.7139,0.7139,0.7139,0.0,0.7058,0.6915,0.6763,0.661,0.6458,0.6315,0.6338,0.6338,0.6338,0.6338,0.6338,0.0,0.0,0.0,0.0,0.0,0.0,0.0,0.0,0.0,0.0,0.0,0.0,0.0,0.0,0.0,0.0,0.0,0.0,0.0,0.0,1.2279,1.2559,1.2594,1.2828,1.3316,1.3603,1.389,1.4153,1.4558,1.4946,1.5333,1.5679,1.594,1.6179,1.6094,1.5941,1.5702,1.5056,1.4124,1.2984,1.1654,1.001,0.8163,0.0,0.5392,0.4202,0.2017,0.0094,-0.1457,-0.2019,-0.0923,0.0653,0.0976,0.1614,0.2405,0.2805,0.3194,0.3605,0.4008,0.454,0.4875,0.5055,0.5312,0.5617,0.5616,0.5545,0.5534,0.5524,0.5314,0.5056,0.5089,0.469,0.4317,0.4075,0.3551,0.2877,0.2311,0.1937,0.1713,0.1337,0.1263,0.1028,0.0625,0.0628,0.0897,0.1345,0.2241,0.2868,0.3136,0.3762,0.4387,0.4919,0.5371,0.5816,0.6343,0.6605,0.6694,0.6792,0.6966,0.7051,0.7051,0.7051,0.7054,0.7139,0.0,0.0,0.6888,0.6732,0.658,0.643,0.6308,0.6338,0.6338,0.6338,0.6338,0.6338,0.0,0.0,0.0,0.0,0.0,0.0,0.0,0.0,0.0,0.0,1.3994,1.3913,0.0,0.0,0.0,0.0,0.0,0.0,0.0,0.0,0.0,1.2353,1.2247,1.2264,1.2327,1.2405,1.2583,1.2909,1.3207,1.3563,1.3953,1.4224,1.4787,1.5544,1.5422,1.5552,1.5831,1.5098,1.4101,1.2905,1.1379,0.9617,0.7697,0.5952,0.0,0.0,0.0088,-0.1414,-0.2265,-0.2164,-0.1543,-0.0733,-0.0184,0.053,0.1369,0.225,0.2709,0.3059,0.3788,0.4073,0.4316,0.4646,0.4849,0.4983,0.4957,0.5191,0.5421,0.5219,0.5079,0.4998,0.4949,0.4579,0.4127,0.3883,0.3441,0.2877,0.2311,0.1937,0.1713,0.1337,0.0927,0.06,0.0179,0.0449,0.0,0.0,0.0,0.0,0.2867,0.3226,0.3851,0.4739,0.501,0.5369,0.5822,0.6083,0.6346,0.6432,0.652,0.6609,0.6881,0.6881,0.6966,0.7132,0.0,0.0,0.6729,0.6573,0.6427,0.6295,0.6349,0.6338,0.6338,0.6338,0.6338,0.6338,0.0,0.0,0.0,0.0,0.0,0.0,0.0,1.4275,1.4324,1.4342,1.4291,1.4213,1.4068,1.3991,0.0,0.0,0.0,0.0,0.0,0.0,0.0,0.0,0.0,0.0,1.2266,1.228,1.2447,1.2769,0.0,1.3345,1.3711,1.3977,1.4387,1.4881,1.4774,1.478,1.4818,1.4102,1.311,1.1872,1.0399,0.8656,0.6723,0.0,0.0,0.0,-0.1318,-0.2282,-0.27,-0.2602,-0.2162,-0.1534,-0.0793,0.0065,0.0914,0.1735,0.2319,0.2795,0.3301,0.3593,0.3855,0.3997,0.4224,0.4329,0.4343,0.4676,0.4919,0.4918,0.4862,0.4851,0.482,0.4416,0.405,0.3881,0.3432,0.295,0.2495,0.2101,0.175,0.1372,0.0913,0.0427,-0.0,0.0178,0.0628,0.0,0.0,0.0,0.2061,0.269,0.3408,0.4125,0.4297,0.4654,0.5196,0.5371,0.5636,0.5899,0.6169,0.6346,0.6438,0.67,0.6835,0.6847,0.0,0.0,0.6576,0.6502,0.639,0.6338,0.6338,0.6338,0.6338,0.6338,0.6338,0.6338,0.0,0.0,0.0,0.0,0.0,0.0,0.0,1.4422,1.4453,1.4519,1.4522,1.4485,1.4314,1.4229,1.4136,0.0,0.0,0.0,0.0,0.0,0.0,0.0,0.0,0.0,0.0,0.0,0.0,1.2928,1.3227,0.0,0.0,0.0,0.0,0.0,1.4381,1.4196,1.3882,1.3215,1.221,0.0,0.0,0.7812,0.0,0.0,0.0,0.0,0.0,-0.2693,-0.2918,-0.2862,-0.2497,-0.1885,-0.1008,-0.0127,0.0678,0.1417,0.1979,0.2498,0.2755,0.3056,0.3258,0.3329,0.3459,0.3636,0.3804,0.4023,0.4335,0.4558,0.457,0.4622,0.4688,0.4301,0.3955,0.3912,0.3438,0.2955,0.2664,0.2245,0.1773,0.1327,0.0893,0.042,-0.0,-0.0,0.0,0.0,0.0,0.0,0.1436,0.2243,0.2875,0.3325,0.3497,0.3853,0.4484,0.4656,0.4924,0.5282,0.5638,0.5891,0.5954,0.6386,0.6573,0.6528,0.0,0.0,0.0,0.6437,0.6363,0.6338,0.6338,0.6338,0.6338,0.6338,0.6338,0.6338,0.0,0.0,0.0,0.0,0.0,0.0,0.0,1.4545,1.4578,1.4578,1.465,1.4672,1.467,1.4487,1.4353,0.0,0.0,0.0,0.0,0.0,0.0,0.0,0.0,0.0,0.0,0.0,0.0,1.3072,1.3411,0.0,0.0,0.0,0.0,0.0,0.0,1.4308,1.3943,1.3288,0.0,0.0,0.0,0.0,0.0,0.0,0.0,0.0,0.0,-0.2541,-0.2858,-0.2483,-0.2062,-0.1596,-0.0831,-0.0123,0.0605,0.1557,0.197,0.2124,0.2352,0.2497,0.2558,0.2674,0.2756,0.285,0.3101,0.3416,0.3688,0.4135,0.4239,0.4356,0.4636,0.4301,0.3955,0.3912,0.3438,0.2955,0.2664,0.2208,0.1738,0.1325,0.0868,0.0406,-0.0,-0.0,0.0,0.0,0.0,0.0,0.0,0.1794,0.2154,0.2603,0.2603,0.2963,0.3685,0.368,0.4034,0.475,0.4837,0.5056,0.5567,0.5567,0.5923,0.6373,0.0,0.0,0.0,0.6332,0.6274,0.6338,0.6338,0.6338,0.6338,0.6338,0.6338,0.6338,0.0,0.0,0.0,0.0,0.0,0.0,1.4549,1.4626,1.4666,1.4651,1.4729,1.4763,1.4756,1.4691,1.4595,0.0,0.0,0.0,0.0,0.0,0.0,0.0,0.0,0.0,0.0,0.0,1.3016,1.321,1.3557,0.0,0.0,0.0,0.0,0.0,0.0,1.4456,1.4131,1.3482,0.0,0.0,0.0,0.0,0.0,0.0,0.0,0.0,0.0,0.0,-0.2453,-0.1916,-0.1343,-0.0687,-0.0,0.0719,0.1431,0.1992,0.2092,0.2094,0.2268,0.2207,0.2124,0.2075,0.2144,0.2363,0.2578,0.2932,0.3276,0.3637,0.3918,0.4194,0.4328,0.4133,0.3984,0.3981,0.3518,0.3099,0.2852,0.2326,0.1893,0.1493,0.0926,0.0,0.0,0.0,0.0,0.0,0.0,0.0,0.0,0.1416,0.1705,0.1794,0.2064,0.2244,0.2603,0.2782,0.3229,0.3764,0.3877,0.427,0.4765,0.5086,0.5413,0.5662,0.0,0.0,0.0,0.6045,0.618,0.6338,0.6338,0.6338,0.6338,0.6338,0.6338,0.6338,0.0,0.0,0.0,0.0,0.0,1.4556,1.4585,1.4669,1.4736,1.472,1.4785,1.4825,1.4827,1.4839,1.4794,1.4695,0.0,0.0,0.0,0.0,0.0,0.0,0.0,0.0,0.0,0.0,1.3173,1.3362,1.3682,1.3991,0.0,0.0,1.4737,1.4859,0.0,0.0,0.0,0.0,0.0,0.0,0.0,0.0,0.0,0.0,0.0,0.0,0.0,0.0,0.0,0.0,0.0,0.0507,0.1102,0.1843,0.2424,0.2453,0.2403,0.2346,0.2281,0.2096,0.1949,0.1703,0.1742,0.1871,0.2082,0.2459,0.2866,0.3192,0.3568,0.3894,0.402,0.3955,0.3868,0.3907,0.3566,0.3209,0.2881,0.2383,0.1967,0.1648,0.0,0.0389,0.0,0.0,0.0,0.0,0.0,0.0,0.0,0.078,0.1059,0.1151,0.1418,0.1592,0.1762,0.2018,0.2363,0.2797,0.3097,0.3411,0.391,0.4472,0.4794,0.0,0.0,0.0,0.0,0.5786,0.5944,0.618,0.618,0.6257,0.6338,0.6338,0.6338,0.6338,0.0,0.0,0.0,0.0,0.0,0.0,1.4595,1.4709,1.4804,1.4804,1.4851,1.4902,1.4896,1.4892,1.4895,1.4896,0.0,0.0,0.0,0.0,0.0,0.0,0.0,0.0,0.0,0.0,1.3294,1.3512,1.3771,1.4074,1.4396,1.4661,1.4873,1.4988,0.0,0.0,0.0,0.0,0.0,0.0,0.0,0.0,0.0,0.0,0.0,0.0,0.0,0.0,0.0,0.0,0.0,0.0,0.0,0.3021,0.3579,0.2981,0.2864,0.2842,0.2511,0.216,0.1842,0.1566,0.1393,0.1388,0.1745,0.2015,0.235,0.2811,0.3124,0.3408,0.3739,0.3717,0.3604,0.3619,0.3452,0.315,0.2642,0.2279,0.191,0.0,0.0,0.0372,-0.0,0.0,0.0,0.0,0.0,0.0,0.0,-0.0,0.0254,0.0688,0.0688,0.094,0.1433,0.1411,0.1564,0.1891,0.2255,0.2742,0.3331,0.3493,0.0,0.0,0.0,0.0,0.0,0.5559,0.5712,0.5941,0.5941,0.6099,0.6338,0.6338,0.6338,0.6338,0.0,0.0,0.0,0.0,0.0,0.0,0.0,1.4743,1.4794,1.4793,1.4866,1.4919,1.495,1.496,1.4971,1.4963,0.0,0.0,0.0,0.0,0.0,0.0,0.0,0.0,0.0,0.0,1.3295,1.3494,1.381,1.4142,1.4474,1.4737,1.493,1.5082,1.5075,0.0,0.0,0.0,0.0,0.0,0.0,0.0,0.0,0.0,0.0,0.0,0.0,0.0,0.0,0.0,0.0,0.0,0.0,0.0,0.0,0.4467,0.3986,0.3351,0.289,0.2456,0.2007,0.1663,0.1452,0.1405,0.1639,0.1828,0.2066,0.242,0.2711,0.2939,0.3201,0.3289,0.3334,0.345,0.3163,0.2764,0.2439,0.2147,0.0,0.1624,0.0216,-0.0682,0.0,0.0,0.0,0.0,0.0,0.0,0.0,0.0,0.0082,0.0254,0.0254,0.0254,0.0421,0.0754,0.1087,0.1504,0.1571,0.1883,0.2273,0.2797,0.0,0.0,0.0,0.0,0.0,0.5162,0.5398,0.5712,0.5712,0.5867,0.6022,0.6022,0.618,0.6338,0.0,0.0,0.0,0.0,0.0,0.0,0.0,1.4764,1.4804,1.4835,1.4871,1.4925,1.5003,1.5011,1.4992,1.4992,0.0,0.0,0.0,0.0,0.0,0.0,0.0,0.0,0.0,1.3138,1.3227,1.3461,1.3821,1.4186,1.4541,1.4765,1.4889,1.4946,1.4817,0.0,0.0,0.0,0.0,0.0,0.0,0.0,0.0639,0.0,0.0,0.0,0.0,0.0,0.0,0.0,0.0,0.0,0.0,0.0,0.0,0.0,0.5154,0.4368,0.3673,0.3061,0.2497,0.1929,0.1625,0.1482,0.1432,0.1582,0.1769,0.2,0.2187,0.2459,0.274,0.282,0.2858,0.2943,0.2687,0.238,0.2169,0.0,0.0,0.0881,0.0,0.0,0.0,0.0,0.0,0.0,0.0,0.0,0.0,0.0,-0.0,-0.0,-0.0,-0.0,-0.0,0.0328,0.0574,0.0821,0.0971,0.1205,0.1603,0.0,0.0,0.0,0.0,0.0,0.0,0.4618,0.4932,0.5249,0.5323,0.5476,0.5705,0.5864,0.6018,0.618,0.0,0.0,0.0,0.0,0.0,0.0,0.0,0.0,1.4822,1.4895,1.4909,1.4923,1.5003,1.5,1.5015,1.5015,0.0,0.0,0.0,0.0,0.0,0.0,0.0,0.0,0.0,1.3015,1.3122,1.3362,1.3789,1.4185,1.4583,1.4734,1.4731,1.455,1.4213,0.0,0.0,0.0,0.0,0.0,0.0,0.0,0.0,0.0,0.0,0.0,0.0,0.0,0.0,0.0,0.0,0.0,0.0,0.0,0.0,0.0,0.0,0.0,0.0,0.3941,0.312,0.2335,0.1942,0.1614,0.1232,0.1243,0.0,0.1569,0.1703,0.1884,0.2286,0.2267,0.2166,0.2104,0.2015,0.1869,0.0,0.1207,0.0,0.0,-0.1361,0.0,0.0,0.0,0.0,0.0,0.0,0.0,0.0,0.0,0.0,-0.0079,-0.0079,-0.0,-0.0,-0.0,-0.0,-0.0,0.0393,0.0786,0.1178,0.0,0.0,0.0,0.0,0.0,0.0,0.391,0.4297,0.4675,0.4825,0.5063,0.5306,0.5693,0.5854,0.5941,0.0,0.0,0.0,0.0,0.0,0.0,0.0,0.0,0.0,0.0,1.4892,1.4952,1.5068,1.5071,1.5085,0.0,0.0,0.0,0.0,0.0,0.0,0.0,0.0,0.0,0.0,1.2832,1.2878,1.3081,1.3552,1.3979,1.4372,1.4718,1.4357,1.3381,1.2993,1.1124,0.0,0.0,0.0,0.0,0.0,0.0,0.0,0.0,0.0,0.0,0.3273,0.4156,0.0,0.0,0.0,0.0,0.0,0.0,0.0,0.0,0.7132,0.6681,0.6021,0.0,0.3487,0.2762,0.2146,0.1684,0.0,0.1308,0.1299,0.1433,0.1478,0.1609,0.1891,0.2019,0.186,0.1272,0.1175,0.1011,0.068,0.0,0.0,-0.1666,0.0,0.0,0.0,0.0,0.0,0.0,0.0,0.0,0.0,0.0,0.0,-0.0471,-0.0471,-0.0314,-0.0,-0.0,-0.0,-0.0,0.0079,0.0236,0.0314,0.1021,0.0,0.0,0.0,0.0,0.3204,0.3206,0.362,0.4075,0.4146,0.4494,0.5028,0.5103,0.5469,0.5941,0.0,0.0,0.0,0.0,0.0,0.0,0.0,0.0,0.0,0.0,0.0,0.0,0.0,0.0,0.0,0.0,0.0,0.0,0.0,0.0,0.0,0.0,0.0,0.0,1.2685,1.2383,1.2385,1.2641,1.3319,1.3886,1.4294,1.3882,1.3121,1.1992,1.0119,0.7924,0.0,0.0,0.0,0.0,-0.2441,0.0,0.0,0.0,0.0,0.0,0.4157,0.506,0.0,0.6485,0.7121,0.7646,0.0,0.0,0.0,0.0,0.7867,0.7422,0.6721,0.5456,0.4099,0.3236,0.2477,0.187,0.1479,0.1149,0.0852,0.0763,0.0807,0.0874,0.1045,0.1059,0.0929,0.0443,0.028,0.0,0.0,0.0,-0.206,-0.2528,0.0,0.0,0.0,0.0,0.0,0.0,0.0,0.0,0.0,0.0,-0.1291,0.0,-0.0912,-0.0614,-0.0,-0.0,-0.0,-0.0,-0.0,-0.0,-0.0,0.0464,0.0,0.0,0.0,0.0,0.2382,0.253,0.2876,0.3348,0.3423,0.3816,0.4306,0.4601,0.4975,0.5463,0.0,0.0,0.0,0.0,0.0,0.0,0.0,0.0,0.0,0.0,0.0,0.0,0.0,0.0,0.0,0.0,0.0,0.0,0.0,0.0,0.0,0.0,0.0,1.2904,1.2314,1.1843,1.1661,1.1817,1.2485,1.2751,1.2626,1.1571,1.0504,0.9315,0.6156,0.4353,0.0,0.0,0.0,0.0,-0.2963,0.0,0.0,0.0,0.0,0.0,0.0,0.0,0.0,0.7598,0.8248,0.8723,0.8996,0.0,0.0,0.0,0.0,0.0,0.7209,0.6102,0.4892,0.3788,0.2887,0.2134,0.1593,0.0913,0.0314,-0.0,-0.0045,-0.0046,-0.0099,-0.0202,-0.0361,-0.0499,0.0,0.0,-0.1893,-0.2584,-0.3049,0.0,0.0,0.0,0.0,0.0,0.0,0.0,0.0,0.0,0.0,0.0,0.0,-0.1312,-0.1312,-0.0968,-0.0233,-0.0155,-0.0078,-0.0078,-0.0078,-0.0077,-0.0,-0.0,0.0,0.0,0.0,0.0,0.1595,0.1812,0.2169,0.2518,0.2735,0.3101,0.3469,0.3972,0.4481,0.4883,0.0,0.0,0.0,0.0,0.0,0.0,0.0,0.0,0.0,0.0,0.0,0.0,0.0,0.0,0.0,0.0,0.0,0.0,0.0,0.0,0.0,0.0,1.3342,1.2681,1.1909,1.1364,1.0756,1.0068,0.9433,0.7752,0.5173,0.5476,0.4493,0.2415,0.1408,0.0274,-0.079,0.0,0.0,0.0,0.0,0.0,0.0,0.0,0.0,0.0,0.0,0.0,0.0,0.8507,0.9066,0.9557,0.9777,0.0,0.0,0.0,0.0,0.0,0.8029,0.7083,0.5958,0.4322,0.3236,0.2381,0.1846,0.0781,-0.0134,-0.0314,-0.0763,-0.1195,-0.1393,-0.1666,-0.1913,-0.205,0.0,-0.235,0.0,0.0,0.0,0.0,0.0,0.0,0.0,0.0,0.0,0.0,0.0,0.0,0.0,0.0,0.0,-0.1897,-0.1897,-0.1684,-0.1254,-0.0738,-0.0443,-0.0443,-0.0443,-0.0294,-0.0,0.0073,0.0146,0.0,0.0,0.0935,0.1269,0.1269,0.1391,0.1634,0.1976,0.2417,0.3028,0.3238,0.3792,0.4619,0.0,0.0,0.0,0.0,0.0,0.0,0.0,0.0,0.0,0.0,0.0,0.0,0.0,0.0,0.0,0.0,0.0,0.0,0.0,0.0,0.0,1.3763,1.3025,1.2354,1.1751,1.0655,0.9662,0.8788,0.7332,0.5237,0.2542,0.0756,-0.0974,-0.2529,-0.191,-0.1549,-0.1365,-0.0321,0.0678,0.16,0.0,0.0,0.0,0.0,0.0,0.0,0.0,0.0,0.0,0.0,0.9725,1.0173,1.0323,0.0,0.0,0.0,0.0,0.0,0.8799,0.7885,0.6802,0.5339,0.3917,0.2691,0.198,0.0895,-0.0224,-0.0987,-0.1256,-0.147,-0.1839,-0.2067,-0.2271,-0.2711,0.0,-0.3157,0.0,0.0,0.0,0.0,0.0,0.0,0.0,0.0,0.0,0.0,0.0,0.0,0.0,0.0,0.0,0.0,-0.2374,-0.2234,-0.1887,-0.1607,-0.1205,-0.0802,-0.0802,-0.0723,-0.0571,-0.0357,-0.0142,-0.0,0.0,0.0347,0.0549,0.0686,0.0953,0.1277,0.1412,0.1694,0.2196,0.2856,0.3593,0.4362,0.0,0.0,0.0,0.0,0.0,0.0,0.0,0.0,0.0,0.0,0.0,0.0,0.0,0.0,0.0,0.0,0.0,0.0,0.0,0.0,1.3989,1.3501,1.2655,1.1983,1.152,0.9932,0.8532,0.74,0.5174,0.2318,-0.1109,-0.469,-0.643,-0.6459,-0.4275,-0.2195,-0.024,0.1178,0.3062,0.5062,0.0,0.0,0.0,0.0,0.0,0.0,0.0,0.0,0.0,0.0,0.0,0.0,0.0,0.0,0.0,1.0777,1.0534,1.0147,0.9454,0.8546,0.7492,0.6309,0.4642,0.3065,0.2032,0.1008,-0.0089,-0.1344,-0.1478,-0.1562,-0.2086,-0.2348,0.0,-0.3161,-0.3429,0.0,0.0,0.0,0.0,0.0,0.0,0.0,0.0,0.0,0.0,0.0,0.0,0.0,0.0,0.0,0.0,0.0,-0.2887,-0.2755,-0.2423,-0.2423,-0.1993,-0.1288,-0.1288,-0.1274,-0.118,-0.0833,-0.048,-0.0269,-0.0067,-0.0,-0.0,0.027,0.0606,0.0942,0.0942,0.1144,0.155,0.2547,0.3407,0.4079,0.0,0.0,0.0,0.0,0.0,0.0,0.0,0.0,0.0,0.0,0.0,0.0,0.0,0.0,0.0,0.0,0.0,0.0,0.0,0.0,1.3701,1.3159,1.2304,1.1563,1.0978,0.9388,0.7582,0.5572,0.2347,-0.2745,-0.9494,-1.2313,-1.2232,-0.9497,-0.5708,-0.1808,0.222,0.6254,0.867,0.9852,1.038,0.0,0.0,0.0,0.0,0.0,0.0,0.0,0.0,0.0,0.0,0.0,0.0,0.0,1.1155,1.1085,1.0873,1.0521,0.9919,0.9047,0.8063,0.6907,0.5292,0.3597,0.2219,0.1174,0.0179,-0.085,-0.1344,-0.1745,-0.2385,-0.3033,-0.3508,-0.358,-0.3811,0.0,0.0,0.0,0.0,0.0,0.0,0.0,0.0,0.0,0.0,0.0,0.0,0.0,0.0,0.0,0.0,0.0,0.0,-0.3362,-0.3159,-0.3025,-0.2559,-0.1827,-0.1827,-0.169,-0.1349,-0.1146,-0.1078,-0.1008,-0.0269,-0.0,-0.0,-0.0,0.027,0.0539,0.0539,0.0875,0.148,0.2221,0.2876,0.3587,0.0,0.0,0.0,0.0,0.0,0.0,0.0,0.0,0.0,0.0,0.0,0.0,0.0,0.0,0.0,0.0,0.0,0.0,0.0,0.0,1.3025,1.2493,1.1593,1.0743,0.992,0.8518,0.6862,0.4958,-0.17,-0.7429,-1.2218,-1.4296,-1.3922,-1.1265,-0.6179,-0.1134,0.3882,0.8803,1.1686,1.2903,1.2833,1.1844,0.0,0.0,0.0,0.0,0.0,0.0,0.0,0.0,1.0311,1.0621,1.0801,1.0991,1.1132,1.1108,1.0991,1.0777,1.0247,0.952,0.8629,0.7473,0.6227,0.4739,0.2822,0.1798,0.0848,-0.0536,-0.1344,-0.1976,-0.2636,0.0,-0.3858,-0.3858,0.0,0.0,0.0,0.0,0.0,0.0,0.0,0.0,0.0,0.0,0.0,0.0,0.0,0.0,0.0,0.0,0.0,0.0,0.0,-0.3731,-0.3472,-0.3462,-0.3291,-0.2893,-0.2423,-0.2018,-0.1681,-0.1614,-0.1412,-0.1076,-0.0807,-0.0404,-0.0,-0.0,0.0067,0.0202,0.0404,0.0808,0.1277,0.1882,0.2435,0.3082,0.0,0.0,0.0,0.0,0.0,0.0,0.0,0.0,0.0,0.0,0.0,0.0,0.0,0.0,0.0,0.0,0.0,0.0,0.0,1.2769,1.2226,1.1671,1.0777,0.9866,0.8942,0.7626,0.6106,0.4448,-0.3617,-0.9375,-1.2833,-1.4709,-1.4767,-1.3013,-0.6336,-0.0703,0.4193,1.0185,1.3427,1.4454,1.363,1.2253,0.0,0.0,0.0,0.0,0.0,0.0,0.0,0.0,0.9957,1.0298,1.0496,1.0729,1.092,1.0991,1.0968,1.0825,1.0447,0.9778,0.8951,0.7895,0.6901,0.5627,0.3615,0.2457,0.1381,-0.0089,-0.1266,-0.2139,-0.2698,-0.3362,0.0,0.0,0.0,0.0,0.0,0.0,0.0,0.0,0.0,0.0,0.0,0.0,0.0,0.0,0.0,0.0,0.0,0.0,0.0,0.0,0.0,0.0,-0.3685,-0.3756,-0.3728,-0.3538,-0.2948,-0.2513,-0.222,-0.2085,-0.1741,-0.1326,-0.1128,-0.0727,-0.0131,-0.0066,-0.0,-0.0,0.027,0.0673,0.1143,0.1614,0.2084,0.27,0.0,0.0,0.0,0.0,0.0,0.0,0.0,0.0,0.0,0.0,0.0,0.0,0.0,0.0,0.0,0.0,0.0,0.0,1.3025,1.2048,1.1242,1.0689,0.9842,0.8983,0.811,0.6624,0.5222,0.3866,-0.289,-0.8061,-1.1723,-1.402,-1.5146,-1.4903,-0.6278,-0.0594,0.2985,1.0406,1.396,1.4436,1.2856,1.1242,0.9736,0.0,0.0,0.0,0.0,0.0,0.0,0.0,0.9398,0.9739,1.0008,1.0273,1.0523,1.0729,1.0729,1.0632,1.0449,0.9803,0.8985,0.8104,0.7202,0.6079,0.4483,0.307,0.1734,0.0447,-0.1062,-0.2233,-0.2472,-0.2986,0.0,0.0,0.0,0.0,0.0,0.0,0.0,0.0,0.0,0.0,0.0,0.0,0.0,0.0,0.0,0.0,0.0,0.0,0.0,0.0,0.0,0.0,-0.3872,-0.3758,-0.3699,-0.3699,-0.3388,-0.3111,-0.2954,-0.242,-0.2052,-0.174,-0.1226,-0.0826,-0.0495,-0.0128,-0.0,-0.0,-0.0,0.0471,0.1142,0.1344,0.1816,0.2433,0.0,0.0,0.0,0.0,0.0,0.0,0.0,0.0,0.0,0.0,0.0,0.0,0.0,0.0,0.0,0.0,0.0,0.0,1.1523,1.0552,0.9767,0.9243,0.8513,0.7693,0.6793,0.5086,0.3452,0.1874,-0.2478,-0.624,-0.9506,-1.2448,-1.3792,-1.3422,-0.7446,-0.2216,0.253,0.8275,1.1693,1.3164,1.2139,1.0752,0.9244,0.0,0.0,0.0,0.0,0.0,0.0,0.0,0.0,0.0,0.9027,0.9348,0.9636,0.9945,1.0135,1.0223,1.0034,0.9607,0.8996,0.8058,0.7141,0.6069,0.4644,0.3454,0.2093,0.0134,-0.1018,-0.1761,-0.2186,-0.2771,0.0,0.0,0.0,0.0,0.0,0.0,0.0,0.0,0.0,0.0,0.0,0.0,0.0,0.0,0.0,0.0,0.0,0.0,0.0,0.0,0.0,0.0,-0.3636,-0.3595,-0.3574,-0.3574,-0.3326,-0.3107,-0.2908,-0.2596,-0.2142,-0.1686,-0.1377,-0.1059,-0.0804,-0.0249,-0.0,-0.0,-0.0,0.0257,0.0719,0.1046,0.1522,0.2088,0.0,0.0,0.0,0.0,0.0,0.0,0.0,0.0,0.0,0.0,0.0,0.0,0.0,0.0,0.0,0.0,0.0,0.0,0.0,0.0,0.8555,0.7919,0.7252,0.6405,0.5359,0.4023,0.2733,0.1533,-0.1593,-0.4522,-0.7273,-1.0656,-1.2556,-1.2923,-0.758,-0.326,0.0406,0.6262,0.9615,1.0955,1.0435,0.9498,0.8379,0.0,0.0,0.0,0.0,0.0,0.0,0.0,0.0,0.0,0.7913,0.8241,0.8629,0.8993,0.931,0.9518,0.9425,0.9093,0.8563,0.7724,0.6844,0.5746,0.4113,0.3003,0.183,0.0134,-0.0685,-0.1301,-0.1811,-0.2349,0.0,0.0,0.0,0.0,0.0,0.0,0.0,0.0,0.0,0.0,0.0,0.0,0.0,0.0,0.0,0.0,0.0,0.0,0.0,0.0,0.0,0.0,-0.3285,-0.3233,-0.3209,-0.3209,-0.303,-0.2791,-0.2613,-0.2561,-0.2205,-0.1692,-0.1316,-0.1019,-0.0728,-0.0182,-0.0,-0.0,-0.0,0.0187,0.0508,0.1016,0.1551,0.2051,0.0,0.0,0.0,0.0,0.0,0.0,0.0,0.0,0.0,0.0,1.462,0.0,0.0,0.0,0.0,0.0,0.0,0.0,0.0,0.0,0.7462,0.6687,0.6014,0.5123,0.4001,0.3392,0.2845,0.232,-0.0459,-0.2939,-0.5228,-0.866,-1.1228,-1.2728,-0.7032,-0.3951,-0.259,0.4172,0.7477,0.8136,0.8103,0.7795,0.7317,0.7284,0.0,0.0,0.0,0.0,0.0,0.0,0.0,0.0,0.6708,0.7064,0.7521,0.7911,0.8269,0.8552,0.8623,0.8318,0.7829,0.7159,0.6276,0.5062,0.3162,0.2036,0.1197,0.04,-0.0267,-0.0802,-0.1253,-0.1707,0.0,0.0,0.0,0.0,0.0,0.0,0.0,0.0,0.0,0.0,0.0,0.0,0.0,0.0,0.0,0.0,0.0,0.0,0.0,0.0,0.0,0.0,-0.2794,-0.2687,-0.2635,0.0,-0.2521,-0.2352,-0.2189,-0.2383,-0.2167,-0.1636,-0.1136,-0.0742,-0.041,-0.0117,-0.0,-0.0,0.0061,0.0184,0.0492,0.1169,0.1691,0.212,0.0,0.0,0.0,0.0,0.0,0.0,0.0,0.0,0.0,0.0,0.0,0.0,0.0,0.0,0.0,0.0,0.0,0.0,0.0,0.0,0.6131,0.5501,0.477,0.4172,0.3691,0.32,0.2772,0.2444,0.0149,-0.2351,-0.5015,-0.6886,-0.8426,-0.9431,-0.698,-0.4953,-0.3135,0.111,0.4101,0.6103,0.6481,0.665,0.6659,0.6955,0.6695,0.0,0.0,0.0,0.0,0.0,0.0,0.0,0.5505,0.583,0.618,0.658,0.6975,0.7298,0.7367,0.7201,0.6866,0.6235,0.4901,0.3491,0.2489,0.1815,0.1224,0.0635,-0.0,-0.0561,-0.0801,0.0,0.0,0.0,0.0,0.0,0.0,0.0,0.0,0.0,0.0,0.0,0.0,0.0,0.0,0.0,0.0,0.0,0.0,0.0,0.0,0.0,0.0,-0.2294,-0.2183,-0.2069,-0.2071,0.0,-0.2184,-0.2186,-0.2191,-0.2052,-0.1713,-0.1303,-0.1013,-0.0845,-0.0737,-0.0227,-0.0,0.0057,0.0516,0.0582,0.0476,0.1072,0.1517,0.1873,0.0,0.0,0.0,0.0,0.0,0.0,0.0,0.0,0.0,0.0,0.0,0.0,0.0,0.0,0.0,0.0,0.0,0.0,0.0,0.0,0.0,0.4614,0.4215,0.3863,0.3602,0.3331,0.3107,0.2915,0.1601,-0.0496,-0.3347,-0.4436,-0.5401,-0.6227,-0.5194,-0.3868,-0.2211,0.0348,0.2646,0.46,0.5422,0.6042,0.6501,0.6813,0.6789,0.6557,0.6286,0.0,0.0,0.0,0.0,0.0,0.0,0.0,0.5035,0.5373,0.5738,0.6006,0.6097,0.6006,0.57,0.4859,0.3738,0.2643,0.2058,0.1608,0.1224,0.0975,0.0441,-0.0123,0.0,0.0,0.0,0.0,0.0,0.0,0.0,0.0,0.0,0.0,0.0,0.0,0.0,0.0,0.0,0.0,0.0,0.0,0.0,0.0,0.0,0.0,-0.2062,-0.1805,-0.1476,-0.1333,-0.1232,-0.1288,-0.1288,-0.1289,-0.1234,-0.1459,-0.1459,-0.1234,-0.101,-0.0898,-0.0842,-0.0224,0.0168,0.0449,0.0785,0.0851,0.0863,0.1324,0.1704,0.1994,0.0,0.0,0.0,0.0,0.0,0.0,0.0,0.0,0.0,0.0,0.0,0.0,0.0,0.0,0.0,0.0,0.0,0.0,0.0,0.0,0.0,0.0,0.4082,0.3996,0.3733,0.3728,0.3725,0.3673,0.3426,0.2053,-0.0385,-0.1463,-0.2337,-0.2936,-0.2557,-0.1783,-0.0742,0.0924,0.2568,0.4136,0.5087,0.5882,0.6594,0.6975,0.7111,0.7066,0.6654,0.626,0.5856,0.5216,0.0,0.0,0.0,0.0,0.4165,0.4366,0.4567,0.4777,0.4884,0.4751,0.4379,0.3424,0.2722,0.2142,0.1751,0.1425,0.1247,0.1317,0.09,0.0,0.0,0.0,0.0,0.0,0.0,0.0,0.0,0.0,0.0,0.0,0.0,0.0,0.0,0.0,0.0,0.0,0.0,0.0,0.0,0.0,-0.1655,-0.1767,-0.156,-0.1215,-0.0739,-0.0546,-0.0389,-0.0167,-0.0056,-0.0,0.0056,-0.0561,-0.0954,-0.1066,-0.0842,-0.0729,-0.0617,-0.0112,0.0336,0.0842,0.0898,0.1066,0.1234,0.1629,0.1998,0.2277,0.0,0.0,0.0,0.0,0.0,0.0,0.0,0.0,0.0,0.0,0.9412,0.0,0.0,0.0,0.0,0.0,0.0,0.0,0.4618,0.0,0.0,0.4356,0.444,0.4452,0.4291,0.4576,0.4693,0.4686,0.5115,0.51,0.4587,0.2156,0.078,0.0345,0.0563,0.0608,0.0739,0.236,0.414,0.5967,0.6118,0.6387,0.6773,0.7691,0.7632,0.712,0.7281,0.6883,0.6176,0.5621,0.5076,0.0,0.0,0.0,0.383,0.3676,0.3686,0.3719,0.3719,0.3421,0.2985,0.2472,0.2043,0.1678,0.1559,0.1405,0.1333,0.0,0.0,0.0,0.0,0.0,0.0,0.0,0.0,0.0,0.0,0.0,0.0,0.0,0.0,0.0,0.0,0.0,0.0,0.0,0.0,0.0,0.0,-0.1199,-0.1072,-0.0806,-0.0659,-0.0406,-0.0051,0.0053,0.0322,0.0751,0.1273,0.1347,0.1122,0.101,0.0561,-0.0168,-0.0112,-0.0,0.0224,0.0336,0.0393,0.0505,0.0954,0.1178,0.1234,0.1629,0.1968,0.2264,0.0,0.0,0.0,0.0,0.0,0.0,0.0,0.0,0.0,0.0,0.0,0.7695,0.0,0.0,0.0,0.4644,0.4308,0.4109,0.4053,0.4498,0.4785,0.4844,0.5118,0.5317,0.5446,0.5737,0.5976,0.624,0.6705,0.7065,0.7263,0.6306,0.5074,0.3652,0.3701,0.3705,0.3748,0.464,0.5631,0.667,0.6657,0.6946,0.7417,0.7739,0.7886,0.7879,0.7883,0.7687,0.7322,0.6732,0.6193,0.5651,0.5017,0.0,0.0,0.0,0.3492,0.33,0.2926,0.2576,0.2216,0.1943,0.1644,0.1432,0.1492,0.1519,0.1602,0.1826,0.0,0.0,0.0,0.0,0.0,0.0,0.0,0.0,0.0,0.0,0.0,0.0,0.0,0.0,0.0,0.0,0.0,0.0,0.0,0.0,-0.0507,-0.0461,-0.0372,-0.0142,0.0097,0.0,0.0879,0.0964,0.12,0.1489,0.1819,0.1962,0.1793,0.1737,0.1345,0.0729,0.0729,0.0785,0.0898,0.0898,0.0954,0.1066,0.1403,0.1515,0.1572,0.202,0.23,0.2583,0.0,0.0,0.0,0.0,0.0,0.0,0.0,0.0,0.0,0.0,0.0,0.0,0.0,0.0,0.0,0.0,0.3347,0.3306,0.3665,0.4369,0.4893,0.5203,0.5725,0.6145,0.6432,0.6841,0.725,0.7678,0.8218,0.8712,0.9147,0.9554,0.8796,0.716,0.6806,0.6689,0.6743,0.6901,0.7093,0.7323,0.7312,0.7509,0.7862,0.7839,0.8104,0.8441,0.8477,0.8481,0.8399,0.7952,0.7492,0.6964,0.6178,0.551,0.0,0.0,0.0,0.3082,0.2411,0.2055,0.1805,0.1628,0.1462,0.1365,0.1528,0.0,0.1879,0.0,0.0,0.0,0.0,0.0,0.0,0.0,0.0,0.0,0.0,0.0,0.0,0.0,0.0,0.0,0.0,0.0,0.0,0.0,0.0,0.0,0.027,0.027,0.0359,0.0494,0.0785,0.1172,0.1595,0.1806,0.2034,0.2177,0.24,0.2498,0.2406,0.235,0.2071,0.1626,0.1514,0.1401,0.1401,0.1401,0.1514,0.157,0.1796,0.1908,0.1964,0.241,0.2745,0.297,0.0,0.0,0.0,0.0,0.0,0.0,0.0,0.0,0.0,0.0,0.0,0.0,0.4912,0.4241,0.3539,0.2826,0.264,0.2815,0.3385,0.4168,0.4768,0.5171,0.608,0.0,0.6848,0.7813,0.8445,0.8725,0.9696,1.0321,1.0601,1.1008,1.1185,1.1137,0.9809,0.9125,0.9015,0.8825,0.8577,0.8244,0.8366,0.8121,0.7768,0.8341,0.8451,0.8396,0.9088,0.918,0.9003,0.9151,0.885,0.8279,0.7547,0.6845,0.611,0.0,0.0,0.0,0.2281,0.193,0.1667,0.1545,0.1446,0.1469,0.1718,0.0,0.0,0.0,0.0,0.0,0.0,0.0,0.0,0.0,0.0,0.0,0.0,0.0,0.0,0.0,0.0,0.0,0.0,0.0,0.0,0.0,0.0,0.0,0.1034,0.1034,0.1123,0.1344,0.1527,0.171,0.1799,0.2292,0.2674,0.2973,0.3192,0.3253,0.3074,0.3019,0.291,0.2579,0.2015,0.179,0.179,0.179,0.179,0.1792,0.2073,0.2184,0.224,0.2683,0.3077,0.3413,0.0,0.0,0.0,0.0,0.0,0.0,0.0,0.0,0.0,0.0,0.0,0.0,0.0,0.3489,0.2842,0.2231,0.2174,0.2417,0.2925,0.3701,0.453,0.535,0.6269,0.7044,0.7741,0.8498,0.9154,0.9619,1.0349,1.0878,1.1207,1.1616,1.1872,1.1909,1.11,1.0588,1.0321,0.9982,0.9572,0.905,0.8667,0.8276,0.7904,0.7879,0.8105,0.8447,0.9116,0.0,0.9741,1.0098,0.9982,0.9624,0.905,0.845,0.7628,0.6155,0.4835,0.3757,0.317,0.2599,0.2112,0.1926,0.1828,0.1837,0.2068,0.2317,0.2623,0.0,0.0,0.0,0.0,0.0,0.0,0.0,0.0,0.0,0.0,0.0,0.0,0.0,0.0,0.0,0.0,0.0,0.0,0.0,0.0,0.0,0.1302,0.1257,0.1345,0.1658,0.1835,0.2148,0.2509,0.2843,0.3035,0.3118,0.3476,0.3632,0.357,0.3539,0.3519,0.3411,0.3021,0.2631,0.2352,0.2352,0.2352,0.2408,0.2573,0.2685,0.2796,0.3188,0.3466,0.3688,0.0,0.0,0.0,0.0,0.0,0.0,0.0,0.0,0.0,0.0,0.0,0.0,0.0,0.0,0.2346,0.1769,0.1675,0.1889,0.2319,0.3112,0.4029,0.5051,0.6024,0.7001,0.7931,0.8716,0.9448,1.0088,1.0621,1.1067,1.1431,1.1811,1.1993,1.1982,1.1616,1.1356,1.1169,1.0687,1.0016,0.9262,0.866,0.8124,0.7682,0.7465,0.7806,0.846,0.0,0.0,0.0,1.0824,1.0971,1.0836,1.0502,0.9828,0.8884,0.7346,0.6061,0.4939,0.4267,0.3477,0.279,0.2478,0.2348,0.2331,0.2422,0.0,0.0,0.0,0.0,0.0,0.0,0.0,0.0,0.0,0.0,0.0,0.0,0.0,0.0,0.0,0.0,0.0,0.0,0.0,0.0,0.0,0.0,0.0,0.1614,0.1569,0.1748,0.2152,0.2368,0.2682,0.3135,0.3306,0.3416,0.3466,0.3796,0.3932,0.3931,0.396,0.391,0.3852,0.3691,0.3357,0.2914,0.2914,0.2914,0.2968,0.313,0.3241,0.3352,0.3694,0.3913,0.4076,0.0,0.0,0.0,0.0,0.0,0.0,0.0,0.0,0.0,0.6055,0.0,0.0,0.0,0.0,0.0,0.132,0.1163,0.1211,0.1561,0.2378,0.3316,0.4249,0.538,0.6428,0.7447,0.8456,0.931,0.998,1.0582,1.1019,1.1271,1.1627,1.1689,1.1531,1.1345,1.1345,1.1494,1.0829,0.9923,0.8858,0.8436,0.7804,0.7101,0.7173,0.7663,0.0,0.9057,0.9832,0.0,1.1377,0.0,0.0,0.0,1.0956,0.9858,0.8862,0.7625,0.6378,0.0,0.0,0.0,0.3202,0.3,0.2894,0.2764,0.0,0.0,0.0,0.0,0.0,0.0,0.0,0.0,0.0,0.0,0.0,0.0,0.0,0.0,0.0,0.0,0.0,0.0,0.0,0.0,0.0,0.0,0.2061,0.2109,0.2064,0.2286,0.2912,0.3129,0.335,0.3622,0.3704,0.3823,0.4026,0.4143,0.4198,0.4194,0.4178,0.4132,0.4024,0.4024,0.3802,0.3413,0.3413,0.3413,0.3469,0.3688,0.3796,0.3852,0.4135,0.4356,0.4519,0.0,0.0,0.0,0.0,0.0,0.0,0.0,0.0,0.5882,0.0,0.0,0.0,0.2923,0.2043,0.1267,0.0709,0.0692,0.0892,0.1311,0.2024,0.2916,0.3986,0.4861,0.5845,0.6881,0.7819,0.8642,0.9341,0.9923,1.036,1.0639,1.0733,1.0723,1.056,1.0225,0.9953,0.9778,0.9845,0.9363,0.8492,0.804,0.7513,0.7041,0.0,0.0,0.0,0.0,0.9574,1.0293,0.0,1.1872,1.2282,0.0,1.1913,1.1285,1.0481,0.9457,0.8352,0.7173,0.0,0.0,0.0,0.0,0.0,0.0,0.0,0.0,0.0,0.0,0.0,0.0,0.0,0.0,0.0,0.0,0.0,0.0,0.0,0.0,0.0,0.0,0.0,0.0,0.0,0.0,0.0,0.2502,0.2469,0.2684,0.2818,0.3037,0.348,0.3615,0.3836,0.41,0.4016,0.3998,0.4092,0.412,0.4136,0.4195,0.4288,0.4362,0.4353,0.419,0.4082,0.3971,0.3858,0.3858,0.3858,0.4024,0.4187,0.4353,0.4522,0.4743,0.4959,0.0,0.0,0.0,0.0,0.0,0.0,0.5828,0.5668,0.5399,0.0,0.0,0.0,0.235,0.14,0.0785,0.0505,0.0496,0.0707,0.1143,0.1685,0.2419,0.3332,0.4136,0.5094,0.6231,0.7167,0.7939,0.8649,0.9278,0.9614,0.9737,0.9806,0.9709,0.9464,0.9036,0.8634,0.8302,0.8212,0.8031,0.7779,0.7301,0.0,0.0,0.6637,0.7009,0.0,0.0,0.0,1.0126,1.1063,1.2006,0.0,0.0,0.0,1.2437,1.178,1.0848,0.9712,0.8498,0.7442,0.6416,0.5392,0.0,0.0,0.4021,0.3801,0.0,0.0,0.0,0.0,0.0,0.0,0.0,0.0,0.0,0.0,0.0,0.0,0.0,0.0,0.0,0.0,0.0,0.0,0.0,0.0,0.287,0.2947,0.3211,0.3394,0.3612,0.3921,0.4096,0.4272,0.4495,0.4412,0.4412,0.4372,0.4325,0.4307,0.4473,0.4429,0.4481,0.4574,0.4411,0.4301,0.4301,0.4242,0.4132,0.4079,0.4304,0.4467,0.4632,0.4857,0.5073,0.5238,0.0,0.0,0.0,0.5014,0.5183,0.5238,0.5281,0.5234,0.5022,0.0,0.3849,0.2961,0.1684,0.0898,0.0505,0.0561,0.0505,0.0673,0.1178,0.1473,0.1928,0.256,0.3391,0.4321,0.5452,0.6401,0.723,0.7832,0.8555,0.8816,0.8676,0.8757,0.8643,0.8277,0.7826,0.7363,0.6981,0.6319,0.6269,0.6692,0.6329,0.5941,0.0,0.0,0.6341,0.7072,0.7625,0.8682,0.9904,1.0836,1.2092,0.0,0.0,0.0,0.0,0.0,1.1838,1.0725,0.9586,0.8394,0.7207,0.6086,0.0,0.0,0.4305,0.4035,0.3744,0.0,0.0,0.0,0.0,0.0,0.0,0.0,0.0,0.0,0.0,0.0,0.0,0.0,0.0,0.0,0.0,0.0,0.3247,0.3121,0.3285,0.3489,0.3709,0.3913,0.41,0.4364,0.4574,0.4709,0.4845,0.4845,0.4845,0.4806,0.462,0.4617,0.4808,0.4562,0.452,0.4688,0.4574,0.4519,0.4519,0.4519,0.4411,0.4304,0.4581,0.4743,0.4802,0.5187,0.5352,0.5462,0.0,0.0,0.4743,0.4798,0.4904,0.4956,0.4952,0.4791,0.4519,0.4132,0.3072,0.2071,0.1346,0.101,0.0729,0.0449,0.0785,0.1178,0.1403,0.1618,0.2055,0.2662,0.2999,0.3666,0.4706,0.5309,0.6026,0.6801,0.7461,0.0,0.7743,0.7706,0.7494,0.7049,0.6543,0.6161,0.5782,0.5173,0.4928,0.4928,0.5242,0.5344,0.5382,0.5638,0.6043,0.654,0.7196,0.8043,0.9138,1.0902,1.2043,1.2836,0.0,0.0,0.0,1.3148,0.0,1.1695,1.0608,0.95,0.8408,0.0,0.0,0.0,0.5114,0.4585,0.4021,0.0,0.0,0.0,0.0,0.0,0.0,0.0,0.0,0.0,0.0,0.0,0.0,0.0,0.0,0.0,0.0,0.0,0.3238,0.3253,0.3655,0.39,0.4011,0.432,0.4578,0.4854,0.5019,0.5106,0.5198,0.5149,0.5067,0.4941,0.4803,0.4772,0.4804,0.4741,0.4725,0.4691,0.4688,0.4577,0.4519,0.4519,0.4522,0.4632,0.4794,0.5014,0.5242,0.5572,0.585,0.6064,0.4577,0.4577,0.4577,0.4577,0.4684,0.4794,0.4736,0.457,0.4353,0.3858,0.274,0.1849,0.1458,0.1178,0.101,0.0842,0.1178,0.1347,0.1403,0.1572,0.1853,0.2244,0.2646,0.316,0.3911,0.4632,0.5268,0.5827,0.0,0.0,0.0,0.6562,0.6299,0.6041,0.5435,0.5043,0.4792,0.4308,0.405,0.4032,0.4437,0.0,0.4739,0.5048,0.5394,0.5782,0.641,0.7522,0.8939,1.0474,1.152,0.0,0.0,1.3104,1.3173,0.0,1.2555,1.1843,0.0,0.0,0.0,0.7732,0.0,0.0,0.0,0.4897,0.4389,0.4179,0.0,0.0,0.0,0.0,0.0,0.0,0.0,0.0,0.0,0.0,0.0,0.0,0.0,0.0,0.0,0.0,0.3219,0.3347,0.365,0.3978,0.4287,0.4471,0.4701,0.5111,0.5198,0.528,0.541,0.5366,0.5323,0.5241,0.5024,0.4916,0.5009,0.4861,0.4801,0.4843,0.4765,0.4688,0.4577,0.4519,0.4629,0.4794,0.4956,0.5128,0.5356,0.585,0.6119,0.6332,0.4743,0.4632,0.4519,0.4519,0.4577,0.4632,0.4519,0.4463,0.4196,0.3556,0.2671,0.1998,0.1716,0.1487,0.1372,0.1372,0.1535,0.1586,0.1473,0.1633,0.1796,0.1909,0.2411,0.2854,0.3234,0.4064,0.4609,0.4906,0.0,0.0,0.0,0.5472,0.5302,0.5121,0.4508,0.416,0.3961,0.364,0.3546,0.3557,0.0,0.4055,0.41,0.4459,0.4777,0.5178,0.5919,0.7276,0.8857,0.9879,1.0807,1.1603,1.2077,1.2413,0.0,0.0,0.0,0.0,0.0,0.0,0.0,0.0,0.0,0.6426,0.0,0.0,0.0,0.4757,0.4477,0.0,0.0,0.0,0.0,0.0,0.0,0.0,0.0,0.0,0.0,0.0,0.0,0.0,0.0,0.0,0.3114,0.3347,0.3526,0.3843,0.4351,0.445,0.4684,0.5101,0.5241,0.5371,0.5491,0.5491,0.5491,0.5491,0.5241,0.5133,0.5195,0.5013,0.4952,0.4984,0.4834,0.4743,0.4688,0.4574,0.468,0.4901,0.5069,0.5238,0.5517,0.6064,0.6386,0.6598,0.4802,0.4688,0.4632,0.4519,0.4519,0.4519,0.4519,0.4242,0.384,0.314,0.2697,0.2319,0.2013,0.1952,0.1952,0.1768,0.1963,0.0,0.2106,0.0,0.224,0.241,0.2465,0.2689,0.313,0.3411,0.3735,0.4106,0.0,0.0,0.0,0.0,0.4638,0.4249,0.3908,0.3644,0.3448,0.3297,0.326,0.0,0.3535,0.3824,0.0,0.4308,0.465,0.5083,0.642,0.7502,0.8473,0.0,1.0081,1.0874,0.0,1.1361,1.1557,1.1557,0.0,0.0,0.0,0.0,0.0,0.0,0.7751,0.0,0.0,0.0,0.5627,0.5233,0.0,0.4524,0.4465,0.0,0.0,0.0,0.0,0.0,0.0,0.0,0.0,0.0,0.0,0.0,0.0,0.0,0.0,0.3285,0.3401,0.3577,0.3953,0.4249,0.4559,0.484,0.5062,0.5323,0.5491,0.5491,0.5491,0.5491,0.5453,0.5346,0.5195,0.5206,0.5157,0.4984,0.4938,0.4794,0.4691,0.4688,0.4739,0.4901,0.5069,0.5454,0.6005,0.649,0.6815,0.7085,0.5187,0.4908,0.4794,0.4629,0.4632,0.4577,0.4519,0.4201,0.3782,0.3186,0.2932,0.2649,0.2344,0.2403,0.2461,0.24,0.0,0.2636,0.0,0.0,0.2569,0.2523,0.2577,0.2633,0.2742,0.297,0.3249,0.3466,0.3796,0.0,0.0,0.0,0.391,0.3789,0.3516,0.3357,0.3262,0.0,0.3285,0.0,0.0,0.0,0.0,0.4238,0.461,0.5193,0.6218,0.7074,0.7768,0.0,0.9359,0.0,0.0,0.0,0.0,0.0,0.0,0.0,0.0,0.0,0.0,0.0,0.0,0.0,0.7209,0.0,0.6345,0.0,0.0,0.0,0.0,0.0,0.0,0.0,0.0,0.0,0.0,0.0,0.0,0.0,0.0,0.0,0.0,0.0,0.0,0.0,0.0,0.3241,0.3573,0.3837,0.4096,0.4497,0.4828,0.5062,0.5323,0.5448,0.5491,0.5491,0.5491,0.5478,0.5426,0.5456,0.5412,0.5297,0.5159,0.5073,0.4908,0.4849,0.4959,0.5179,0.5395,0.5723,0.6055,0.6603,0.7031,0.7413,0.5732,0.5289,0.4959,0.4794,0.4782,0.4713,0.4582,0.4302,0.3945,0.348,0.3348,0.313,0.2877,0.3001,0.0,0.3062,0.3145,0.3138,0.0,0.0,0.2894,0.2691,0.2745,0.2745,0.0,0.2805,0.2914,0.2965,0.319,0.3357,0.0,0.0,0.3377,0.3445,0.3254,0.3198,0.3174,0.0,0.3425,0.362,0.3809,0.4044,0.4278,0.4334,0.4703,0.5254,0.5956,0.6602,0.7229,0.7975,0.8616,0.0,0.952,0.0,0.0,0.0,0.0,0.0,0.9056,0.0,0.0,0.0,0.0,0.0,0.0,0.0,0.0,0.0,0.0,0.0,0.0,0.0,0.5151,0.4671,0.0,0.0,0.0,0.0,0.0,0.0,0.0,0.0,0.0,0.0,0.0,0.0,0.0,0.0,0.3143,0.3321,0.3625,0.4045,0.4401,0.4757,0.5106,0.528,0.541,0.5491,0.5491,0.5572,0.5662,0.5649,0.5617,0.5609,0.5379,0.5242,0.5128,0.5069,0.5128,0.5352,0.5727,0.6,0.6273,0.6825,0.7252,0.7622,0.6436,0.5786,0.5183,0.4956,0.4869,0.4852,0.0,0.0,0.0,0.0,0.0,0.0,0.0,0.0,0.0,0.0,0.0,0.3495,0.339,0.0,0.3242,0.3079,0.3074,0.3021,0.0,0.0,0.0,0.2691,0.286,0.2916,0.2916,0.3074,0.3075,0.3035,0.3131,0.3123,0.3034,0.3404,0.3612,0.3626,0.4024,0.4298,0.4519,0.0,0.4838,0.5164,0.5764,0.0,0.0,0.7343,0.781,0.0,0.0,0.0,0.0,0.0,0.0,0.0,0.0,0.0,0.0,0.8553,0.0,0.0,0.0,0.0,0.8564,0.0,0.0,0.0,0.0,0.6967,0.6514,0.5536,0.5296,0.0,0.0,0.0,0.0,0.0,0.0,0.0,0.0,0.0,0.0,0.0,0.0,0.0,0.2501,0.2784,0.3079,0.343,0.3889,0.4324,0.4801,0.4937,0.5198,0.5491,0.5491,0.5621,0.5908,0.574,0.5758,0.5869,0.5487,0.5297,0.5297,0.5297,0.5297,0.5356,0.5955,0.6386,0.6707,0.7149,0.7467,0.7777,0.7289,0.6702,0.6027,0.5462,0.517,0.0,0.0,0.4861,0.0,0.0,0.463,0.0,0.0,0.4517,0.4556,0.0,0.0,0.4466,0.4193,0.4061,0.0,0.3582,0.3452,0.3302,0.0,0.0,0.0,0.0,0.0,0.2747,0.2747,0.2802,0.2841,0.2811,0.3025,0.3113,0.0,0.0,0.0,0.0,0.0,0.4463,0.4519,0.0,0.0,0.5011,0.5563,0.6,0.0,0.6764,0.7209,0.7617,0.7677,0.7852,0.8018,0.7778,0.7839,0.0,0.0,0.0,0.8226,0.8639,0.0,0.0,0.0,0.0,0.0,0.0,0.0,0.0,0.0,0.8298,0.7948,0.7071,0.6786,0.6403,0.0,0.0,0.0,0.0,0.0,0.0,0.0,0.0,0.0,0.0,0.0,0.0,0.0,0.2438,0.2679,0.2924,0.3482,0.3968,0.4324,0.4675,0.498,0.5159,0.5569,0.5856,0.5995,0.6156,0.6174,0.6075,0.5982,0.5791,0.5631,0.5631,0.574,0.59,0.6228,0.6598,0.6977,0.7203,0.7634,0.8109,0.7995,0.7391,0.675,0.5994,0.0,0.0,0.0,0.0,0.0,0.0,0.5144,0.0,0.5009,0.0,0.5119,0.0,0.5081,0.4999,0.4711,0.4522,0.0,0.3937,0.3815,0.0,0.0,0.0,0.0,0.0,0.0,0.2747,0.2747,0.2747,0.2747,0.2802,0.3021,0.3188,0.3302,0.3688,0.3965,0.0,0.0,0.4519,0.0,0.0,0.4684,0.4849,0.0,0.5508,0.5786,0.6213,0.6534,0.6858,0.7009,0.7171,0.725,0.7043,0.716,0.7338,0.7321,0.7604,0.0,0.8728,0.9135,0.0,1.0194,0.0,0.0,0.0,0.0,0.0,0.0,0.0,0.9339,0.8561,0.8243,0.7762,0.0,0.5864,0.0,0.0,0.0,0.0,0.0,0.0,0.0,0.0,0.0,0.0,0.0,0.0,0.2348,0.2506,0.3074,0.3565,0.3928,0.432,0.4675,0.4941,0.547,0.5882,0.6103,0.6364,0.6493,0.6445,0.6337,0.6173,0.6009,0.6009,0.6119,0.6282,0.6544,0.6869,0.7198,0.7311,0.7741,0.8328,0.8451,0.7828,0.0,0.0,0.5934,0.0,0.0,0.0,0.5447,0.0,0.5593,0.5529,0.5529,0.5529,0.5523,0.551,0.5259,0.5049,0.4919,0.464,0.0,0.0,0.41,0.3913,0.3638,0.0,0.0,0.0,0.0,0.2916,0.2916,0.2802,0.2802,0.2916,0.3077,0.0,0.3641,0.3913,0.4079,0.4249,0.4411,0.4519,0.4519,0.4519,0.0,0.4688,0.4846,0.5069,0.5297,0.5668,0.5832,0.6,0.61,0.6154,0.6154,0.6154,0.6426,0.6701,0.7025,0.7396,0.7917,0.8792,0.0,0.0,0.0,0.0,1.1546,0.0,0.0,0.0,0.0,0.0,1.0752,1.0004,0.9621,0.9027,0.783,0.0,0.0,0.0,0.0,0.0,0.0,0.0,0.0,0.0,0.0,0.0,0.0,0.0,0.0,0.2197,0.2692,0.3164,0.3565,0.3928,0.4324,0.4806,0.5298,0.5746,0.6196,0.6425,0.666,0.6879,0.6603,0.6436,0.6436,0.6436,0.6436,0.649,0.6923,0.7198,0.7365,0.7467,0.7889,0.8427,0.8987,0.8334,0.7729,0.0,0.6714,0.6147,0.0,0.0,0.0,0.0,0.65,0.6445,0.6445,0.6363,0.6116,0.5897,0.5709,0.0,0.0,0.0,0.0,0.4556,0.4321,0.4082,0.3913,0.3694,0.3583,0.3471,0.0,0.3021,0.3021,0.3021,0.3021,0.3077,0.3246,0.3413,0.3641,0.3913,0.4187,0.4408,0.4463,0.4519,0.0,0.0,0.4519,0.4574,0.4688,0.4798,0.4908,0.5066,0.523,0.5344,0.5399,0.5449,0.5555,0.5723,0.5946,0.6273,0.6707,0.7298,0.809,0.9078,0.9779,1.0497,0.0,0.0,0.0,0.0,0.0,0.0,0.0,0.0,0.0,1.1182,1.0333,0.9536,0.8885,0.0,0.0,0.6771,0.0,0.0,0.0,0.0,0.0,0.0,0.0,0.0,0.0,0.0,0.0,0.2119,0.2567,0.2948,0.33,0.3748,0.4148,0.4591,0.54,0.594,0.6201,0.681,0.7143,0.7209,0.7095,0.7036,0.6923,0.6923,0.6982,0.7095,0.7203,0.7473,0.7794,0.8055,0.8262,0.8427,0.9705,0.0,0.0,0.8243,0.0,0.0,0.709,0.0,0.0,0.7288,0.717,0.0,0.6809,0.6718,0.6462,0.6149,0.5928,0.0,0.5688,0.0,0.0,0.4793,0.4515,0.4245,0.4079,0.3916,0.0,0.3691,0.0,0.3299,0.3244,0.313,0.3132,0.3244,0.3413,0.358,0.3802,0.4076,0.4353,0.4519,0.4519,0.0,0.0,0.4519,0.4519,0.4519,0.4574,0.4632,0.4688,0.4794,0.4901,0.5014,0.5014,0.5066,0.5171,0.5344,0.5567,0.5946,0.6376,0.7074,0.7984,0.8981,0.9918,1.0816,1.1799,1.2382,1.2809,0.0,0.0,0.0,0.0,0.0,0.0,1.2,1.1058,1.0264,0.0,0.0,0.0,0.0,0.6634,0.0,0.0,0.0,0.0,0.0,0.0,0.0,0.0,0.0,0.0,0.1999,0.2397,0.2773,0.3084,0.353,0.3972,0.4416,0.5349,0.5941,0.625,0.6985,0.7311,0.7419,0.7467,0.7408,0.7348,0.7348,0.7408,0.7467,0.7467,0.7681,0.8062,0.8321,0.8421,0.8527,1.039,0.0,0.0,0.0,0.0,0.0,0.0,0.7802,0.0,0.793,0.0,0.7417,0.7009,0.6911,0.6683,0.6352,0.0,0.58,0.58,0.5264,0.4938,0.4918,0.4646,0.4428,0.4249,0.4193,0.4079,0.0,0.0,0.3583,0.3469,0.3299,0.3299,0.3469,0.3583,0.3802,0.0,0.4353,0.4519,0.4519,0.4519,0.4519,0.4519,0.4519,0.4519,0.4519,0.4519,0.4574,0.4688,0.4688,0.4739,0.4842,0.4842,0.4842,0.4901,0.5014,0.5289,0.5673,0.61,0.6864,0.7729,0.8771,0.9894,1.0981,1.1752,1.2766,1.3619,1.387,1.3847,0.0,0.0,0.0,0.0,1.2449,0.0,0.0,0.0,0.0,0.0,0.0,0.0,0.0,0.0,0.0,0.0,0.0,0.0,0.0,0.0,0.0,0.0,0.0,0.2361,0.0,0.2957,0.0,0.3884,0.4364,0.5297,0.5936,0.6298,0.7037,0.7473,0.7574,0.7723,0.7777,0.7777,0.7777,0.7777,0.7777,0.7777,0.7996,0.8275,0.8374,0.8527,0.8633,1.0542,0.0,0.0,0.0,0.0,1.0321,1.0192,0.9414,0.8823,0.9047,0.8493,0.809,0.791,0.7398,0.6873,0.6588,0.6124,0.0,0.0,0.0,0.0,0.4925,0.4748,0.4592,0.4467,0.4301,0.4193,0.0,0.0,0.0,0.3913,0.3855,0.3855,0.3913,0.3913,0.4024,0.4193,0.4408,0.0,0.4519,0.4519,0.4519,0.4519,0.4519,0.4519,0.4519,0.4519,0.4519,0.4519,0.4519,0.4574,0.457,0.457,0.457,0.4625,0.4846,0.5117,0.55,0.6046,0.6864,0.7729,0.8771,0.985,1.0948,1.2076,1.2702,1.3299,1.3923,1.4099,1.405,1.3828,0.0,0.0,0.0,0.0,0.0,0.0,0.0,0.0,0.0,0.0,0.0,0.0,0.0,0.0,0.0,0.0,0.0,0.0,0.0,0.0,0.0,0.0,0.0,0.0,0.0,0.0,0.4578,0.5533,0.6228,0.6547,0.7402,0.7901,0.8062,0.8209,0.8262,0.8262,0.8262,0.8262,0.8262,0.8262,0.8368,0.8521,0.8573,0.8633,0.8752,1.1509,0.0,0.0,0.0,0.0,0.0,0.0,1.082,0.0,0.9695,0.9203,0.8666,0.8131,0.7608,0.7067,0.6669,0.6124,0.58,0.58,0.5379,0.5067,0.4925,0.4772,0.0,0.4522,0.4408,0.4304,0.4193,0.0,0.0,0.4024,0.4024,0.4024,0.4024,0.4079,0.419,0.0,0.0,0.0,0.4519,0.4519,0.4519,0.4519,0.4519,0.4519,0.4519,0.4519,0.4519,0.4519,0.4519,0.4519,0.4519,0.4519,0.4519,0.4574,0.4846,0.5117,0.5441,0.6046,0.6804,0.7616,0.8567,0.9599,1.0661,1.1765,1.2551,1.3305,1.4013,1.4111,1.3946,1.3623,1.3291,0.0,0.0,0.0,0.0,0.0,0.0,0.0,0.0,0.0,0.0,0.0,0.0,0.0,0.0,0.0,0.0,0.0,0.0,0.0,0.0,0.0,0.0,0.0,0.0,0.0,0.4884,0.5611,0.6256,0.6821,0.7404,0.7921,0.8321,0.8421,0.8527,0.8527,0.8527,0.8474,0.8421,0.8421,0.8474,0.8626,0.8626,0.8685,0.8804,0.0,1.2296,0.0,0.0,1.1899,0.0,1.1896,1.1895,1.1499,1.0381,0.9831,0.915,0.8383,0.7823,0.7277,0.674,0.6198,0.5875,0.58,0.541,0.5101,0.4925,0.4802,0.4653,0.4522,0.4519,0.4411,0.0,0.0,0.0,0.0,0.4132,0.0,0.0,0.0,0.0,0.0,0.0,0.4519,0.4519,0.4519,0.4519,0.4519,0.4519,0.4519,0.4519,0.4519,0.4519,0.4519,0.4519,0.4519,0.4519,0.4519,0.4519,0.4574,0.4846,0.5117,0.55,0.6046,0.6745,0.7503,0.8362,0.9347,1.0364,1.1325,1.2276,1.317,1.3789,1.3822,1.363,1.3382,1.3142,0.0,0.0,0.0,0.0,0.0,0.0,0.0,0.0,0.0,0.0,0.0,0.0,0.0,0.0,0.0,0.0,0.0,0.0,0.0,0.0,0.0,0.0,0.41,0.0,0.4845,0.0,0.5776,0.6382,0.7098,0.7461,0.7941,0.8474,0.858,0.8633,0.8633,0.8633,0.858,0.848,0.848,0.8533,0.8633,0.8679,0.8745,0.8857,0.0,0.0,0.0,0.0,0.0,0.0,0.0,1.2601,1.2272,1.1327,1.0469,0.9671,0.9114,0.8286,0.7545,0.6957,0.6349,0.6022,0.5803,0.5511,0.5213,0.4931,0.4904,0.4762,0.4525,0.4519,0.4519,0.0,0.0,0.4463,0.0,0.0,0.0,0.0,0.0,0.0,0.0,0.4519,0.4519,0.4519,0.4519,0.4519,0.4519,0.4519,0.4519,0.4519,0.4519,0.4519,0.4519,0.4519,0.4519,0.4519,0.4519,0.4574,0.4688,0.4846,0.523,0.5673,0.61,0.6745,0.7503,0.8362,0.9249,1.0123,1.1108,1.181,1.2442,1.3016,1.3088,1.3076,1.3034,1.2546,1.2042,0.0,0.0,0.0,0.0,0.0,0.0,0.9021,0.0,0.0,0.0,0.0,0.0,0.0,0.0,0.0,0.0,0.0,0.0,0.0,0.0,0.4578,0.4714,0.5188,0.0,0.575,0.6404,0.6945,0.7392,0.7815,0.8248,0.8573,0.8745,0.8804,0.8804,0.8804,0.8752,0.8752,0.8752,0.8752,0.8804,0.8903,0.8956,0.9008,0.0,0.0,0.0,0.0,0.0,0.0,0.0,1.3052,1.279,1.2186,1.1122,1.006,0.9356,0.8506,0.7762,0.7265,0.657,0.6097,0.595,0.5597,0.5267,0.5053,0.4954,0.4813,0.4606,0.4567,0.4519,0.0,0.0,0.0,0.0,0.0,0.0,0.0,0.0,0.4519,0.4519,0.4519,0.4519,0.4519,0.4519,0.4519,0.4519,0.4519,0.4519,0.4519,0.4519,0.4519,0.4519,0.4519,0.4519,0.4519,0.4577,0.4632,0.4746,0.5073,0.5348,0.5727,0.6164,0.6756,0.7348,0.8156,0.889,0.9673,1.0454,1.1116,1.166,1.2157,1.231,1.2426,1.2426,1.2186,1.1855,0.0,0.0,0.0,0.0,0.0,0.0,0.0,0.0,0.8552,0.0,0.0,0.0,0.0,0.0,0.0,0.0,0.0,0.0,0.5211,0.0,0.5524,0.5696,0.5959,0.6221,0.6483,0.673,0.7193,0.7821,0.7933,0.8237,0.8745,0.8752,0.8804,0.8804,0.8804,0.8804,0.8811,0.891,0.891,0.8956,0.9061,0.9159,0.9263,1.413,0.0,1.3835,0.0,1.3568,1.3568,1.3483,1.3398,1.3105,1.2596,1.1695,1.0651,0.9668,0.8848,0.8086,0.7569,0.6791,0.6312,0.6097,0.573,0.5356,0.5138,0.5034,0.0,0.4697,0.4585,0.4563,0.4519,0.4519,0.0,0.0,0.0,0.0,0.0,0.4519,0.4519,0.4519,0.4519,0.4519,0.4519,0.4519,0.4519,0.4519,0.4519,0.4519,0.4519,0.4519,0.4519,0.4519,0.4519,0.4519,0.4574,0.4688,0.4802,0.4912,0.5242,0.5517,0.5896,0.6381,0.6815,0.7359,0.8055,0.8685,0.9256,0.9932,1.0454,1.0964,1.1377,1.1569,1.166,1.166,1.166,1.1472,0.0,0.0,0.0,0.0,0.0,0.0,0.0,0.8815,0.8764,0.911,0.0,0.0,0.0,0.0,0.0,0.0,0.0,0.0,0.0,0.0,0.0,0.0,0.0,0.6992,0.7125,0.7167,0.7568,0.8207,0.8276,0.8497,0.891,0.891,0.891,0.891,0.891,0.891,0.8903,0.9061,0.9106,0.9159,0.9323,0.9472,0.9621,1.4991,1.4683,1.4429,1.4135,1.4088,1.3997,1.3737,1.3652,1.338,1.2438,1.2095,1.1525,1.0222,0.9267,0.8399,0.7557,0.7159,0.6738,0.6169,0.5795,0.548,0.0,0.0,0.4992,0.4697,0.4687,0.4613,0.4519,0.0,0.0,0.4519,0.0,0.0,0.4519,0.4519,0.4519,0.4519,0.4519,0.4519,0.4519,0.4519,0.4519,0.4519,0.4519,0.4519,0.4519,0.4519,0.4519,0.4519,0.4519,0.4574,0.4691,0.4691,0.4967,0.5297,0.5297,0.574,0.6282,0.6598,0.6982,0.7473,0.8215,0.8626,0.8981,0.9658,1.0035,1.0352,1.082,1.0922,1.0922,1.0922,1.082,1.0718,1.0718,0.0,0.0,0.0,0.0,0.0,0.0,0.8741,0.8903,0.8975,0.0,0.0,0.0,0.0,0.0,0.0,0.0,0.0,0.7482,0.7482,0.0,0.7682,0.7821,0.7836,0.767,0.7836,0.8084,0.8497,0.8975,0.9204,0.9211,0.9211,0.9211,0.9211,0.9211,0.9211,0.9211,0.9361,0.9413,0.9413,0.9688,0.9895,0.9999,1.5106,1.485,1.4595,1.422,1.4088,1.4088,1.3997,1.3822,1.3549,1.3016,1.2413,1.1694,1.0948,0.9797,0.8803,0.0,0.7449,0.6828,0.0,0.5936,0.5529,0.548,0.5215,0.5061,0.4996,0.4823,0.4697,0.4619,0.0,0.0,0.0,0.4519,0.4519,0.4519,0.4519,0.4519,0.4519,0.4519,0.4519,0.4519,0.4519,0.4519,0.4519,0.4519,0.4519,0.4519,0.4519,0.4519,0.4519,0.4632,0.4739,0.4849,0.5073,0.5187,0.5407,0.5791,0.6119,0.644,0.6869,0.7246,0.7676,0.8162,0.8533,0.8896,0.9309,0.9621,0.9829,0.9976,1.0028,1.0028,1.0028,0.9984,0.9932,0.9932,0.0,0.0,0.0,0.0,0.0,0.0,0.9185,0.9354,0.0,0.9821,0.0,0.0,0.0,0.0,0.0,0.0,0.0,0.0,0.9243,0.0,0.9454,0.9418,0.9338,0.9205,0.9161,0.9181,0.9257,0.9497,0.9532,0.9361,0.9361,0.9263,0.9211,0.9309,0.9361,0.9368,0.9584,0.9732,0.9844,1.0058,1.036,1.0616,1.536,1.5026,1.4767,1.422,1.4088,1.4088,1.4088,1.3997,1.3665,1.3208,1.27,1.2012,1.1242,1.0377,0.0,0.8567,0.7848,0.7223,0.6757,0.6175,0.5815,0.5617,0.5422,0.5222,0.5135,0.0,0.0,0.4775,0.4623,0.4548,0.4548,0.4543,0.4519,0.4519,0.4519,0.4519,0.4519,0.4519,0.4519,0.4519,0.4519,0.4519,0.4519,0.4519,0.4519,0.4519,0.4519,0.4519,0.4574,0.4688,0.4853,0.5124,0.5399,0.5567,0.5786,0.6173,0.644,0.6761,0.7187,0.7563,0.7889,0.8262,0.8533,0.8798,0.9054,0.9309,0.9465,0.9465,0.9465,0.9465,0.9465,0.9465,0.9465,0.9465,0.0,0.935,0.9097,0.0,0.0,0.0,0.0,0.0,0.0,1.0183,0.0,0.0,0.0,0.0,0.0,0.0,0.0,1.0394,1.0666,0.0,1.0812,1.0624,1.0481,1.031,1.0136,1.0,0.9848,1.005,0.9999,0.9732,0.9732,0.9629,0.9524,0.9681,0.9732,0.9784,1.0051,1.0205,1.036,1.0514,1.0871,1.1226,1.5857,1.5325,0.0,0.0,1.4088,0.0,1.4088,1.4088,1.3802,1.3043,1.2932,1.2486,1.1315,1.0944,1.0233,0.8905,0.0,0.0,0.0,0.6509,0.6152,0.5683,0.5627,0.0,0.5148,0.514,0.5006,0.4928,0.4779,0.4701,0.4687,0.4545,0.4529,0.4519,0.4519,0.4519,0.4519,0.4519,0.4519,0.4519,0.4519,0.4519,0.4519,0.4519,0.4519,0.4519,0.4519,0.4574,0.4691,0.4688,0.4967,0.5352,0.5723,0.6105,0.6436,0.6436,0.6761,0.7246,0.7616,0.7836,0.8055,0.8474,0.8626,0.8679,0.8956,0.9061,0.9159,0.9159,0.9159,0.9159,0.9159,0.9159,0.9159,0.9159,0.9159,0.9061,0.8769,0.0,0.0,0.0,0.0,0.0,0.0,1.0123,1.0533,0.0,0.0,0.0,0.0,0.0,1.1719,1.1762,1.1806,1.1816,1.1846,1.1597,1.1312,1.1109,1.0886,1.068,1.0399,1.0664,1.0624,1.0316,1.0316,1.0213,1.0051,1.0265,1.0316,1.0368,1.0624,1.082,1.0972,1.1124,1.1427,1.1728,0.0,0.0,1.4933,1.446,1.4159,1.4088,1.4088,1.4088,1.3893,1.3231,1.302,1.2635,1.1893,1.1323,1.0698,0.9814,0.8881,0.8058,0.7357,0.6766,0.635,0.6218,0.5818,0.5536,0.5494,0.5253,0.5031,0.4899,0.4857,0.4806,0.4691,0.4653,0.4575,0.4519,0.4519,0.4519,0.4519,0.4519,0.4519,0.4519,0.4519,0.4519,0.4519,0.4519,0.4519,0.4519,0.4519,0.4574,0.4743,0.4794,0.5069,0.5352,0.5837,0.6273,0.6647,0.6869,0.7241,0.7616,0.7788,0.8156,0.8468,0.8573,0.8685,0.8752,0.8857,0.8857,0.891,0.891,0.891,0.891,0.891,0.891,0.891,0.891,0.891,0.8883,0.8912,0.9009,0.0,0.0,0.9496,0.9748,1.0266,1.0565,1.0953,0.0,0.0,0.0,0.0,0.0,1.3053,1.2568,1.293,1.315,1.316,1.3,1.2671,1.2206,1.1923,1.1626,1.1388,1.1334,1.1124,1.0769,1.0769,1.0616,1.0419,1.0667,1.0769,1.0769,1.1074,1.1326,1.1519,1.1528,1.1819,1.2175,1.6085,1.5426,1.4852,1.4453,1.4257,1.4088,1.4088,1.4088,1.3893,1.3322,1.3067,1.2755,1.209,1.1687,1.118,1.0299,0.9346,0.8452,0.762,0.7134,0.6741,0.642,0.6148,0.5885,0.5617,0.5441,0.526,0.5132,0.5011,0.4972,0.4891,0.4755,0.4646,0.4565,0.4549,0.4519,0.4519,0.4574,0.4577,0.4577,0.4684,0.468,0.468,0.4629,0.4577,0.4574,0.4519,0.4632,0.4802,0.4959,0.5289,0.5677,0.6164,0.6598,0.7036,0.7359,0.7628,0.7836,0.8162,0.8421,0.8626,0.8685,0.8745,0.8804,0.8804,0.8804,0.8804,0.8804,0.8804,0.8804,0.8804,0.8804,0.8804,0.8804,0.8804,0.8804,0.891,0.8956,0.0,0.9361,0.951,0.9829,1.0368,1.0726,1.1124,1.1678,0.0,0.0,1.2958,1.3536,1.3658,1.3361,1.3825,1.4046,1.3952,1.3763,1.343,1.2939,1.2745,1.2412,1.2076,1.1977,1.1728,1.1276,1.1276,1.1124,1.0871,1.1074,1.1217,1.1276,1.1469,1.1728,1.1977,1.1977,1.2224,1.2578,1.6115,1.5331,1.4748,1.453,1.4271,1.4179,1.4088,1.4088,1.3893,1.3322,1.3223,1.2889,1.2137,1.205,1.161,1.059,0.9846,0.9012,0.7892,0.7657,0.7265,0.6613,0.6482,0.6218,0.5749,0.5683,0.562,0.5495,0.5294,0.5216,0.5188,0.4958,0.4814,0.4742,0.4668,0.4595,0.457,0.4684,0.4743,0.4743,0.4846,0.4897,0.4901,0.4794,0.4743,0.4743,0.4629,0.4743,0.4971,0.5073,0.5508,0.6055,0.6539,0.6982,0.7365,0.7794,0.7955,0.8055,0.8468,0.8626,0.8633,0.8752,0.8804,0.8804,0.8804,0.8804,0.8804,0.8804,0.8804,0.8804,0.8804,0.8804,0.8804,0.8804,0.8804,0.8804,0.8804,0.0,0.9008,0.9159,0.9413,0.9725,1.0213,1.0616,1.1074,1.1628,1.2126,0.0,0.0,1.343,1.3821,1.3973,1.4395,1.4581,1.4477,1.4197,1.3915,1.3515,1.3362,1.3084,1.2618,1.2569,1.2323,1.1828,1.1778,1.1628,1.1418,1.1578,1.1678,1.1828,1.1977,1.2175,1.2372,1.2421,1.2676,1.2958,1.6487,1.5763,1.5151,1.4741,1.4523,1.4277,1.4088,1.4088,1.3893,1.3322,1.3223,1.297,1.2305,1.2131,1.1755,1.1138,1.0541,0.9701,0.8479,0.8117,0.7722,0.7326,0.6872,0.6548,0.6284,0.602,0.5822,0.5826,0.5796,0.5715,0.5579,0.5535,0.5424,0.5093,0.5124,0.4978,0.4846,0.4846,0.4846,0.4846,0.4897,0.4897,0.4897,0.4901,0.4846,0.4846,0.4846,0.4959,0.5073,0.5242,0.5567,0.6055,0.6539,0.6982,0.7419,0.8008,0.8221,0.8368,0.8573,0.8685,0.8752,0.8804,0.8804,0.8804,0.8804,0.8804,0.8804,0.8804,0.8804,0.8804,0.8804,0.8804,0.8804,0.8804,0.8804,0.8804,0.0,0.0,0.891,0.9159,0.9263,0.9472,0.9999,1.036,1.0769,1.1326,1.1877,1.2323,1.2725,1.319,1.3563,1.3821,1.4337,1.4627,1.473,1.4581,1.4384,1.4082,1.3952,1.3621,1.3074,1.2977,1.2745,1.2382,1.2274,1.2126,1.1977,1.2126,1.2175,1.2224,1.248,1.2676,1.2832,1.2861,1.3094,1.3273,1.6738,1.6004,1.5431,1.5166,1.4692,1.4375,1.4277,1.4179,1.3893,1.3322,1.3223,1.2977,1.2385,1.2218,1.1913,1.1276,1.0955,1.0307,0.9116,0.8571,0.8117,0.7787,0.733,0.6872,0.642,0.609,0.5888,0.5888,0.5888,0.5851,0.5776,0.5716,0.5632,0.5472,0.527,0.517,0.5148,0.5112,0.5179,0.5289,0.5348,0.5403,0.5403,0.5289,0.5234,0.5124,0.5014,0.5066,0.523,0.5403,0.5778,0.6317,0.6756,0.7192,0.7628,0.8162,0.8427,0.8639,0.8692,0.8752,0.8804,0.8804,0.8804,0.8804,0.8804,0.8804,0.8804,0.8804,0.8804,0.8804,0.8804,0.8804,0.8804,0.8804,0.8804,0.0,0.0,0.8804,0.891,0.9159,0.9211,0.942,0.9947,1.0308,1.0718,1.1276,1.1778,1.2274,1.2676,1.3142,1.3515,1.3763,1.4419,1.4846,1.5051,1.4994,1.4846,1.4582,1.4373,1.4046,1.3515,1.3362,1.3084,1.2725,1.2627,1.2529,1.2332,1.248,1.2578,1.2627,1.29,1.3045,1.317,1.3014,1.3109,1.3221,1.7041,1.6425,1.5869,1.5521,1.5027,1.4621,1.4467,1.4271,1.3893,1.3328,1.3138,1.2889,1.2385,1.2305,1.2045,1.13,1.122,1.0773,0.9746,0.9081,0.8576,0.8117,0.7722,0.7199,0.6613,0.6284,0.6152,0.6152,0.6156,0.6156,0.6152,0.6017,0.5951,0.5932,0.5636,0.5576,0.5608,0.5526,0.5605,0.5727,0.5841,0.59,0.5896,0.5782,0.5622,0.5462,0.5344,0.5395,0.55,0.5673,0.61,0.6583,0.7025,0.7408,0.783,0.8262,0.8586,0.8804,0.8804,0.8804,0.8804,0.8804,0.8804,0.8804,0.8804,0.8804,0.8804,0.8804,0.8804,0.8804,0.8804,0.8804,0.8804,0.8804,0.0,0.0,0.0,0.8804,0.891,0.9159,0.9211,0.9472,0.9947,1.0308,1.0769,1.1276,1.1778,1.2274,1.2627,1.3094,1.3515,1.3905,1.4547,1.5017,1.5312,1.5357,1.5255,1.5006,1.48,1.4477,1.3962,1.3763,1.3488,1.3065,1.3017,1.2861,1.2666,1.2813,1.291,1.3065,1.3228,1.3348,1.3309,1.3097,1.3078,1.314,1.7755,1.7123,1.6417,1.5793,1.5445,1.5195,1.474,1.4277,1.3893,1.3516,1.3131,1.2721,1.2305,1.2305,1.2037,1.142,1.1269,1.0955,1.0314,0.9722,0.9163,0.8517,0.7852,0.7396,0.7134,0.6942,0.6815,0.6815,0.6828,0.6828,0.6815,0.6815,0.6745,0.6601,0.6578,0.6466,0.6235,0.6217,0.622,0.6154,0.6154,0.6154,0.6154,0.6154,0.605,0.5946,0.5946,0.5946,0.5946,0.6105,0.6485,0.6928,0.7187,0.7568,0.7949,0.8321,0.8586,0.8804,0.8804,0.8804,0.8804,0.8804,0.8804,0.8804,0.8804,0.8804,0.8804,0.8804,0.8804,0.8804,0.8804,0.8804,0.8804,0.8804,0.0,0.0,0.8804,0.8804,0.891,0.9159,0.9316,0.9569,0.9947,1.0411,1.0871,1.1276,1.1778,1.2224,1.248,1.2939,1.3552,1.4326,1.4731,1.5017,1.5312,1.5435,1.5424,1.5267,1.5108,1.4891,1.4534,1.4161,1.3821,1.3515,1.3276,1.317,1.317,1.3266,1.3372,1.3372,1.3668,1.3537,1.3239,1.3352,1.3282,1.3129,1.8218,1.77,1.7123,1.6621,1.6148,1.5649,1.5209,1.4734,1.4193,1.3597,1.3188,1.2808,1.2378,1.2305,1.2137,1.1723,1.1449,1.1102,1.0595,1.0231,0.953,0.8511,0.8112,0.7787,0.7531,0.733,0.7265,0.7265,0.7288,0.7297,0.7292,0.7265,0.7251,0.7177,0.7053,0.7002,0.6949,0.6813,0.6766,0.6839,0.6758,0.6756,0.6756,0.6756,0.6647,0.6436,0.6436,0.6381,0.6273,0.6431,0.6756,0.7085,0.7354,0.7723,0.815,0.8533,0.8699,0.8804,0.8804,0.8804,0.8804,0.8804,0.8804,0.8804,0.8804,0.8804,0.8804,0.8804,0.8804,0.8804,0.8804,0.8804,0.8804,0.8804,0.0,0.8804,0.8804,0.8804,0.891,0.9159,0.9309,0.9629,1.011,1.0565,1.0972,1.1368,1.1927,1.2274,1.248,1.3084,1.3752,1.4373,1.4834,1.5142,1.5435,1.5614,1.5659,1.5537,1.5357,1.5062,1.4777,1.4419,1.4057,1.3716,1.3515,1.342,1.3314,1.3467,1.3621,1.3789,1.368,1.3682,1.3663,1.3153,1.3013,1.3025,1.8807,1.8336,1.7891,1.7408,1.6802,1.6231,1.5643,1.5011,1.4339,1.3762,1.3212,1.2802,1.2466,1.2305,1.2218,1.189,1.1611,1.1226,1.0819,1.0485,0.9837,0.8835,0.8571,0.8306,0.8052,0.7922,0.7787,0.7787,0.7811,0.7826,0.7826,0.7782,0.7827,0.7817,0.7693,0.7656,0.7685,0.7504,0.7459,0.7419,0.7373,0.7312,0.7246,0.7246,0.7085,0.6869,0.6869,0.682,0.6712,0.6815,0.7085,0.7354,0.7574,0.7937,0.8408,0.8692,0.8804,0.8804,0.8804,0.8804,0.8804,0.8804,0.8804,0.8804,0.8804,0.8804,0.8804,0.8804,0.8804,0.8804,0.8804,0.8804,0.8804,0.8804,0.8804,0.8804,0.8804,0.8857,0.8962,0.9159,0.942,0.9732,1.0265,1.0718,1.1124,1.1519,1.2026,1.2421,1.2706,1.3334,1.3905,1.4373,1.488,1.5244,1.5558,1.5736,1.5836,1.5715,1.5525,1.53,1.5006,1.4686,1.4373,1.3952,1.3858,1.3752,1.3658,1.38,1.3914,1.3984,1.3828,1.3727,1.3622,1.3071,1.2869,1.2908,1.9301,1.8991,1.8479,1.7811,1.74,1.6836,1.6055,1.5126,1.4391,1.4014,1.3169,1.2633,1.2633,1.2392,1.2218,1.1964,1.1556,1.132,1.0994,1.0555,1.0028,0.9548,0.9028,0.8835,0.8835,0.8576,0.8517,0.8517,0.8517,0.8522,0.8473,0.8506,0.8479,0.8527,0.8501,0.8504,0.8387,0.8387,0.8229,0.7897,0.7892,0.7743,0.7521,0.7521,0.7419,0.7317,0.7317,0.7317,0.7317,0.7317,0.758,0.7901,0.7901,0.8209,0.8626,0.8752,0.8804,0.8804,0.8804,0.8804,0.8804,0.8804,0.8804,0.8804,0.8804,0.8804,0.8804,0.8804,0.8804,0.8804,0.8804,0.8804,0.8804,0.8804,0.8804,0.8804,0.8804,0.891,0.9061,0.9159,0.9532,0.9955,1.0265,1.0769,1.1276,1.1669,1.2076,1.2559,1.317,1.3563,1.3952,1.4384,1.488,1.5289,1.5715,1.5913,1.5913,1.5792,1.5792,1.5614,1.5312,1.5006,1.4731,1.4373,1.4269,1.4222,1.4222,1.4326,1.4225,1.4003,1.4079,1.3678,1.3127,1.3115,1.2972,1.2803,1.975,1.9386,1.9018,1.8683,1.79,1.7172,1.6429,1.5576,1.4785,1.4122,1.3528,1.306,1.2633,1.2553,1.2392,1.2218,1.1717,1.1243,1.0776,1.0478,1.0212,1.0098,0.9536,0.9227,0.9168,0.8964,0.8829,0.8829,0.9011,0.9081,0.9045,0.9134,0.9175,0.9233,0.9192,0.9221,0.9196,0.9142,0.9035,0.892,0.8657,0.846,0.8416,0.823,0.8055,0.7955,0.7955,0.7842,0.7723,0.7895,0.8008,0.8162,0.8315,0.8468,0.8626,0.8752,0.8804,0.8804,0.8804,0.8804,0.8804,0.8804,0.8804,0.8804,0.8804,0.8804,0.8804,0.8804,0.8804,0.8804,0.8804,0.8804,0.8804,0.8804,0.8804,0.8804,0.8804,0.891,0.9061,0.9309,0.9681,1.0102,1.0522,1.1074,1.1528,1.1828,1.2382,1.2861,1.317,1.3563,1.3952,1.4384,1.488,1.5289,1.5715,1.5913,1.6044,1.6069,1.5881,1.5748,1.5614,1.5244,1.4915,1.4731,1.4558,1.4477,1.4477,1.4569,1.4653,1.472,1.4182,1.3923,1.3808,1.3179,1.2972,1.3025,2.013,1.9856,1.9492,1.8982,1.8311,1.7493,1.6538,1.5782,1.5024,1.4336,1.3805,1.3353,1.2994,1.2707,1.2553,1.2466,1.1799,1.116,1.0672,1.0485,1.0415,1.0415,1.004,0.9728,0.9548,0.9472,0.9402,0.9402,0.9518,0.9588,0.9548,0.9652,0.9691,0.9673,0.9703,0.9716,0.9709,0.9668,0.9599,0.9474,0.92,0.8985,0.8762,0.8597,0.847,0.8268,0.8268,0.8209,0.8096,0.8215,0.8321,0.8374,0.8639,0.8765,0.8857,0.8918,0.9065,0.9152,0.9152,0.9152,0.9152,0.9152,0.8978,0.8804,0.8804,0.8804,0.8804,0.8804,0.8804,0.8804,0.8804,0.8804,0.8804,0.8804,0.8804,0.8804,0.8857,0.9008,0.9159,0.9465,0.9836,1.0308,1.0718,1.1226,1.1678,1.2126,1.2666,1.3094,1.317,1.361,1.4057,1.4384,1.488,1.53,1.576,1.5969,1.6144,1.62,1.61,1.5969,1.5792,1.5525,1.5244,1.5062,1.4937,1.4903,1.4903,1.4937,1.4993,1.4993,1.4541,1.4245,1.4071,1.352,1.3326,1.3323,2.0353,2.0256,1.9915,1.8928,1.8556,1.7885,1.6581,1.5837,1.524,1.4729,1.4,1.3564,1.3499,1.2994,1.2707,1.2633,1.1917,1.1206,1.0694,1.0624,1.0624,1.0624,1.0415,1.0225,1.0047,1.0047,0.9983,0.9983,1.0047,1.0047,1.0053,1.0053,1.0028,1.0059,1.0034,1.0047,1.0047,1.0047,0.997,0.9801,0.9707,0.9322,0.8907,0.8863,0.8683,0.8459,0.8434,0.8427,0.8427,0.8427,0.8546,0.8672,0.8791,0.9045,0.9223,0.9223,0.9472,0.9686,0.9686,0.9686,0.9686,0.9686,0.9279,0.8884,0.8884,0.8871,0.8864,0.8864,0.8891,0.8871,0.8871,0.8871,0.8871,0.8871,0.8897,0.8964,0.9063,0.9235,0.9439,0.9665,1.0089,1.0553,1.0879,1.1326,1.1828,1.248,1.2939,1.3218,1.3218,1.3716,1.415,1.443,1.488,1.5334,1.5792,1.6057,1.62,1.6244,1.6362,1.6231,1.5836,1.5836,1.5614,1.5345,1.5312,1.5312,1.5312,1.5357,1.523,1.5067,1.5061,1.4685,1.4149,1.4135,1.396,1.3713,2.0547,2.013,1.9656,1.9412,1.8425,1.7509,1.7107,1.6263,1.5468,1.4896,1.4585,1.4137,1.3564,1.3353,1.3148,1.2882,1.208,1.1425,1.0918,1.0701,1.0624,1.0624,1.0555,1.0491,1.0498,1.0161,0.997,0.9983,1.018,1.0251,1.0263,1.0378,1.0491,1.0485,1.0491,1.0498,1.0498,1.0498,1.0458,1.0385,1.0091,0.992,0.9755,0.9299,0.9088,0.9002,0.8778,0.8699,0.8699,0.8699,0.8844,0.9084,0.909,0.9345,0.9586,0.9586,0.9633,0.9686,0.9686,0.9686,0.9686,0.9686,0.9586,0.9492,0.9492,0.9498,0.9514,0.9514,0.9512,0.9528,0.9528,0.9528,0.9528,0.9528,0.9601,0.9674,0.9674,1.0072,1.0287,1.0316,1.0715,1.1088,1.1201,1.1778,1.2274,1.2627,1.2987,1.3266,1.3362,1.3847,1.4326,1.4605,1.5028,1.548,1.5957,1.61,1.6275,1.6436,1.6392,1.6349,1.6275,1.5925,1.5748,1.5659,1.5525,1.5468,1.548,1.5614,1.5676,1.5608,1.5566,1.5461,1.5318,1.5222,1.4902,1.4501,2.0333,1.9946,1.9592,1.9101,1.8421,1.7693,1.7153,1.656,1.5991,1.538,1.5039,1.4681,1.4072,1.3878,1.3521,1.29,1.2389,1.1791,1.1171,1.0989,1.0841,1.0624,1.0624,1.0624,1.0624,1.0421,1.0295,1.0301,1.0371,1.0434,1.0448,1.0561,1.0624,1.0624,1.0624,1.0624,1.0624,1.0624,1.0624,1.0611,1.0388,1.0241,1.0087,0.9773,0.9429,0.9163,0.9065,0.9011,0.9011,0.9011,0.9212,0.9452,0.9452,0.9653,0.9886,0.9886,0.9987,1.01,1.01,1.01,1.01,1.01,1.01,1.0027,0.9746,0.9724,0.9707,0.9707,0.9688,0.9695,0.9722,0.9687,0.9715,0.9688,0.982,0.9938,1.0109,1.0415,1.0691,1.0973,1.1343,1.176,1.2202,1.2696,1.3119,1.3384,1.372,1.3861,1.3854,1.428,1.4555,1.4708,1.5074,1.5525,1.5988,1.6144,1.6318,1.6522,1.6479,1.6436,1.6392,1.6175,1.6057,1.5969,1.5881,1.5824,1.5836,1.5925,1.6013,1.6107,1.6081,1.6014,1.5951,1.5971,1.5651,1.5162,1.9946,1.9803,1.9387,1.8547,1.8368,1.7988,1.7176,1.6802,1.6446,1.5991,1.5556,1.5127,1.4776,1.4392,1.3805,1.3048,1.2729,1.2318,1.1632,1.1404,1.1171,1.0764,1.0688,1.0688,1.0618,1.0618,1.0624,1.0624,1.0624,1.0624,1.0624,1.0624,1.0624,1.0624,1.0624,1.0624,1.0624,1.0624,1.0624,1.0624,1.0624,1.0414,1.0187,1.0134,0.9813,0.9329,0.9276,0.9263,0.9263,0.9263,0.9512,0.976,0.976,0.996,1.0194,1.0194,1.0401,1.0698,1.0698,1.0675,1.0708,1.0708,1.0708,1.0581,1.0094,0.991,0.985,0.985,0.9849,0.988,0.984,0.9866,0.988,0.9912,1.0003,1.0231,1.0581,1.0755,1.1073,1.159,1.1985,1.2508,1.3286,1.3594,1.3873,1.4214,1.446,1.4603,1.4438,1.4793,1.4956,1.4888,1.5211,1.557,1.6044,1.6188,1.6318,1.6522,1.6522,1.6479,1.6436,1.6392,1.6362,1.6244,1.62,1.62,1.62,1.6244,1.6318,1.6436,1.6522,1.6497,1.64,1.6573,1.6335,1.5963,1.9927,1.9273,1.8745,1.8604,1.8115,1.7755,1.7599,1.7148,1.6751,1.6507,1.6061,1.5576,1.5147,1.4673,1.4178,1.3723,1.3201,1.282,1.2577,1.19,1.1432,1.1396,1.115,1.0933,1.0807,1.0744,1.0744,1.0624,1.0624,1.0624,1.0624,1.0624,1.0624,1.0624,1.0624,1.0624,1.0624,1.0624,1.0624,1.0624,1.0624,1.0598,1.0474,1.0214,1.0067,0.9967,0.9713,0.9626,0.9626,0.9626,0.9813,1.006,1.006,1.0261,1.0501,1.0501,1.0708,1.0935,1.0935,1.1122,1.1309,1.1309,1.1309,1.1289,1.1209,1.0782,1.047,1.047,1.0483,1.0448,1.0474,1.0474,1.0524,1.0601,1.0781,1.1029,1.1399,1.1783,1.2116,1.2339,1.2828,1.3223,1.3422,1.3765,1.4043,1.4374,1.4629,1.4851,1.5091,1.5174,1.5374,1.5631,1.567,1.5804,1.6156,1.6318,1.6436,1.6522,1.6522,1.6522,1.6479,1.6436,1.6392,1.6362,1.6231,1.62,1.62,1.6318,1.6436,1.6522,1.6833,1.6993,1.7057,1.7097,1.7204,1.7303,1.9234,1.8894,1.8554,1.8291,1.8018,1.7833,1.7736,1.7472,1.7217,1.6811,1.6551,1.6211,1.5788,1.5166,1.4657,1.4258,1.3954,1.3596,1.3086,1.2723,1.2371,1.216,1.1682,1.1447,1.1382,1.108,1.0933,1.0877,1.0688,1.0624,1.0624,1.0624,1.0624,1.0681,1.0694,1.0758,1.0877,1.0898,1.0905,1.0891,1.0891,1.0821,1.0667,1.0532,1.0322,1.0074,0.9786,0.9786,0.9927,0.9927,1.012,1.0367,1.0367,1.0561,1.0802,1.0802,1.1009,1.1236,1.1236,1.1329,1.1423,1.1423,1.1423,1.1423,1.1423,1.1229,1.1028,1.1058,1.1059,1.1022,1.1055,1.1168,1.1166,1.1067,1.1361,1.1687,1.1824,1.2297,1.2801,1.3356,1.3767,1.4127,1.4412,1.4628,1.4919,1.5219,1.5497,1.5758,1.5807,1.6063,1.6227,1.6339,1.6267,1.6327,1.6643,1.6467,1.6436,1.6522,1.6522,1.6522,1.6522,1.6479,1.6479,1.6436,1.6392,1.6362,1.6392,1.6491,1.6577,1.6663,1.7002,1.7378,1.7787,1.7871,1.7946,1.7913]},{"header":{"parameterUnit":"m.s-1","parameterCategory":1,"la1":30.6,"la2":28.766,"lo1":-90.7593,"lo2":-88.6598,"dy":0.0162,"dx":0.0183,"nx":116,"ny":114,"refTime":"2023-05-22T00:00:00:Z","depth":0,"parameterNumber":3,"parameterNumberName":"V-component_of_WINDS"},"data":[0.0,0.0,0.0,0.0,0.0,0.0,0.0,0.0,0.0,0.0,0.0,0.0,0.0,0.0,0.0,0.0,0.0,0.0,0.0,0.0,0.0,0.0,0.0,0.0,0.0,0.0,0.0,0.0,0.0,0.0,0.0,0.0,0.0,0.0,0.0,0.0,0.0,0.0,0.0,0.0,0.0,0.0,0.0,0.0,0.0,0.0,0.0,0.0,0.0,0.0,0.0,0.0,0.0,0.0,0.0,0.0,0.0,0.0,0.0,0.0,0.0,0.0,0.0,0.0,0.0,0.0,0.0,0.0,0.0,0.0,0.0,0.0,0.0,0.0,0.0,0.0,0.0,0.0,0.0,0.0,0.0,0.0,0.0,0.0,0.0,0.0,0.0,0.0,0.0,0.0,0.0,0.0,0.0,0.0,0.0,0.0,0.0,0.0,0.0,0.0,0.0,0.0,0.0,0.0,0.0,0.0,0.0,0.0,0.0,0.0,0.0,0.0,0.0,0.0,0.0,0.0,0.0,0.0,0.0,0.0,0.0,0.0,0.0,0.0,0.0,0.0,0.0,0.0,0.0,0.0,0.0,0.0,0.0,0.0,0.0,0.0,0.0,0.0,0.0,0.0,0.0,0.0,0.0,0.0,0.0,0.0,0.0,0.0,0.0,0.0,0.0,0.0,0.0,0.0,0.0,0.0,0.0,0.0,0.0,0.0,0.0,0.0,0.0,0.0,0.0,0.0,0.0,0.0,0.0,0.0,0.0,0.0,0.0,0.0,0.0,0.0,0.0,0.0,0.0,0.0,0.0,0.0,0.0,0.0,0.0,0.0,0.0,0.0,0.0,0.0,0.0,0.0,0.0,0.0,0.0,0.0,0.0,0.0,0.0,0.0,0.0,0.0,0.0,0.0,0.0,0.0,0.0,0.0,0.0,0.0,0.0,0.0,0.0,0.0,0.0,0.0,0.0,0.0,0.0,0.0,0.0,0.0,0.0,0.0,0.0,0.0,0.0,0.0,0.0,0.0,0.0,0.0,0.0,0.0,0.0,0.0,0.0,0.0,0.0,0.0,0.0,0.0,0.0,0.0,0.0,0.0,0.0,0.0,0.0,0.0,0.0,0.0,0.0,0.0,0.0,0.0,0.0,0.0,0.0,0.0,0.0,0.0,0.0,0.0,0.0,0.0,0.0,0.0,0.0,0.0,0.0,0.0,0.0,0.0,0.0,0.0,0.0,0.0,0.0,0.0,0.0,0.0,0.0,0.0,0.0,0.0,0.0,0.0,0.0,0.0,0.0,0.0,0.0,0.0,0.0,0.0,0.0,0.0,0.0,0.0,0.0,0.0,0.0,0.0,0.0,0.0,0.0,0.0,0.0,0.0,0.0,0.0,0.0,0.0,0.0,0.0,0.0,0.0,0.0,0.0,0.0,0.0,0.0,0.0,0.0,0.0,0.0,0.0,0.0,0.0,0.0,0.0,0.0,0.0,0.0,0.0,0.0,0.0,0.0,0.0,0.0,0.0,0.0,0.0,0.0,0.0,0.0,0.0,0.0,0.0,0.0,0.0,0.0,0.0,0.0,0.0,0.0,0.0,0.0,0.0,0.0,0.0,0.0,0.0,0.0,0.0,0.0,0.0,0.0,0.0,0.0,0.0,0.0,0.0,0.0,0.0,0.0,0.0,0.0,0.0,0.0,0.0,0.0,0.0,0.0,0.0,0.0,0.0,0.0,0.0,0.0,0.0,0.0,0.0,0.0,0.0,0.0,0.0,0.0,0.0,0.0,0.0,0.0,0.0,0.0,0.0,0.0,0.0,0.0,0.0,0.0,0.0,0.0,0.0,0.0,0.0,0.0,0.0,0.0,0.0,0.0,0.0,0.0,0.0,0.0,0.0,0.0,0.0,0.0,0.0,0.0,0.0,0.0,0.0,0.0,0.0,0.0,0.0,0.0,0.0,0.0,0.0,0.0,0.0,0.0,0.0,0.0,0.0,0.0,0.0,0.0,0.0,0.0,0.0,0.0,0.0,0.0,0.0,0.0,0.0,0.0,0.0,0.0,0.0,0.0,0.0,0.0,0.0,0.0,0.0,0.0,0.0,0.0,0.0,0.0,0.0,0.0,0.0,0.0,0.0,0.0,0.0,0.0,0.0,0.0,0.0,0.0,0.0,0.0,0.0,0.0,0.0,0.0,0.0,0.0,0.0,0.0,0.0,0.0,0.0,0.0,0.0,0.0,0.0,0.0,0.0,0.0,0.0,0.0,0.0,0.0,0.0,0.0,0.0,0.0,0.0,0.0,0.0,0.0,0.0,0.0,0.0,0.0,0.0,0.0,0.0,0.0,0.0,0.0,0.0,0.0,0.0,0.0,0.0,0.0,0.0,0.0,0.0,0.0,0.0,0.0,0.0,0.0,0.0,0.0,0.0,0.0,0.0,0.0,0.0,0.0,0.0,0.0,0.0,0.0,0.0,0.0,0.0,0.0,0.0,0.0,0.0,0.0,0.0,0.0,0.0,0.0,0.0,0.0,0.0,0.0,0.0,0.0,0.0,0.0,0.0,0.0,0.0,0.0,0.0,0.0,0.0,0.0,0.0,0.0,0.0,0.0,0.0,0.0,0.0,0.0,0.0,0.0,0.0,0.0,0.0,0.0,0.0,0.0,0.0,0.0,0.0,0.0,0.0,0.0,0.0,0.0,0.0,0.0,0.0,0.0,0.0,0.0,0.0,0.0,0.0,0.0,0.0,0.0,0.0,0.0,0.0,0.0,0.0,0.0,0.0,0.0,0.0,0.0,0.0,0.0,0.0,0.0,0.0,0.0,0.0,0.0,0.0,0.0,0.0,0.0,0.0,0.0,0.0,0.0,0.0,0.0,0.0,0.0,0.0,0.0,0.0,0.0,0.0,0.0,0.0,0.0,0.0,0.0,0.0,0.0,0.0,0.0,0.0,0.0,0.0,0.0,0.0,0.0,0.0,0.0,0.0,0.0,0.0,0.0,0.0,0.0,0.0,0.0,0.0,0.0,0.0,0.0,0.0,0.0,0.0,0.0,0.0,0.0,0.0,0.0,0.0,0.0,0.0,0.0,0.0,0.0,0.0,0.0,0.0,0.0,0.0,0.0,0.0,0.0,0.0,0.0,0.0,0.0,0.0,0.0,0.0,0.0,0.0,0.0,0.0,0.0,0.0,0.0,0.0,0.0,0.0,0.0,0.0,0.0,0.0,0.0,0.0,0.0,0.0,0.0,0.0,0.0,0.0,0.0,0.0,0.0,0.0,0.0,0.0,0.0,0.0,0.0,0.0,0.0,0.0,0.0,0.0,0.0,0.0,0.0,0.0,0.0,0.0,0.0,0.0,0.0,0.0,0.0,0.0,0.0,0.0,0.0,0.0,0.0,0.0,0.0,0.0,0.0,0.0,0.0,0.0,0.0,0.0,0.0,0.0,0.0,0.0,0.0,0.0,0.0,0.0,0.0,0.0,0.0,0.0,0.0,0.0,0.0,0.0,0.0,0.0,0.0,0.0,0.0,0.0,0.0,0.0,0.0,0.0,0.0,0.0,0.0,0.0,0.0,0.0,0.0,0.0,0.0,0.0,0.0,0.0,0.0,0.0,0.0,0.0,0.0,0.0,0.0,0.0,0.0,0.0,0.0,0.0,0.0,0.0,0.0,0.0,0.0,0.0,0.0,0.0,0.0,0.0,0.0,0.0,0.0,0.0,0.0,0.0,0.0,0.0,0.0,0.0,0.0,0.0,0.0,0.0,0.0,0.0,0.0,0.0,0.0,0.0,0.0,0.0,0.0,0.0,0.0,0.0,0.0,0.0,0.0,0.0,0.0,0.0,0.0,0.0,0.0,0.0,0.0,0.0,0.0,0.0,0.0,0.0,0.0,0.0,0.0,0.0,0.0,0.0,0.0,0.0,0.0,0.0,0.0,0.0,0.0,0.0,0.0,0.0,0.0,0.0,0.0,0.0,0.0,0.0,0.0,0.0,0.0,0.0,0.0,0.0,0.0,0.0,0.0,0.0,0.0,0.0,0.0,0.0,0.0,0.0,0.0,0.0,0.0,0.0,0.0,0.0,0.0,0.0,0.0,0.0,0.0,0.0,0.0,0.0,0.0,0.0,0.0,0.0,0.0,0.0,0.0,0.0,0.0,0.0,0.0,0.0,0.0,0.0,0.0,0.0,0.0,0.0,0.0,0.0,0.0,0.0,0.0,0.0,0.0,0.0,0.0,0.0,0.0,0.0,0.0,0.0,0.0,0.0,0.0,0.0,0.0,0.0,0.0,0.0,0.0,0.0,0.0,0.0,0.0,0.0,0.0,0.0,0.0,0.0,0.0,0.0,0.0,0.0,0.0,0.0,0.0,0.0,0.0,0.0,0.0,0.0,0.0,0.0,0.0,0.0,0.0,0.0,0.0,0.0,0.0,0.0,0.0,0.0,0.0,0.0,0.0,0.0,0.0,0.0,0.0,0.0,0.0,0.0,0.0,0.0,0.0,0.0,0.0,0.0,0.0,0.0,0.0,0.0,0.0,0.0,0.0,0.0,0.0,0.0,0.0,0.0,0.0,0.0,0.0,0.0,0.0,0.0,0.0,0.0,0.0,0.0,0.0,0.0,0.0,0.0,0.0,0.0,0.0,0.0,0.0,0.0,0.0,0.0,0.0,0.0,0.0,0.0,0.0,0.0,0.0,0.0,0.0,0.0,0.0,0.0,0.0,0.0,0.0,0.0,0.0,0.0,0.0,0.0,0.0,0.0,0.0,0.0,0.0,0.0,0.0,0.0,0.0,0.0,0.0,0.0,0.0,0.0,0.0,0.0,0.0,0.0,0.0,0.0,0.0,0.0,0.0,0.0,0.0,0.0,0.0,0.0,0.0,0.0,0.0,0.0,0.0,0.0,0.0,0.0,0.0,0.0,0.0,0.0,0.0,0.0,0.0,0.0,0.0,0.0,0.0,0.0,0.0,0.0,0.0,0.0,0.0,0.0,0.0,0.0,0.0,0.0,0.0,0.0,0.0,0.0,0.0,0.0,0.0,0.0,0.0,0.0,0.0,0.0,0.0,0.0,0.0,0.0,0.0,0.0,0.0,0.0,0.0,0.0,0.0,0.0,0.0,0.0,0.0,0.0,0.0,0.0,0.0,0.0,0.0,0.0,0.0,0.0,0.0,0.0,0.0,0.0,0.0,0.0,0.0,0.0,0.0,0.0,0.0,0.0,0.0,0.0,0.0,0.0,0.0,0.0,0.0,0.0,0.0,0.0,0.0,0.0,0.0,0.0,0.0,0.0,0.0,0.0,0.0,0.0,0.0,0.0,0.0,0.0,0.0,0.0,0.0,0.0,0.0,0.0,0.0,0.0,0.0,0.0,0.0,0.0,0.0,0.0,0.0,0.0,0.0,0.0,0.0,0.0,0.0,0.0,0.0,0.0,0.0,0.0,0.0,0.0,0.0,0.0,0.0,0.0,0.0,0.0,0.0,0.0,0.0,0.0,0.0,0.0,0.0,0.0,0.0,0.0,0.0,0.0,0.0,0.0,0.0,0.0,0.0,0.0,0.0,0.0,0.0,0.0,0.0,0.0,0.0,0.0,0.0,0.0,0.0,0.0,0.0,0.0,0.0,0.0,0.0,0.0,0.0,0.0,0.0,0.0,0.0,0.0,0.0,0.0,0.0,0.0,0.0,0.0,0.0,0.0,0.0,0.0,0.0,0.0,0.0,0.0,0.0,0.0,0.0,0.0,0.0,0.0,0.0,0.0,0.0,0.0,0.0,0.0,0.0,0.0,0.0,0.0,0.0,0.0,0.0,0.0,0.0,0.0,0.0,0.0,0.0,0.0,0.0,0.0,0.0,0.0,0.0,0.0,0.0,0.0,0.0,0.0,0.0,0.0,0.0,0.0,0.0,0.0,0.0,0.0,0.0,0.0,0.0,0.0,0.0,0.0,0.0,0.0,0.0,0.0,0.0,0.0,0.0,0.0,0.0,0.0,0.0,0.0,0.0,0.0,0.0,0.0,0.0,0.0,0.0,0.0,0.0,0.0,0.0,0.0,0.0,0.0,0.0,0.0,0.0,0.0,0.0,0.0,0.0,0.0,0.0,0.0,0.0,0.0,-2.1735,0.0,0.0,0.0,0.0,0.0,0.0,0.0,0.0,0.0,0.0,0.0,0.0,0.0,0.0,0.0,0.0,0.0,0.0,0.0,0.0,0.0,0.0,0.0,0.0,0.0,0.0,0.0,0.0,0.0,0.0,0.0,0.0,0.0,0.0,0.0,0.0,0.0,0.0,0.0,-1.4921,-1.5027,-1.5056,-1.4624,-1.3954,-1.2998,0.0,0.0,0.0,0.0,0.0,0.0,0.0,0.0,0.0,0.0,0.0,0.0,0.0,0.0,0.0,0.0,0.0,0.0,0.0,0.0,0.0,0.0,0.0,0.0,0.0,0.0,0.0,0.0,0.0,0.0,0.0,0.0,0.0,0.0,0.0,0.0,0.0,0.0,0.0,0.0,0.0,0.0,0.0,0.0,0.0,0.0,0.0,0.0,0.0,0.0,0.0,0.0,0.0,0.0,0.0,0.0,0.0,0.0,0.0,0.0,0.0,0.0,0.0,0.0,0.0,0.0,0.0,0.0,0.0,0.0,0.0,-2.2178,0.0,0.0,0.0,0.0,0.0,0.0,0.0,0.0,0.0,0.0,0.0,0.0,0.0,0.0,0.0,0.0,0.0,0.0,0.0,0.0,0.0,0.0,0.0,0.0,0.0,0.0,0.0,0.0,0.0,0.0,0.0,0.0,0.0,0.0,0.0,-1.4105,-1.4365,-1.4651,-1.4811,-1.4873,-1.4808,-1.4429,-1.396,-1.348,-1.2861,0.0,0.0,0.0,0.0,0.0,0.0,0.0,0.0,0.0,0.0,0.0,0.0,0.0,0.0,0.0,0.0,0.0,0.0,0.0,0.0,0.0,0.0,0.0,0.0,0.0,0.0,0.0,0.0,0.0,0.0,0.0,0.0,0.0,0.0,0.0,0.0,0.0,0.0,0.0,0.0,0.0,0.0,0.0,0.0,0.0,0.0,0.0,0.0,0.0,0.0,0.0,0.0,0.0,0.0,0.0,0.0,0.0,0.0,0.0,0.0,0.0,0.0,0.0,0.0,-2.3854,-2.3841,-2.4046,-2.4014,-2.3807,-2.3568,-2.3241,-2.2859,0.0,0.0,0.0,0.0,0.0,0.0,0.0,0.0,0.0,0.0,0.0,0.0,0.0,0.0,0.0,0.0,0.0,0.0,0.0,0.0,0.0,0.0,0.0,-1.1652,-1.2164,-1.2174,0.0,0.0,0.0,0.0,0.0,0.0,0.0,-1.356,-1.3808,-1.4072,-1.4365,-1.4447,-1.4447,-1.4365,-1.4105,-1.3795,-1.348,-1.3163,-1.2768,-1.2354,0.0,0.0,0.0,0.0,0.0,0.0,0.0,0.0,0.0,0.0,0.0,0.0,0.0,0.0,0.0,0.0,0.0,0.0,0.0,0.0,0.0,0.0,0.0,0.0,0.0,0.0,0.0,0.0,0.0,0.0,0.0,0.0,0.0,0.0,0.0,0.0,0.0,0.0,0.0,0.0,0.0,-1.8232,-1.8897,0.0,0.0,0.0,0.0,0.0,0.0,0.0,0.0,0.0,0.0,0.0,0.0,0.0,0.0,-2.338,-2.4358,-2.4989,-2.5275,-2.5584,-2.5814,-2.5994,-2.6124,-2.6211,-2.6237,-2.6195,0.0,-2.3224,-2.3183,0.0,0.0,0.0,0.0,0.0,0.0,0.0,0.0,0.0,0.0,0.0,0.0,0.0,0.0,0.0,0.0,0.0,0.0,0.0,0.0,0.0,0.0,-1.1468,-1.1872,-1.1918,0.0,0.0,0.0,0.0,0.0,0.0,-1.3082,-1.3459,-1.3594,-1.3808,-1.4072,-1.4105,-1.4072,-1.396,-1.3762,-1.356,-1.3331,-1.3069,-1.2838,-1.2591,-1.2425,0.0,0.0,0.0,0.0,0.0,0.0,0.0,0.0,0.0,0.0,0.0,0.0,0.0,0.0,0.0,0.0,0.0,0.0,0.0,0.0,0.0,0.0,0.0,0.0,0.0,0.0,0.0,0.0,0.0,0.0,0.0,0.0,0.0,0.0,0.0,0.0,0.0,0.0,0.0,-1.8967,-1.9458,-2.0135,-2.0528,-2.0965,0.0,0.0,0.0,0.0,0.0,0.0,0.0,0.0,0.0,-2.3317,-2.392,-2.4434,-2.4813,-2.545,-2.5901,-2.62,-2.6423,-2.6628,-2.6747,-2.6916,-2.7007,-2.7043,-2.7042,-2.6469,-2.5539,-2.5257,-2.5125,-2.5059,0.0,0.0,0.0,0.0,0.0,-2.529,0.0,0.0,0.0,0.0,0.0,0.0,0.0,0.0,0.0,0.0,0.0,0.0,0.0,-1.0945,-1.138,-1.1612,-1.1645,0.0,0.0,0.0,0.0,0.0,0.0,-1.2873,-1.3254,-1.3391,-1.3594,-1.3808,-1.3775,-1.3695,-1.3581,-1.3412,-1.3242,-1.3057,-1.2908,-1.2803,-1.2745,-1.2745,-1.2827,-1.2932,0.0,0.0,0.0,0.0,0.0,0.0,0.0,0.0,0.0,0.0,0.0,0.0,0.0,0.0,0.0,0.0,0.0,0.0,0.0,0.0,0.0,0.0,0.0,0.0,0.0,0.0,0.0,0.0,0.0,0.0,0.0,0.0,0.0,0.0,0.0,0.0,0.0,-2.0255,-2.0628,-2.1207,-2.1498,-2.1917,0.0,0.0,0.0,0.0,0.0,0.0,-2.3641,-2.379,-2.4218,-2.5132,-2.5561,-2.593,-2.6206,-2.6667,-2.7043,-2.7352,-2.755,-2.7697,-2.7783,-2.7935,-2.8036,-2.8036,-2.8048,-2.8032,-2.7951,-2.7103,-2.6706,-2.6646,-2.6585,-2.6624,0.0,-2.6604,-2.6624,-2.6702,0.0,0.0,0.0,0.0,0.0,0.0,0.0,0.0,0.0,0.0,0.0,0.0,0.0,-1.0981,-1.1463,-1.1421,-1.1309,-1.1298,0.0,-1.1522,-1.1697,-1.2113,-1.2294,-1.2556,-1.2838,-1.322,-1.3459,-1.3514,-1.3459,-1.3369,-1.3232,-1.3012,-1.2873,-1.2709,-1.2698,-1.2733,-1.2803,-1.2862,-1.299,-1.3229,-1.3672,0.0,0.0,0.0,0.0,0.0,0.0,0.0,0.0,0.0,0.0,0.0,0.0,0.0,0.0,0.0,0.0,0.0,0.0,0.0,0.0,0.0,0.0,0.0,0.0,0.0,0.0,0.0,0.0,0.0,0.0,0.0,0.0,0.0,0.0,0.0,0.0,0.0,0.0,-2.1753,-2.2447,0.0,0.0,0.0,0.0,-2.4993,-2.5092,-2.5164,-2.5288,-2.5402,-2.56,-2.5828,-2.6802,-2.7409,-2.761,-2.8562,-2.9161,-2.936,-2.9569,-2.9727,-2.9839,-2.9923,-2.9999,-3.0037,-3.0041,-3.0013,-2.9798,-2.794,-2.7131,-2.706,-2.7063,-2.7063,-2.7063,-2.7063,-2.7027,-2.6991,0.0,0.0,0.0,0.0,0.0,0.0,0.0,0.0,0.0,0.0,0.0,0.0,0.0,-1.1082,-1.1384,-1.1206,-1.1195,-1.1223,-1.1233,-1.141,-1.1623,-1.1895,-1.2138,-1.2437,-1.2803,-1.2965,-1.3069,-1.3104,-1.3069,-1.315,-1.3338,-1.3252,-1.3285,-1.3353,-1.324,-1.3329,-1.3483,-1.3119,-1.3154,-1.3497,-1.3888,-1.4287,0.0,0.0,0.0,0.0,0.0,0.0,0.0,0.0,0.0,0.0,0.0,0.0,0.0,0.0,0.0,0.0,0.0,0.0,0.0,0.0,0.0,0.0,0.0,0.0,0.0,0.0,0.0,0.0,0.0,0.0,0.0,0.0,0.0,0.0,0.0,0.0,0.0,-2.4371,-2.474,0.0,-2.5361,-2.5386,-2.5499,-2.5835,-2.5907,-2.6213,-2.6778,-2.6892,-2.7245,-2.7871,-2.8874,-2.9474,-2.9628,-3.0109,-3.0434,-3.0579,-3.0219,-3.0113,-3.0218,-3.0829,-3.1136,-3.1194,-3.1712,-3.1916,-3.1851,-3.1111,-3.0079,-2.895,-2.8936,-2.8883,-2.8902,-2.8904,-2.8852,-2.8781,0.0,0.0,0.0,0.0,0.0,0.0,0.0,0.0,0.0,0.0,0.0,-1.0179,-1.036,-1.0949,-1.1233,-1.1044,-1.1071,-1.112,-1.112,-1.1298,-1.1511,-1.1796,-1.2113,-1.2437,-1.2803,-1.3009,-1.3142,-1.3178,-1.3289,-1.3409,-1.3617,-1.3501,-1.3509,-1.3593,-1.3483,-1.346,-1.3599,-1.4001,-1.4039,-1.3895,-1.4339,-1.4708,-1.4996,0.0,0.0,0.0,0.0,0.0,0.0,0.0,0.0,0.0,0.0,0.0,0.0,0.0,0.0,0.0,0.0,0.0,0.0,0.0,0.0,0.0,0.0,0.0,0.0,0.0,0.0,0.0,0.0,0.0,0.0,0.0,0.0,0.0,0.0,0.0,-2.5327,-2.5961,-2.6363,-2.6711,-2.7063,-2.7341,-2.7661,-2.8031,-2.8117,-2.8419,-2.9016,-2.9119,-2.9425,-3.003,-3.0714,-3.1138,-3.1278,-3.1449,-3.1591,-3.167,-3.1293,-3.1123,-3.1194,-3.1877,-3.2162,-3.217,-3.2704,-3.2942,-3.2936,-3.287,-3.2101,-3.0967,-3.0871,-3.0839,-3.0839,-3.0826,-3.0776,-3.0688,0.0,0.0,0.0,0.0,0.0,0.0,0.0,0.0,0.0,0.0,-0.9458,-1.0026,-0.9851,-1.0612,-1.1099,-1.093,-1.0891,-1.0995,-1.1185,-1.1185,-1.1373,-1.1782,-1.2197,-1.252,-1.2827,-1.3338,-1.3643,-1.3729,-1.4036,-1.4141,-1.4021,-1.3738,-1.3545,-1.3414,-1.3286,-1.3156,-1.3189,-1.5511,-1.5696,-1.4521,-1.5092,-1.5324,-1.5358,0.0,0.0,0.0,0.0,0.0,0.0,0.0,0.0,0.0,0.0,0.0,0.0,0.0,0.0,0.0,0.0,0.0,0.0,0.0,0.0,0.0,0.0,0.0,0.0,0.0,0.0,0.0,0.0,0.0,0.0,0.0,0.0,0.0,-2.6237,-2.6253,-2.6327,-2.6445,-2.7255,-2.8154,-2.9012,-2.9849,-3.0734,-3.1648,-3.1768,-3.1853,-3.1918,-3.1981,-3.2044,-3.2107,-3.2203,-3.2317,-3.2465,-3.2585,-3.2648,-3.2641,-3.2823,-3.2897,-3.2923,-3.3076,-3.3098,-3.3056,-3.3064,-3.3072,-3.3075,-3.3,-3.2974,-3.296,-3.2785,-3.2703,-3.2703,-3.2638,-3.2607,-3.2409,0.0,0.0,0.0,0.0,0.0,0.0,0.0,0.0,0.0,0.0,-0.9351,-0.9712,-1.0244,-1.0552,-1.0741,-1.0899,-1.1006,-1.1082,-1.112,-1.1309,-1.1623,-1.2077,-1.2305,-1.2698,-1.3301,-1.3458,-1.3724,-1.415,-1.411,-1.4222,-1.4378,-1.4101,-1.4024,-1.4126,-1.4205,-1.4194,-1.4238,-1.5483,-1.5992,-1.593,-1.6118,-1.6081,-1.5955,0.0,0.0,0.0,0.0,0.0,0.0,0.0,0.0,0.0,0.0,0.0,0.0,0.0,0.0,0.0,0.0,0.0,0.0,0.0,0.0,0.0,0.0,0.0,0.0,0.0,0.0,0.0,0.0,0.0,0.0,0.0,0.0,-2.8495,-2.8233,-2.8215,-2.8705,-3.006,-3.0502,-3.0813,-3.1142,-3.1448,-3.1717,-3.2047,-3.2106,-3.2202,-3.226,-3.2279,-3.2297,-3.2334,-3.301,-3.3403,-3.3492,-3.357,-3.3661,-3.3747,-3.3218,-3.301,-3.3076,-3.3749,-3.403,-3.4058,-3.4631,-3.4897,-3.4885,-3.4808,-3.4801,-3.4653,-3.3297,-3.2771,-3.2771,-3.2757,-3.2316,-3.1676,0.0,0.0,0.0,0.0,0.0,0.0,0.0,0.0,0.0,0.0,-0.9229,-0.9536,-0.9905,-1.031,-1.058,-1.072,-1.1041,-1.1233,-1.1271,-1.1586,-1.1906,-1.2258,-1.2602,-1.2984,-1.3493,-1.39,-1.4273,-1.4586,-1.4648,-1.4697,-1.4727,-1.445,-1.4327,-1.4326,-1.4351,-1.4457,-1.4596,-1.5431,-1.6193,-1.6821,-1.7009,-1.6916,-1.6584,-1.6024,-1.592,-1.6257,-1.7636,-1.8547,-1.9076,-1.9067,0.0,0.0,0.0,0.0,0.0,0.0,0.0,0.0,0.0,0.0,0.0,0.0,0.0,0.0,0.0,0.0,0.0,0.0,0.0,0.0,0.0,0.0,0.0,0.0,-3.0053,-3.0784,-3.1374,-3.0782,-3.0705,-3.1741,-3.2238,-3.2508,-3.263,-3.299,-3.3297,-3.3412,-3.3449,-3.3505,-3.3576,-3.3572,-3.3589,-3.3606,-3.4132,-3.4448,-3.4496,-3.4542,-3.4635,-3.4691,-3.4289,-3.4106,-3.4179,-3.4707,-3.493,0.0,-3.5403,-3.5591,-3.5547,-3.5534,-3.5493,0.0,0.0,0.0,0.0,0.0,-3.3298,-3.2428,0.0,0.0,0.0,0.0,0.0,0.0,0.0,0.0,0.0,0.0,0.0,-0.9395,-0.9238,-0.9982,-1.0497,-1.0534,-1.1049,-1.1442,-1.1586,-1.1943,-1.2245,-1.2531,-1.3043,-1.3466,-1.3712,-1.4562,-1.5025,-1.5097,-1.5377,-1.5379,-1.5108,-1.4754,-1.443,-1.4176,-1.4186,-1.4258,-1.4422,-1.53,-1.623,-1.7183,-1.7707,-1.7702,-1.7349,-1.6535,-1.643,-1.7103,-1.9814,-2.0607,-2.0352,-2.0362,0.0,0.0,0.0,0.0,0.0,0.0,0.0,0.0,0.0,0.0,0.0,0.0,0.0,0.0,0.0,0.0,0.0,0.0,0.0,0.0,0.0,0.0,0.0,0.0,-3.1563,-3.3148,-3.4945,-3.3788,-3.2707,-3.2705,-3.3388,-3.3845,-3.3809,-3.4528,-3.5022,-3.5129,-3.511,-3.5145,-3.5209,0.0,0.0,0.0,0.0,-3.5324,-3.5315,-3.5379,-3.5412,-3.5407,-3.5522,-3.5591,-3.5604,-3.5651,-3.5662,-3.5601,-3.5584,-3.556,-3.5502,-3.5501,-3.5493,-3.5493,-3.5493,-3.5493,-3.5493,-3.5412,-3.4802,0.0,0.0,0.0,0.0,0.0,0.0,0.0,0.0,0.0,0.0,-0.8822,-0.8929,-0.9113,-0.9335,-0.9533,-0.996,-1.0749,-1.0972,-1.1395,-1.2162,-1.2294,-1.2638,-1.3349,-1.347,-1.4007,-1.5016,-1.5101,-1.5362,-1.5799,-1.5599,-1.5379,-1.5108,-1.4651,-1.4291,-1.4067,-1.443,-1.4414,-1.4137,-1.4751,-1.5612,-1.6699,-1.7581,-1.8062,-1.8325,-1.8787,-1.9341,-2.0009,-2.0601,-2.078,-2.0686,-2.0685,-2.0878,-2.1103,-2.1103,-2.1229,0.0,0.0,0.0,0.0,0.0,0.0,0.0,0.0,0.0,0.0,0.0,0.0,0.0,0.0,0.0,0.0,0.0,0.0,0.0,-3.3677,-3.4262,-3.5133,-3.6844,-3.6805,-3.6558,-3.6385,-3.6576,-3.6464,-3.5818,-3.595,-3.585,-3.5302,-3.5261,-3.5277,-3.5285,-3.5285,0.0,-3.53,-3.535,-3.5383,-3.5379,-3.5446,-3.5488,-3.5489,0.0,0.0,-3.5604,-3.5616,-3.5616,-3.5604,-3.5528,-3.5515,-3.5502,-3.5501,-3.5493,-3.5493,-3.5493,-3.5493,-3.5493,-3.5412,-3.4841,-3.4045,0.0,0.0,0.0,0.0,0.0,0.0,0.0,0.0,0.0,0.0,-0.8971,-0.9062,-0.9226,-0.9462,-0.981,-1.0348,-1.0966,-1.171,-1.2555,-1.2591,-1.2938,-1.3668,-1.3949,-1.4514,-1.5377,-1.555,-1.5721,-1.5988,-1.5647,-1.5379,-1.5108,-1.4605,-1.4244,-1.4041,-1.4401,-1.4648,-1.4758,-1.5296,-1.6582,-1.8232,-1.9249,-1.9293,-1.8898,-1.969,-2.0316,-2.0801,-2.081,-2.0926,-2.1102,-2.1244,-2.143,-2.1582,-2.1748,-2.1799,-2.196,0.0,0.0,0.0,0.0,0.0,0.0,0.0,0.0,0.0,0.0,0.0,0.0,0.0,0.0,-3.0203,0.0,0.0,-3.4099,-3.4954,-3.5864,-3.691,-3.8171,-3.8376,-3.8187,-3.7623,-3.7622,-3.7487,-3.7085,-3.6736,-3.6364,-3.6044,-3.6006,-3.6002,-3.6008,-3.6411,-3.6661,-3.6661,-3.6675,-3.6709,-3.6709,-3.6724,-3.654,-3.6092,-3.6125,-3.5939,-3.556,-3.5572,-3.5591,-3.5547,-3.5515,-3.5502,-3.5495,-3.5507,-3.5493,-3.5493,-3.5493,-3.5493,-3.5493,-3.546,-3.5158,-3.4669,0.0,0.0,0.0,0.0,0.0,0.0,0.0,0.0,0.0,0.0,-0.9092,-0.9135,-0.9135,-0.9482,-0.9863,-1.0143,-1.1188,-1.2152,-1.2871,-1.2908,-1.3273,-1.4026,-1.446,-1.4965,-1.562,-1.5911,-1.6044,-1.6044,-1.5691,-1.5334,-1.5062,-1.4605,-1.4244,-1.3994,-1.4387,-1.4839,-1.54,-1.6261,-1.7661,-1.9387,-2.0609,-2.0316,-1.9214,-1.9921,-2.045,-2.0803,-2.0862,-2.1101,-2.1458,-2.184,-2.1994,-2.2107,-2.2368,-2.2485,-2.2652,-2.3239,-2.3252,0.0,0.0,0.0,0.0,0.0,0.0,0.0,0.0,-2.7786,-2.8335,-3.0152,-3.0689,-3.1268,-3.2638,-3.4308,-3.5545,-3.5768,-3.7086,-3.8367,-3.9243,-3.9375,-3.9109,-3.835,-3.8293,-3.8175,-3.7865,-3.7248,-3.6834,-3.6728,-3.6709,-3.6781,-3.6964,-3.7637,-3.8022,-3.8007,-3.8007,-3.8007,-3.8007,-3.8007,-3.7642,-3.6949,-3.7016,-3.6664,-3.6003,-3.6048,-3.6048,-3.5984,-3.5811,-3.5726,-3.5718,-3.5551,-3.5493,-3.5493,-3.5493,-3.5493,-3.5493,-3.5493,-3.546,-3.5316,0.0,0.0,0.0,0.0,0.0,0.0,0.0,0.0,0.0,0.0,0.0,0.0,0.0,0.0,-0.9941,-1.1125,-1.1895,-1.2597,-1.3285,-1.3323,-1.3839,-1.498,-1.4993,-1.5446,-1.6519,-1.6293,-1.62,-1.62,-1.5736,-1.5277,-1.4903,-1.4558,-1.4186,-1.3852,-1.4489,-1.4872,-1.515,-1.7092,-1.774,-1.7663,-1.937,-1.9778,-1.939,-1.9647,-2.0212,-2.0856,-2.1134,-2.1456,-2.1824,-2.2422,-2.2763,-2.2952,-2.301,-2.3157,-2.3454,-2.3802,-2.3988,-2.401,-2.3813,-2.4553,-2.5616,-2.6581,-2.6984,-2.7549,0.0,-2.9706,-3.0289,-3.2042,-3.3024,-3.3647,-3.3901,-3.53,-3.6699,-3.7466,-3.8415,-3.9346,-4.0223,-4.0389,-4.038,-4.0289,-4.0181,-3.9557,-3.8118,-3.7901,-3.7564,-3.6852,-3.6794,-3.7128,-3.7891,-3.8026,-3.805,-3.8007,-3.8007,-3.8007,-3.8007,-3.8007,-3.795,-3.7853,-3.7853,-3.7796,-3.7719,-3.7733,-3.7733,-3.768,-3.6892,-3.6565,-3.6507,-3.5795,-3.5493,-3.5493,-3.5493,-3.5493,-3.5493,-3.5493,-3.5493,-3.5474,0.0,0.0,0.0,0.0,0.0,0.0,0.0,0.0,0.0,0.0,0.0,0.0,0.0,-0.9552,-1.0005,-1.0908,-1.1691,-1.2372,-1.3019,-1.3334,-1.3886,-1.4758,-1.498,-1.5451,-1.6157,-1.6286,-1.6231,-1.6088,-1.5603,-1.5198,-1.4789,-1.4521,-1.4215,-1.3884,-1.4012,-1.4216,-1.4518,-1.6218,-1.7303,-1.7934,-1.863,-1.9264,-1.9717,-1.9411,-2.0031,-2.1144,-2.1456,-2.1898,0.0,-2.2971,-2.3336,-2.3539,-2.3692,-2.3949,-2.4221,-2.4324,-2.4348,-2.4464,-2.4894,-2.578,-2.6945,-2.8346,-2.8801,-2.9383,-3.1083,-3.1577,-3.2029,-3.3259,-3.3806,-3.4218,-3.475,-3.584,-3.6964,0.0,-3.8719,-3.9557,-4.0448,-4.0612,-4.0467,-4.0024,-3.9914,-3.9598,-3.8884,-3.7932,-3.7423,-3.7602,-3.7578,-3.7932,-3.8807,-3.9306,-3.9548,-3.9499,-3.9484,-3.945,-3.945,-3.945,-3.9219,-3.8757,-3.8757,-3.8488,-3.8007,-3.8007,-3.8007,-3.7988,-3.7603,-3.718,-3.668,-3.6353,-3.593,-3.5493,-3.5493,-3.5493,-3.5493,-3.5493,-3.5493,-3.5493,0.0,0.0,0.0,0.0,0.0,0.0,0.0,0.0,0.0,0.0,0.0,0.0,0.0,-0.9684,-1.0052,-1.0712,-1.1327,-1.2027,-1.2803,-1.3246,-1.3806,-1.4576,-1.4896,-1.5261,-1.5694,-1.6048,-1.6083,-1.5813,-1.5555,-1.5188,-1.473,-1.4403,-1.4073,-1.3662,-1.3551,-1.3631,-1.4039,-1.5448,-1.6767,-1.7922,-1.8143,-1.8783,-1.9488,-1.9246,-1.9779,-2.0794,-2.1726,-2.2409,-2.2992,-2.3522,-2.3898,-2.422,-2.4411,-2.4616,-2.4746,-2.4706,-2.4814,-2.5239,-2.6639,-2.7525,-2.8474,-3.0222,-3.0753,-3.1226,-3.2657,-3.3077,-3.3403,-3.4275,-3.4457,-3.4677,-3.5311,-3.6147,-3.6958,-3.7621,-3.8425,-3.9204,-3.9843,-3.9998,-3.9823,-3.9228,-3.8963,-3.8819,-3.8775,-3.7873,-3.7544,-3.8175,-3.8392,-3.8871,-3.9709,-4.0298,-4.0603,-4.0607,-4.0539,-4.0489,-4.0489,-4.0489,-4.02,-3.9623,-3.9623,-3.9296,-3.8681,-3.8681,-3.8681,-3.8681,-3.845,-3.8007,-3.7392,-3.6911,-3.6372,-3.5815,-3.5603,-3.5493,-3.5493,-3.5493,-3.5493,-3.5493,0.0,0.0,0.0,0.0,0.0,0.0,0.0,0.0,0.0,0.0,0.0,0.0,0.0,0.0,-1.0091,-1.082,-1.1091,-1.174,-1.2931,-1.3085,-1.3648,-1.4831,-1.4721,-1.4902,-1.5513,-1.5642,-1.5595,-1.5335,-1.5632,-1.5484,-1.4901,-1.4219,-1.3627,-1.311,-1.3125,-1.3401,-1.3981,-1.5329,-1.6158,-1.666,-1.7883,-1.8325,-1.8346,-1.9182,-1.9325,-1.9387,-2.1826,-2.3016,-2.3542,-2.4022,-2.4598,-2.5157,-2.5174,-2.5035,-2.4895,-2.4904,-2.5435,-2.6601,-2.9106,-2.9905,-3.0422,-3.2107,-3.2626,-3.2953,-3.3761,-3.4012,-3.4318,-3.5168,-3.5422,-3.5474,-3.5493,-3.6208,-3.6799,-3.6832,-3.7578,-3.817,-3.8264,-3.833,-3.8364,-3.8336,-3.7644,-3.7164,0.0,-3.7822,-3.8277,-3.8297,-3.9032,-3.982,-4.0616,-4.061,-4.0593,-4.0607,-4.0539,-4.0489,-4.0489,-4.0489,-4.0489,-4.045,-4.045,-4.045,-4.0412,-4.0412,-4.0412,-4.0373,-3.9604,-3.9238,-3.9084,-3.7411,-3.6699,-3.6603,-3.5815,-3.5493,-3.5493,-3.5493,-3.5493,-3.5493,0.0,0.0,0.0,0.0,0.0,0.0,0.0,0.0,0.0,0.0,0.0,0.0,0.0,0.0,0.0,0.0,-1.0778,-1.1344,-1.1836,-1.2691,-1.3365,-1.3811,-1.439,-1.48,-1.4889,-1.5057,-1.5176,-1.5169,-1.4535,-1.4081,-1.3838,-1.329,-1.2813,-1.2413,-1.2201,-1.2266,-1.264,-1.3617,-1.4517,-1.5319,-1.6479,-1.7377,-1.8042,-1.8477,-1.901,-1.9573,0.0,-2.03,-2.1152,-2.4085,-2.5216,-2.5381,-2.5275,-2.5183,-2.519,-2.5735,-2.7279,-2.9031,-2.9909,-3.1006,-3.2163,-3.3302,-3.3633,-3.3887,-3.4736,-3.499,-3.4941,-3.4666,-3.4609,-3.4468,-3.3891,-3.4052,-3.4648,-3.5816,-3.6257,-3.6864,-3.8102,-3.8307,-3.8151,-3.7572,-3.7778,0.0,0.0,0.0,0.0,-3.833,-3.9111,-3.9946,-4.0787,-4.0725,-4.0662,-4.0593,-4.0569,-4.0539,-4.0489,-4.0489,-4.0489,-4.0489,-4.0489,-4.0489,-4.0489,-4.0489,-4.0489,-4.0469,-4.02,-3.9777,-3.92,-3.8046,-3.7219,-3.6622,-3.5815,-3.5493,-3.5493,-3.5493,-3.5493,-3.5493,0.0,0.0,0.0,0.0,0.0,0.0,0.0,0.0,0.0,0.0,0.0,0.0,0.0,0.0,0.0,0.0,0.0,-1.0818,-1.1188,-1.2051,-1.2751,-1.327,-1.3847,-1.4238,-1.438,-1.467,-1.4714,-1.4546,-1.3778,-1.3181,-1.2775,-1.22,-1.18,-1.1528,-1.1431,-1.1587,-1.1956,-1.2699,-1.3674,-1.4777,-1.5919,-1.6928,-1.7817,-1.828,-1.8908,0.0,-1.9136,-1.9286,-2.0303,-2.4231,-2.5278,-2.4949,-2.5278,-2.5518,-2.597,-2.7409,-2.8982,-3.0484,-3.1424,-3.2486,-3.3522,-3.4375,-3.4601,-3.4754,-3.5311,-3.5229,-3.4872,-3.4314,-3.3949,-3.3564,-3.3006,-3.2947,-3.3361,-3.4508,-3.4999,-3.5621,-3.6792,-3.7272,-3.7408,-3.717,-3.7637,-3.7887,0.0,0.0,0.0,-3.8857,-3.9621,-4.0306,-4.0868,-4.0761,-4.0668,-4.0602,-4.0603,-4.0573,-4.0489,-4.0489,-4.0489,-4.0489,-4.0489,-4.0489,-4.0489,-4.0489,-4.0489,-4.0489,-4.0489,-4.02,-3.9642,-3.8469,-3.768,-3.7046,-3.5949,-3.5493,-3.5493,-3.5493,-3.5493,-3.5493,0.0,0.0,0.0,0.0,0.0,0.0,0.0,0.0,0.0,0.0,0.0,0.0,0.0,0.0,0.0,0.0,0.0,0.0,-1.0973,-1.1188,-1.1867,-1.3149,-1.305,-1.3253,-1.3906,-1.4337,-1.4145,-1.3373,-1.3286,-1.2702,-1.1703,-1.0942,-1.052,-1.0434,-1.0807,-1.1301,-1.1873,-1.253,-1.3604,-1.4917,-1.6074,-1.6916,-1.7599,-1.8518,-1.8992,-1.9188,-1.9581,-2.0019,-2.0929,-2.4418,-2.4869,-2.4157,-2.523,-2.6137,-2.7267,-2.9697,-3.0497,-3.1133,-3.3607,-3.4276,-3.4481,-3.5348,-3.5534,-3.5488,-3.5449,-3.4795,-3.416,-3.4026,-3.3333,-3.2737,-3.266,0.0,-3.2844,-3.2943,-3.3781,-3.4442,-3.4508,-3.5314,-3.6226,0.0,0.0,0.0,0.0,0.0,0.0,-3.9869,0.0,-4.0898,-4.0907,-4.0773,-4.0668,-4.0602,-4.0617,-4.0573,-4.0504,-4.0504,-4.0489,-4.0489,-4.0489,-4.0489,-4.0489,-4.0489,-4.0489,-4.0489,-4.0489,-4.0469,-4.0296,-3.8661,-3.7969,-3.7777,-3.6142,-3.5493,-3.5493,-3.5493,-3.5493,-3.5493,0.0,0.0,0.0,0.0,0.0,0.0,0.0,0.0,0.0,0.0,0.0,0.0,0.0,0.0,0.0,0.0,0.0,0.0,-1.004,-1.0658,-1.1209,-1.1717,-1.2111,-1.2568,-1.3084,-1.2649,-1.2177,-1.1773,-1.1274,-1.0495,-0.9453,-0.9215,-0.9179,-0.9247,-0.944,-0.996,-1.0765,-1.1636,-1.2719,-1.3986,-1.5261,-1.6376,-1.737,-1.8307,-1.8993,-1.9532,-1.986,-2.0171,-2.0815,-2.3466,-2.5129,-2.6157,-2.645,-2.7964,-2.9776,-3.038,-3.1893,-3.3654,-3.4894,-3.5244,-3.5432,-3.6267,-3.5984,-3.5335,-3.4693,-3.432,-3.3602,-3.1751,-3.1142,-3.0585,-2.9329,-2.9685,-3.0404,-3.111,-3.252,0.0,-3.4484,-3.5332,0.0,-3.716,-3.7808,-3.8537,-3.9445,-4.0281,0.0,0.0,-4.0908,-4.0945,-4.0887,-4.0868,-4.0792,-4.0668,-4.0668,-4.0626,-4.0496,-4.0504,-4.0489,-4.0489,-4.0489,-4.0489,-4.0489,-4.0489,-4.0489,-4.0489,-4.0489,-4.0162,-3.9508,-3.843,-3.7623,-3.693,-3.5911,-3.5493,-3.5493,-3.5493,-3.5493,-3.5493,0.0,0.0,0.0,0.0,0.0,0.0,0.0,0.0,0.0,0.0,0.0,0.0,0.0,0.0,0.0,0.0,0.0,0.0,0.0,-1.0007,-1.0592,-1.1186,-1.1512,-1.1854,-1.216,-1.1733,-1.1333,-1.097,-1.0078,-0.9322,-0.8733,-0.8477,-0.8362,-0.833,-0.8431,-0.8867,-0.9624,-1.0566,-1.169,0.0,0.0,-1.5429,-1.6635,-1.7824,-1.8689,-1.9344,-1.999,-2.0791,-2.1751,-2.3091,-2.5049,-2.6977,-2.7346,-2.8982,-3.0885,-3.1572,-3.3048,-3.4709,-3.5882,-3.5916,-3.5813,-3.6639,-3.5868,-3.4905,-3.479,-3.3981,-3.2885,-3.1705,-3.0067,-2.8557,-2.7616,-2.8095,-2.8937,0.0,0.0,0.0,-3.3846,-3.4808,-3.5997,-3.7663,-3.8271,-3.9039,-4.0299,-4.0845,-4.1097,0.0,-4.1047,-4.0974,-4.0957,-4.0917,-4.0848,-4.0742,-4.0732,-4.0668,-4.0559,-4.0515,-4.0519,-4.0539,-4.0504,-4.0489,-4.0489,-4.0489,-4.0489,-4.0489,0.0,-4.0027,-3.9219,-3.8354,-3.7488,-3.6622,-3.5815,-3.5493,-3.5493,-3.5493,-3.5493,-3.5493,0.0,0.0,0.0,0.0,0.0,0.0,0.0,0.0,0.0,0.0,0.0,0.0,0.0,0.0,0.0,0.0,0.0,0.0,0.0,0.0,-0.9944,-1.0917,-1.0996,-1.1054,-1.1173,-1.1164,-1.0901,-1.0425,-0.9319,-0.876,-0.8675,-0.8119,-0.7774,-0.7544,-0.7633,-0.7991,-0.8615,-0.9592,-1.0789,-1.2108,-1.3289,-1.4497,-1.5766,0.0,-1.8203,-1.8954,-2.0035,-2.1523,-2.3001,-2.3076,-2.4866,-2.7199,-2.7952,-2.9565,-3.1432,-3.2888,-3.3952,-3.503,-3.6597,-3.6319,-3.5822,-3.6547,-3.5543,-3.4487,-3.4962,-3.3588,-3.2204,-3.2146,-2.9387,-2.6952,-2.6806,-2.7295,-2.8049,-2.8992,-3.0005,-3.1313,-3.3044,-3.4105,-3.5662,-3.8297,-3.8593,-3.9264,-4.0952,-4.1108,-4.1103,-4.1091,-4.1052,-4.1013,-4.0993,-4.0941,-4.0878,-4.0798,-4.08,-4.0739,-4.0621,-4.0559,-4.0545,-4.0588,-4.0539,-4.0504,-4.0504,-4.0504,-4.0523,-4.0489,0.0,0.0,-3.9065,-3.818,-3.7315,-3.6469,-3.5776,-3.5493,-3.5493,-3.5493,-3.5493,-3.5493,0.0,0.0,0.0,0.0,0.0,0.0,0.0,0.0,0.0,0.0,-0.6637,-0.6937,0.0,0.0,0.0,0.0,0.0,0.0,0.0,0.0,0.0,-0.9695,-0.9829,-0.9931,-1.0071,-0.9912,-0.9525,-0.8872,-0.8495,-0.8029,-0.7497,-0.7014,-0.6739,-0.6718,-0.6947,-0.7543,-0.8417,-0.9526,-1.082,-1.2193,-1.3501,-1.4738,-1.5869,-1.6809,0.0,0.0,-2.0097,-2.1575,-2.2994,-2.3004,-2.5226,-2.7998,-2.8144,-3.0386,-3.2999,-3.3225,-3.4425,-3.5866,-3.6817,-3.6453,-3.5795,-3.5892,-3.5629,-3.49,-3.3167,-3.2775,-3.1965,-2.9225,-2.7742,-2.6645,-2.5759,-2.6304,-2.7208,-2.8073,-2.9625,-3.1313,-3.3044,-3.4105,-3.5662,-3.8297,-3.8602,-3.9273,-4.1015,-4.113,0.0,0.0,0.0,0.0,-4.0994,-4.0986,-4.0932,-4.08,-4.0807,-4.0781,-4.0778,-4.07,-4.064,-4.0607,-4.0593,-4.0579,-4.0573,-4.0573,-4.0539,-4.045,0.0,0.0,-3.8161,-3.7276,-3.6449,-3.5699,-3.5551,-3.5493,-3.5493,-3.5493,-3.5493,-3.5493,0.0,0.0,0.0,0.0,0.0,0.0,0.0,-0.5804,-0.5787,-0.5795,-0.592,-0.6106,-0.6337,-0.6413,0.0,0.0,0.0,0.0,0.0,0.0,0.0,0.0,0.0,0.0,-0.9328,-0.9212,-0.8919,-0.8452,0.0,-0.7589,-0.6948,-0.6443,-0.6144,-0.5974,-0.6233,-0.6658,-0.7267,-0.8307,-0.9701,-1.1266,-1.2283,-1.3522,-1.4837,0.0,0.0,0.0,-2.0113,-2.1265,-2.2396,-2.284,-2.471,-2.7007,-2.7957,-3.0,-3.2214,-3.3099,-3.4238,-3.5515,-3.6805,-3.6484,-3.5926,-3.65,-3.5688,-3.4633,-3.4139,-3.2754,-3.0623,-2.7196,-2.6233,-2.5857,-2.5386,-2.5698,-2.6311,-2.7185,-2.8466,-2.9953,-3.1699,-3.3156,-3.4839,-3.6986,-3.8055,-3.9119,-4.0391,-4.0898,-4.1147,0.0,0.0,0.0,-4.1042,-4.1045,-4.1011,-4.0965,-4.0888,-4.0849,-4.0843,-4.08,-4.0745,-4.0688,-4.0668,-4.064,-4.0646,-4.0583,-4.0303,-3.9846,0.0,0.0,-3.7296,-3.6873,-3.6238,-3.5493,-3.5493,-3.5493,-3.5493,-3.5493,-3.5493,-3.5493,0.0,0.0,0.0,0.0,0.0,0.0,0.0,-0.5428,-0.5404,-0.5392,-0.5214,-0.5201,-0.5494,-0.5605,-0.5783,0.0,0.0,0.0,0.0,0.0,0.0,0.0,0.0,0.0,0.0,0.0,0.0,-0.8315,-0.783,0.0,0.0,0.0,0.0,0.0,-0.5592,-0.5844,-0.618,-0.7138,-0.851,0.0,0.0,-1.2322,0.0,0.0,0.0,0.0,0.0,-2.0803,-2.1798,-2.2494,-2.3756,-2.536,-2.7169,-2.916,-3.1067,-3.2449,-3.3555,-3.4637,-3.6008,-3.5827,-3.5456,-3.6234,-3.5123,-3.3887,-3.4046,-3.162,-2.8579,-2.5851,-2.5274,-2.5244,-2.5292,-2.5361,-2.5693,-2.6569,-2.7501,-2.8716,-3.045,-3.2109,-3.384,-3.5776,-3.7216,-3.8533,-3.9785,-4.0527,0.0,0.0,0.0,0.0,-4.1108,-4.1091,-4.111,-4.1096,-4.1003,-4.0952,-4.0946,-4.0868,-4.0837,-4.0812,-4.0764,-4.063,-4.0443,-4.0318,-3.9813,-3.9008,0.0,0.0,0.0,-3.6507,-3.6084,-3.5493,-3.5493,-3.5493,-3.5493,-3.5493,-3.5493,-3.5493,0.0,0.0,0.0,0.0,0.0,0.0,0.0,-0.5151,-0.5055,-0.5055,-0.4654,-0.4451,-0.459,-0.4777,-0.5048,0.0,0.0,0.0,0.0,0.0,0.0,0.0,0.0,0.0,0.0,0.0,0.0,-0.805,-0.7511,0.0,0.0,0.0,0.0,0.0,0.0,-0.5564,-0.5991,-0.6917,0.0,0.0,0.0,0.0,0.0,0.0,0.0,0.0,0.0,-2.033,-2.1707,-2.1793,-2.2444,-2.3559,-2.5377,-2.8183,-3.0834,-3.0996,-3.2205,-3.3526,-3.3629,-3.3599,-3.3437,-3.3056,-3.3167,-3.2571,-2.9505,-2.7326,-2.5832,-2.5388,-2.5331,-2.5351,-2.5321,-2.5361,-2.5693,-2.6569,-2.7501,-2.8716,-3.045,-3.1583,-3.3158,-3.5698,-3.6142,-3.7205,-3.9668,-3.9961,0.0,0.0,0.0,0.0,0.0,-4.1094,-4.1096,-4.1089,-4.1089,-4.1085,-4.1085,-4.1027,-4.0954,-4.0897,-4.0867,-4.0447,-3.9611,-3.9611,-3.9045,-3.8084,0.0,0.0,0.0,-3.5911,-3.5584,-3.5493,-3.5493,-3.5493,-3.5493,-3.5493,-3.5493,-3.5493,0.0,0.0,0.0,0.0,0.0,0.0,-0.5081,-0.5036,-0.4979,-0.4902,-0.4328,-0.399,-0.4162,-0.4317,-0.4567,0.0,0.0,0.0,0.0,0.0,0.0,0.0,0.0,0.0,0.0,0.0,-0.8213,-0.782,-0.7285,0.0,0.0,0.0,0.0,0.0,0.0,-0.5048,-0.5425,-0.6395,0.0,0.0,0.0,0.0,0.0,0.0,0.0,0.0,0.0,0.0,-2.0341,-2.136,-2.1951,-2.2489,-2.3691,-2.5361,-2.7306,-2.9405,-3.0886,-3.1943,-3.244,-3.2582,-3.2411,-3.1651,-3.1646,-3.0886,-2.7398,-2.524,-2.4075,-2.4339,-2.4394,-2.4408,-2.4543,-2.5032,-2.5511,-2.5867,-2.6722,-2.7738,-2.8961,-3.0399,-3.2093,-3.4186,-3.5359,0.0,0.0,0.0,0.0,0.0,0.0,0.0,0.0,-4.0542,-4.1097,-4.1094,-4.11,-4.1111,-4.1089,-4.1078,-4.1025,-4.096,-4.0263,-3.9791,-3.9518,-3.8631,-3.7916,-3.7327,0.0,0.0,0.0,-3.5643,-3.5501,-3.5493,-3.5493,-3.5493,-3.5493,-3.5493,-3.5493,-3.5493,0.0,0.0,0.0,0.0,0.0,-0.5119,-0.4915,-0.4908,-0.4895,-0.4818,-0.4205,-0.3834,-0.3904,-0.4011,-0.4242,-0.4704,0.0,0.0,0.0,0.0,0.0,0.0,0.0,0.0,0.0,0.0,-0.8033,-0.7637,-0.7047,-0.6413,0.0,0.0,-0.4505,-0.4086,0.0,0.0,0.0,0.0,0.0,0.0,0.0,0.0,0.0,0.0,0.0,0.0,0.0,0.0,0.0,0.0,0.0,-2.1127,-2.1945,-2.2777,-2.4077,-2.7351,-2.8924,-2.981,-3.0697,-3.0945,-3.0759,-2.9991,-2.9538,-2.8552,-2.5736,-2.3897,-2.2927,-2.3456,-2.352,-2.3587,-2.4021,-2.4626,-2.5134,-2.5385,-2.6204,-2.7115,-2.7997,-2.9454,-3.1051,-3.281,0.0,-3.5662,0.0,0.0,0.0,0.0,0.0,0.0,0.0,-3.9719,-4.0435,-4.0589,-4.06,-4.0516,-4.0352,-4.0184,-4.0067,-4.0,-3.9351,-3.8992,-3.8827,-3.7783,-3.7035,0.0,0.0,0.0,0.0,-3.5528,-3.5522,-3.5501,-3.5501,-3.5488,-3.5493,-3.5493,-3.5493,-3.5493,0.0,0.0,0.0,0.0,0.0,0.0,-0.4884,-0.485,-0.481,-0.481,-0.4329,-0.3923,-0.3714,-0.3886,-0.4026,-0.4096,0.0,0.0,0.0,0.0,0.0,0.0,0.0,0.0,0.0,0.0,-0.7909,-0.749,-0.6829,-0.6083,-0.5275,-0.4552,-0.3881,-0.3323,0.0,0.0,0.0,0.0,0.0,0.0,0.0,0.0,0.0,0.0,0.0,0.0,0.0,0.0,0.0,0.0,0.0,0.0,0.0,-2.0837,-2.1976,-2.4723,-2.6152,-2.7039,-2.7993,-2.8238,-2.8104,-2.7573,-2.6585,-2.5431,-2.4195,-2.3037,-2.2357,-2.2894,-2.2952,-2.3149,-2.3948,-2.4149,-2.4482,-2.5348,-2.6219,-2.7122,-2.8079,-2.8953,-3.0154,0.0,0.0,-3.4119,-3.5859,0.0,0.0,0.0,0.0,0.0,0.0,-3.8613,-3.8866,-3.9408,-3.9427,-3.9168,-3.8626,-3.8021,-3.7702,-3.7648,-3.8234,-3.8026,-3.7136,-3.7121,0.0,0.0,0.0,0.0,0.0,-3.5604,-3.556,-3.5502,-3.5502,-3.5495,-3.5493,-3.5493,-3.5493,-3.5493,0.0,0.0,0.0,0.0,0.0,0.0,0.0,-0.4684,-0.4452,-0.4103,-0.3983,-0.3858,-0.3658,-0.3695,-0.3733,-0.3765,0.0,0.0,0.0,0.0,0.0,0.0,0.0,0.0,0.0,0.0,-0.7792,-0.7442,-0.6661,-0.5822,-0.4878,-0.4505,-0.3896,-0.3068,-0.2794,0.0,0.0,0.0,0.0,0.0,0.0,0.0,0.0,0.0,0.0,0.0,0.0,0.0,0.0,0.0,0.0,0.0,0.0,0.0,0.0,-2.1015,-2.3195,-2.5031,-2.5363,-2.5507,-2.5507,-2.5375,-2.4625,-2.3826,-2.3439,-2.2602,-2.1954,-2.2094,-2.208,-2.2327,-2.3139,-2.3777,-2.4501,-2.5352,-2.5763,-2.63,-2.7195,-2.8062,0.0,-3.0993,-3.3027,-3.4739,0.0,0.0,0.0,0.0,0.0,0.0,0.0,0.0,-3.7441,-3.8808,-3.8847,-3.8769,-3.8591,-3.841,-3.8305,-3.8271,-3.7878,-3.7492,-3.7157,-3.6553,0.0,0.0,0.0,0.0,0.0,-3.5604,-3.5589,-3.556,-3.556,-3.5534,-3.5509,-3.5509,-3.5501,-3.5493,0.0,0.0,0.0,0.0,0.0,0.0,0.0,-0.4549,-0.428,-0.3871,-0.3811,-0.3756,-0.3602,-0.3569,-0.3565,-0.3565,0.0,0.0,0.0,0.0,0.0,0.0,0.0,0.0,0.0,-0.8091,-0.7869,-0.7462,-0.6592,-0.5552,-0.4342,-0.413,-0.3403,-0.2267,-0.159,0.0,0.0,0.0,0.0,0.0,0.0,0.0,-1.5397,0.0,0.0,0.0,0.0,0.0,0.0,0.0,0.0,0.0,0.0,0.0,0.0,0.0,-1.993,-2.1713,-2.3187,-2.365,-2.3756,-2.3848,-2.3244,-2.2608,-2.2611,-2.1935,-2.1294,-2.1254,-2.1255,-2.1579,-2.2726,-2.3385,-2.4148,-2.5337,-2.5562,-2.5906,-2.6807,0.0,0.0,-3.1042,0.0,0.0,0.0,0.0,0.0,0.0,0.0,0.0,0.0,0.0,-3.6504,-3.7578,-3.7617,-3.7617,-3.7617,-3.7616,-3.7613,-3.7608,-3.7077,-3.6797,-3.6723,0.0,0.0,0.0,0.0,0.0,0.0,-3.5679,-3.5657,-3.5651,-3.562,-3.5577,-3.5521,-3.5515,-3.5489,-3.5501,0.0,0.0,0.0,0.0,0.0,0.0,0.0,0.0,-0.4215,-0.4026,-0.3821,-0.3686,-0.3602,-0.3532,-0.3467,-0.3467,0.0,0.0,0.0,0.0,0.0,0.0,0.0,0.0,0.0,-0.8251,-0.808,-0.7676,-0.6614,-0.5339,-0.3908,-0.3469,-0.2498,-0.1081,0.0403,0.0,0.0,0.0,0.0,0.0,0.0,0.0,0.0,0.0,0.0,0.0,0.0,0.0,0.0,0.0,0.0,0.0,0.0,0.0,0.0,0.0,0.0,0.0,0.0,-2.235,-2.2559,-2.2693,-2.22,-2.1717,-2.1703,-2.1077,0.0,-2.0506,-2.0496,-2.1009,-2.2698,-2.3014,-2.3573,-2.5323,-2.5604,-2.5909,0.0,-2.7649,0.0,0.0,-3.2804,0.0,0.0,0.0,0.0,0.0,0.0,0.0,0.0,0.0,0.0,-3.5996,-3.5996,-3.5996,-3.5996,-3.5996,-3.5996,-3.5996,-3.5994,-3.6007,-3.5996,0.0,0.0,0.0,0.0,0.0,0.0,-3.5704,-3.564,-3.5514,-3.5454,-3.5461,-3.5504,-3.5444,-3.5457,-3.5502,0.0,0.0,0.0,0.0,0.0,0.0,0.0,0.0,0.0,0.0,-0.3886,-0.3728,-0.341,-0.3307,-0.3241,0.0,0.0,0.0,0.0,0.0,0.0,0.0,0.0,0.0,0.0,-0.8175,-0.8284,-0.8293,-0.6831,-0.5755,-0.5054,-0.2994,-0.1826,-0.123,0.4253,0.6552,0.0,0.0,0.0,0.0,0.0,0.0,0.0,0.0,0.0,0.0,-1.4919,-1.4738,0.0,0.0,0.0,0.0,0.0,0.0,0.0,0.0,-1.5294,-1.5836,-1.7612,0.0,-1.9773,-1.9966,-2.0415,-2.0811,0.0,-2.0642,-2.0506,-2.0497,-2.0494,-2.1032,-2.2754,-2.3076,-2.3638,-2.532,-2.5637,-2.5742,-2.5968,0.0,0.0,-3.1792,0.0,0.0,0.0,0.0,0.0,0.0,0.0,0.0,0.0,0.0,0.0,-3.5993,-3.5993,-3.5995,-3.5996,-3.5996,-3.5996,-3.5996,-3.5996,-3.5995,-3.5995,-3.6001,0.0,0.0,0.0,0.0,-3.4873,-3.4892,-3.4439,-3.3798,-3.377,-3.4139,-3.4676,-3.4665,-3.5025,-3.5502,0.0,0.0,0.0,0.0,0.0,0.0,0.0,0.0,0.0,0.0,0.0,0.0,0.0,0.0,0.0,0.0,0.0,0.0,0.0,0.0,0.0,0.0,0.0,0.0,-0.8042,-0.8671,-0.9333,-1.0055,-0.8282,-0.6219,-0.393,0.0364,0.3241,0.4937,0.9395,1.1475,0.0,0.0,0.0,0.0,-1.4206,0.0,0.0,0.0,0.0,0.0,-1.4616,-1.439,0.0,-1.3828,-1.3534,-1.3244,0.0,0.0,0.0,0.0,-1.3905,-1.4258,-1.5095,-1.6669,-1.8116,-1.835,-1.9137,-1.9873,-1.9906,-2.0241,-2.0549,-2.0552,-2.0551,-2.1076,-2.2789,-2.3101,-2.3654,-2.5367,-2.5682,0.0,0.0,0.0,-2.9459,-3.1246,0.0,0.0,0.0,0.0,0.0,0.0,0.0,0.0,0.0,0.0,-3.48,0.0,-3.4812,-3.519,-3.5996,-3.5996,-3.5996,-3.5996,-3.5996,-3.5781,-3.5391,-3.5407,0.0,0.0,0.0,0.0,-3.4057,-3.4047,-3.3725,-3.325,-3.3262,-3.3494,-3.3848,-3.3809,-3.4309,-3.4986,0.0,0.0,0.0,0.0,0.0,0.0,0.0,0.0,0.0,0.0,0.0,0.0,0.0,0.0,0.0,0.0,0.0,0.0,0.0,0.0,0.0,0.0,0.0,-0.8024,-0.8463,-0.9676,-1.0921,-1.2183,-1.0523,-0.7251,-0.2397,0.4298,0.9583,1.3553,1.4954,1.5433,0.0,0.0,0.0,0.0,-1.2585,0.0,0.0,0.0,0.0,0.0,0.0,0.0,0.0,-1.3294,-1.2947,-1.2633,-1.2439,0.0,0.0,0.0,0.0,0.0,-1.3487,-1.5103,-1.6782,-1.7265,-1.823,-1.91,-1.9172,-1.992,-2.0583,-2.0605,-2.0586,-2.1094,-2.2793,-2.3105,-2.3669,-2.5405,0.0,0.0,-2.7944,-2.881,-2.9629,0.0,0.0,0.0,0.0,0.0,0.0,0.0,0.0,0.0,0.0,0.0,0.0,-3.3392,-3.3392,-3.4107,-3.5585,-3.5605,-3.5605,-3.5605,-3.5605,-3.5215,-3.4492,-3.4492,0.0,0.0,0.0,0.0,-3.3204,-3.3193,-3.3093,-3.2912,-3.2914,-3.296,-3.3002,-3.2945,-3.3471,-3.4204,0.0,0.0,0.0,0.0,0.0,0.0,0.0,0.0,0.0,0.0,0.0,0.0,0.0,0.0,0.0,0.0,0.0,0.0,0.0,0.0,0.0,0.0,-0.7434,-0.8513,-0.9687,-1.1615,-1.2876,-1.3421,-1.3471,-1.0103,-0.3473,0.4952,1.2602,1.9322,1.952,1.7947,1.5077,0.0,0.0,0.0,0.0,0.0,0.0,0.0,0.0,0.0,0.0,0.0,0.0,-1.2732,-1.2364,-1.2014,-1.1861,0.0,0.0,0.0,0.0,0.0,-1.3039,-1.3752,-1.4655,-1.5989,-1.7675,-1.9051,-1.9169,-1.9887,-2.0527,-2.0583,-2.0552,-2.104,-2.277,-2.3104,-2.3653,-2.5347,0.0,-2.6203,0.0,0.0,0.0,0.0,0.0,0.0,0.0,0.0,0.0,0.0,0.0,0.0,0.0,0.0,0.0,-3.3403,-3.3403,-3.3532,-3.3805,-3.38,-3.3806,-3.3806,-3.3806,-3.3729,-3.3594,-3.3594,-3.3535,0.0,0.0,-3.2975,-3.2299,-3.2299,-3.1864,-3.1188,-3.1187,-3.1587,-3.2182,-3.2162,-3.2652,-3.3393,0.0,0.0,0.0,0.0,0.0,0.0,0.0,0.0,0.0,0.0,0.0,0.0,0.0,0.0,0.0,0.0,0.0,0.0,0.0,0.0,0.0,-0.6713,-0.7865,-0.9309,-1.1054,-1.2475,-1.4191,-1.6186,-1.5286,-1.1693,-0.5452,0.5377,1.3931,2.0233,2.0301,1.8157,1.4173,0.9799,0.5151,-0.0073,0.0,0.0,0.0,0.0,0.0,0.0,0.0,0.0,0.0,0.0,-1.1903,-1.1549,-1.1415,0.0,0.0,0.0,0.0,0.0,-1.2508,-1.3058,-1.3719,-1.4768,-1.6635,-1.8279,-1.8449,-1.953,-2.0507,-2.0543,-2.0528,-2.1023,-2.2738,-2.3052,-2.3582,-2.5265,0.0,-2.6669,0.0,0.0,0.0,0.0,0.0,0.0,0.0,0.0,0.0,0.0,0.0,0.0,0.0,0.0,0.0,0.0,-3.1943,-3.1953,-3.1995,-3.1991,-3.2478,-3.3408,-3.3408,-3.3156,-3.271,-3.2693,-3.2461,-3.2051,0.0,-3.1814,-3.144,-3.1457,-3.1196,-3.0794,-3.0807,-3.1028,-3.1408,-3.1845,-3.2163,-3.258,0.0,0.0,0.0,0.0,0.0,0.0,0.0,0.0,0.0,0.0,0.0,0.0,0.0,0.0,0.0,0.0,0.0,0.0,0.0,0.0,-0.6228,-0.7141,-0.8376,-0.9966,-1.1981,-1.3181,-1.5235,-1.8202,-1.6922,-1.2978,-0.6369,0.5186,1.3789,1.9587,1.9898,1.7874,1.3767,0.6436,0.1768,-0.1333,0.0,0.0,0.0,0.0,0.0,0.0,0.0,0.0,0.0,0.0,0.0,0.0,0.0,0.0,0.0,-1.1015,-1.1247,-1.152,-1.2046,-1.2611,-1.3242,-1.3845,-1.5797,-1.7606,-1.7834,-1.9231,-2.0508,-2.0503,-2.0494,-2.1016,-2.2697,-2.332,0.0,-2.5291,-2.6045,0.0,0.0,0.0,0.0,0.0,0.0,0.0,0.0,0.0,0.0,0.0,0.0,0.0,0.0,0.0,0.0,0.0,-3.0685,-3.0716,-3.0784,-3.0784,-3.146,-3.2787,-3.2787,-3.2436,-3.1794,-3.1805,-3.1461,-3.0878,-3.0898,-3.0898,-3.0898,-3.0897,-3.0873,-3.0825,-3.0825,-3.0819,-3.0859,-3.1479,-3.1751,-3.2066,0.0,0.0,0.0,0.0,0.0,0.0,0.0,0.0,0.0,0.0,0.0,0.0,0.0,0.0,0.0,0.0,0.0,0.0,0.0,0.0,-0.6794,-0.7598,-0.8817,-1.0275,-1.2034,-1.4116,-1.6075,-1.7944,-1.878,-1.4289,-0.4682,0.3882,1.171,1.8638,1.927,1.7956,1.4855,0.8077,0.2122,-0.3177,-0.7611,0.0,0.0,0.0,0.0,0.0,0.0,0.0,0.0,0.0,0.0,0.0,0.0,0.0,-1.0632,-1.0705,-1.092,-1.1233,-1.1717,-1.2282,-1.2903,-1.3556,-1.5591,-1.7485,-1.7752,-1.9202,-2.0507,-2.049,-2.0503,-2.1002,-2.2687,-2.4264,-2.5364,-2.5472,-2.5498,0.0,0.0,0.0,0.0,0.0,0.0,0.0,0.0,0.0,0.0,0.0,0.0,0.0,0.0,0.0,0.0,0.0,0.0,-3.0695,-3.0697,-3.0711,-3.0792,-3.0981,-3.0981,-3.095,-3.0888,-3.0897,-3.086,-3.0804,-3.0878,-3.0898,-3.0898,-3.0898,-3.0897,-3.0894,-3.0894,-3.0847,-3.0804,-3.0799,-3.1294,-3.2105,0.0,0.0,0.0,0.0,0.0,0.0,0.0,0.0,0.0,0.0,0.0,0.0,0.0,0.0,0.0,0.0,0.0,0.0,0.0,0.0,-0.7826,-0.8546,-0.9642,-1.1076,-1.287,-1.468,-1.667,-1.8831,-1.7653,-1.3612,-0.6843,0.0156,0.7094,1.3849,1.6977,1.6739,1.3536,0.6816,0.1461,-0.289,-0.7224,-1.0161,0.0,0.0,0.0,0.0,0.0,0.0,0.0,0.0,-1.1452,-1.1192,-1.0991,-1.0801,-1.0656,-1.0681,-1.0801,-1.1015,-1.1431,-1.1968,-1.2555,-1.3276,-1.5221,-1.7089,-1.7568,-1.9115,-2.0451,-2.0481,-2.0503,-2.1001,-2.2699,0.0,-2.5432,-2.5432,0.0,0.0,0.0,0.0,0.0,0.0,0.0,0.0,0.0,0.0,0.0,0.0,0.0,0.0,0.0,0.0,0.0,0.0,0.0,-2.9846,-2.9897,-3.0389,-3.0664,-3.0743,-3.0784,-3.0793,-3.0794,-3.0798,-3.0807,-3.0801,-3.0829,-3.0857,-3.0898,-3.0898,-3.0898,-3.0898,-3.0896,-3.0868,-3.0794,-3.0763,-3.0939,-3.1294,0.0,0.0,0.0,0.0,0.0,0.0,0.0,0.0,0.0,0.0,0.0,0.0,0.0,0.0,0.0,0.0,0.0,0.0,0.0,-0.8452,-0.8924,-0.9578,-1.0545,-1.1863,-1.3639,-1.4966,-1.6775,-1.9078,-1.7202,-1.4031,-0.9583,-0.3736,0.2273,0.829,1.1916,1.2382,1.006,0.3986,-0.0528,-0.4009,-0.8069,-1.0793,0.0,0.0,0.0,0.0,0.0,0.0,0.0,0.0,-1.171,-1.1437,-1.1256,-1.1062,-1.0873,-1.0801,-1.0825,-1.0968,-1.1302,-1.1809,-1.2376,-1.3075,-1.497,-1.6818,-1.7382,-1.8982,-2.0383,-2.0488,-2.0703,-2.124,-2.2377,-2.3925,0.0,0.0,0.0,0.0,0.0,0.0,0.0,0.0,0.0,0.0,0.0,0.0,0.0,0.0,0.0,0.0,0.0,0.0,0.0,0.0,0.0,0.0,-2.8966,-2.9528,-2.9826,-2.9889,-2.9933,-3.0247,-3.0779,-3.0789,-3.0654,-3.0381,-3.0409,-3.0284,-3.0097,-3.0371,-3.0644,-3.0898,-3.0897,-3.0852,-3.0799,-3.0798,-3.0769,-3.0859,0.0,0.0,0.0,0.0,0.0,0.0,0.0,0.0,0.0,0.0,0.0,0.0,0.0,0.0,0.0,0.0,0.0,0.0,-1.004,-0.9888,-1.0078,-1.0689,-1.1423,-1.2593,-1.4262,-1.4967,-1.6313,-1.8387,-1.7992,-1.5993,-1.2408,-0.7455,-0.2501,0.2294,0.3772,0.4512,0.4323,-0.0295,-0.4036,-0.7158,-1.0411,-1.2322,-1.3278,0.0,0.0,0.0,0.0,0.0,0.0,0.0,-1.2138,-1.1867,-1.1666,-1.146,-1.1285,-1.1062,-1.1062,-1.1155,-1.1353,-1.1839,-1.2423,-1.2969,-1.4849,-1.6702,-1.7179,-1.8853,-2.0336,-2.0464,-2.1145,-2.1702,-2.1696,-2.3069,0.0,0.0,0.0,0.0,0.0,0.0,0.0,0.0,0.0,0.0,0.0,0.0,0.0,0.0,0.0,0.0,0.0,0.0,0.0,0.0,0.0,0.0,-2.7995,-2.807,-2.8097,-2.8097,-2.8097,-2.8994,-3.0678,-3.0745,-3.0302,-2.9499,-2.9564,-2.9109,-2.8375,-2.9238,-3.0098,-3.0879,-3.0879,-3.0836,-3.078,-3.0791,-3.0786,-3.092,0.0,0.0,0.0,0.0,0.0,0.0,0.0,0.0,0.0,0.0,0.0,0.0,0.0,0.0,0.0,0.0,0.0,0.0,-1.1624,-1.1365,-1.1436,-1.1938,-1.2445,-1.3126,-1.4006,-1.531,-1.6598,-1.7831,-1.7915,-1.6579,-1.3896,-1.0445,-0.6652,-0.27,-0.1179,-0.0763,-0.1439,-0.4923,-0.8226,-1.1293,-1.3721,-1.4664,-1.4652,0.0,0.0,0.0,0.0,0.0,0.0,0.0,0.0,0.0,-1.2368,-1.2128,-1.19,-1.1695,-1.1557,-1.1505,-1.1696,-1.2024,-1.2439,-1.3021,-1.4401,-1.5913,-1.7034,-1.8866,-2.0342,-2.0468,-2.1186,-2.1765,-2.1707,-2.2565,0.0,0.0,0.0,0.0,0.0,0.0,0.0,0.0,0.0,0.0,0.0,0.0,0.0,0.0,0.0,0.0,0.0,0.0,0.0,0.0,0.0,0.0,-2.716,-2.7776,-2.8094,-2.8094,-2.8105,-2.8365,-2.8877,-2.8946,-2.8827,-2.8583,-2.8658,-2.8535,-2.8328,-2.8573,-2.8848,-2.9062,-2.9062,-2.9432,-2.9952,-2.9962,-3.0313,-3.0828,0.0,0.0,0.0,0.0,0.0,0.0,0.0,0.0,0.0,0.0,0.0,0.0,0.0,0.0,0.0,0.0,0.0,0.0,0.0,0.0,-1.2864,-1.2923,-1.3287,-1.3736,-1.424,-1.528,-1.6117,-1.6687,-1.7761,-1.733,-1.5508,-1.3336,-1.0771,-0.7919,-0.7193,-0.6992,-0.743,-1.0319,-1.2759,-1.4805,-1.6301,-1.6618,-1.6182,0.0,0.0,0.0,0.0,0.0,0.0,0.0,0.0,0.0,-1.3041,-1.2813,-1.2555,-1.2321,-1.2133,-1.202,-1.2118,-1.2345,-1.2695,-1.3244,-1.435,-1.568,-1.713,-1.8963,-2.0406,-2.0488,-2.0926,-2.1269,-2.1231,-2.1886,0.0,0.0,0.0,0.0,0.0,0.0,0.0,0.0,0.0,0.0,0.0,0.0,0.0,0.0,0.0,0.0,0.0,0.0,0.0,0.0,0.0,0.0,-2.628,-2.6817,-2.7115,-2.7115,-2.7116,-2.7122,-2.714,-2.7871,-2.8019,-2.7663,-2.739,-2.7462,-2.7783,-2.7773,-2.7988,-2.8301,-2.8301,-2.8613,-2.9078,-2.9084,-2.9588,-3.0282,0.0,0.0,0.0,0.0,0.0,0.0,0.0,0.0,0.0,0.0,-1.4242,0.0,0.0,0.0,0.0,0.0,0.0,0.0,0.0,0.0,-1.4259,-1.371,-1.3997,-1.4368,-1.4801,-1.4992,-1.5165,-1.5294,-1.7513,-1.8043,-1.6967,-1.6033,-1.4698,-1.3123,-1.358,-1.3557,-1.3325,-1.5847,-1.7195,-1.7648,-1.8199,-1.8142,-1.7666,-1.6853,0.0,0.0,0.0,0.0,0.0,0.0,0.0,0.0,-1.3678,-1.3498,-1.3226,-1.2973,-1.2795,-1.2678,-1.2606,-1.2809,-1.316,-1.3536,-1.4607,-1.5934,-1.7271,-1.8973,-2.0297,-2.0367,-2.0389,-2.0414,-2.0489,-2.1103,0.0,0.0,0.0,0.0,0.0,0.0,0.0,0.0,0.0,0.0,0.0,0.0,0.0,0.0,0.0,0.0,0.0,0.0,0.0,0.0,0.0,0.0,-2.5511,-2.5562,-2.5607,0.0,-2.5599,-2.5595,-2.5668,-2.724,-2.7532,-2.6747,-2.601,-2.6142,-2.6872,-2.6875,-2.7344,-2.8066,-2.8066,-2.8105,-2.8179,-2.8179,-2.8681,-2.9396,0.0,0.0,0.0,0.0,0.0,0.0,0.0,0.0,0.0,0.0,0.0,0.0,0.0,0.0,0.0,0.0,0.0,0.0,0.0,0.0,-1.4986,-1.4332,-1.4571,-1.4794,-1.4942,-1.5054,-1.5139,-1.5215,-1.7031,-1.7558,-1.6929,-1.7482,-1.7469,-1.7014,-1.7276,-1.7415,-1.7554,-1.8815,-1.9295,-1.921,-1.923,-1.8779,-1.8049,-1.7769,-1.678,0.0,0.0,0.0,0.0,0.0,0.0,0.0,-1.4247,-1.4075,-1.3882,-1.3718,-1.3544,-1.3372,-1.329,-1.3403,-1.3621,-1.3922,-1.5083,-1.625,-1.6651,-1.7641,-1.8671,-1.9404,-1.9551,-1.9758,-2.0375,0.0,0.0,0.0,0.0,0.0,0.0,0.0,0.0,0.0,0.0,0.0,0.0,0.0,0.0,0.0,0.0,0.0,0.0,0.0,0.0,0.0,0.0,-2.5581,-2.5591,-2.558,-2.56,0.0,-2.561,-2.563,-2.5688,-2.6072,-2.6135,-2.5944,-2.5781,-2.5806,-2.5986,-2.5976,-2.6094,-2.6269,-2.6264,-2.6673,-2.7281,-2.7284,-2.7791,-2.8571,0.0,0.0,0.0,0.0,0.0,0.0,0.0,0.0,0.0,0.0,0.0,0.0,0.0,0.0,0.0,0.0,0.0,0.0,0.0,0.0,0.0,-1.4744,-1.4822,-1.4938,-1.5003,-1.5026,-1.5273,-1.5728,-1.7015,-1.7493,-1.7217,-1.8479,-1.8993,-1.8883,-1.9051,-1.9224,-1.9406,-1.9958,-2.01,-1.9925,-1.9717,-1.9311,-1.8748,-1.8221,-1.7457,-1.6646,-1.6269,0.0,0.0,0.0,0.0,0.0,0.0,0.0,-1.4419,-1.4276,-1.4113,-1.3979,-1.394,-1.3979,-1.4107,-1.4418,-1.5131,-1.5796,-1.5902,-1.6327,-1.6968,-1.7864,-1.8393,-1.8808,0.0,0.0,0.0,0.0,0.0,0.0,0.0,0.0,0.0,0.0,0.0,0.0,0.0,0.0,0.0,0.0,0.0,0.0,0.0,0.0,0.0,0.0,-2.4817,-2.5033,-2.5035,-2.5434,-2.5654,-2.5651,-2.5651,-2.5671,-2.5693,-2.5701,-2.5701,-2.5693,-2.5703,-2.5707,-2.5709,-2.5702,-2.5703,-2.5699,-2.5691,-2.5982,-2.6373,-2.6373,-2.6899,-2.7643,0.0,0.0,0.0,0.0,0.0,0.0,0.0,0.0,0.0,0.0,0.0,0.0,0.0,0.0,0.0,0.0,0.0,0.0,0.0,0.0,0.0,0.0,-1.5103,-1.5045,-1.4971,-1.5093,-1.5516,-1.623,-1.7221,-1.7674,-1.7632,-1.9124,-1.9745,-1.9645,-1.9757,-1.9881,-1.9986,-2.0155,-2.0189,-2.0106,-1.9847,-1.9544,-1.915,-1.841,-1.7939,-1.7599,-1.7111,-1.6968,-1.7008,-1.7195,0.0,0.0,0.0,0.0,-1.5019,-1.4738,-1.4595,-1.4487,-1.4492,-1.4516,-1.4551,-1.4684,-1.487,-1.5004,-1.5074,-1.5148,-1.5418,-1.6275,-1.7164,0.0,0.0,0.0,0.0,0.0,0.0,0.0,0.0,0.0,0.0,0.0,0.0,0.0,0.0,0.0,0.0,0.0,0.0,0.0,0.0,0.0,-2.2948,-2.3097,-2.3797,-2.4188,-2.4188,-2.5033,-2.5485,-2.5488,-2.5625,-2.5703,-2.5703,-2.5697,-2.5705,-2.5701,-2.5709,-2.5693,-2.5696,-2.5703,-2.5701,-2.5709,-2.5707,-2.5701,-2.5693,-2.571,-2.6115,-2.67,0.0,0.0,0.0,0.0,0.0,0.0,0.0,0.0,0.0,0.0,-1.8177,0.0,0.0,0.0,0.0,0.0,0.0,0.0,-1.8696,0.0,0.0,-1.5979,-1.5875,-1.5527,-1.4841,-1.545,-1.5843,-1.5947,-1.7408,-1.8084,-1.8059,-1.9294,-1.9848,-1.9782,-1.9855,-1.9893,-1.9928,-1.9939,-1.9906,-1.9825,-1.9553,-1.8953,-1.8236,-1.8568,-1.7872,-1.6774,-1.7363,-1.7252,-1.6853,-1.7046,-1.7135,0.0,0.0,0.0,-1.5953,-1.5166,-1.4923,-1.4914,-1.4914,-1.4966,-1.4839,-1.42,-1.4091,-1.4178,-1.4231,-1.4267,-1.4509,0.0,0.0,0.0,0.0,0.0,0.0,0.0,0.0,0.0,0.0,0.0,0.0,0.0,0.0,0.0,0.0,0.0,0.0,0.0,0.0,0.0,0.0,-2.1959,-2.2318,-2.3072,-2.3213,-2.3278,-2.3262,-2.4141,-2.4568,-2.4578,-2.5339,-2.5707,-2.5698,-2.5703,-2.5697,-2.5703,-2.5703,-2.5703,-2.5702,-2.5701,-2.57,-2.5698,-2.5705,-2.5696,-2.5693,-2.571,-2.5726,-2.5878,0.0,0.0,0.0,0.0,0.0,0.0,0.0,0.0,0.0,0.0,0.0,-1.9535,0.0,0.0,0.0,-1.9915,-2.005,-1.9753,-1.8866,-1.8383,-1.7704,-1.6755,-1.6612,-1.6365,-1.5931,-1.6202,-1.6531,-1.6913,-1.7468,-1.7936,-1.832,-1.8712,-1.9103,-1.9465,-1.9495,-1.9515,-1.9507,-1.9514,-1.9476,-1.9372,-1.8798,-1.8213,-1.7687,-1.7485,-1.7205,-1.6993,-1.7399,-1.7678,-1.7896,-1.8126,-1.7987,-1.7653,-1.7498,0.0,0.0,0.0,-1.575,-1.5692,-1.5229,-1.4797,-1.4401,-1.4046,-1.3632,-1.3341,-1.3354,-1.3332,-1.3538,-1.4357,0.0,0.0,0.0,0.0,0.0,0.0,0.0,0.0,0.0,0.0,0.0,0.0,0.0,0.0,0.0,0.0,0.0,0.0,0.0,0.0,-2.1107,-2.1128,-2.1305,-2.1699,-2.2148,0.0,-2.2366,-2.3242,-2.3896,-2.4349,-2.5227,-2.5648,-2.564,-2.5644,-2.5668,-2.5693,-2.5693,-2.5691,-2.5707,-2.5707,-2.5705,-2.5701,-2.5704,-2.5697,-2.5694,-2.5663,-2.5639,-2.5651,0.0,0.0,0.0,0.0,0.0,0.0,0.0,0.0,0.0,0.0,0.0,0.0,0.0,0.0,0.0,0.0,-2.0272,-2.0022,-1.9304,-1.9116,-1.8585,-1.7566,-1.7362,-1.7114,-1.6757,-1.6827,-1.708,-1.7554,-1.7524,-1.7764,-1.8246,-1.7969,-1.8136,-1.8653,-1.8827,-1.889,-1.8912,-1.8959,-1.8846,-1.859,-1.7984,-1.7372,-1.6764,-1.6342,-1.6343,-1.6655,-1.7096,-1.7681,-1.8323,-1.8734,-1.8544,-1.8143,-1.8199,-1.7881,0.0,0.0,0.0,-1.6233,-1.5438,-1.4622,-1.3946,-1.3752,-1.3083,-1.2465,-1.2446,0.0,-1.2575,0.0,0.0,0.0,0.0,0.0,0.0,0.0,0.0,0.0,0.0,0.0,0.0,0.0,0.0,0.0,0.0,0.0,0.0,0.0,0.0,0.0,-2.0604,-2.0604,-2.0583,-2.058,-2.1157,-2.1472,-2.1464,-2.2329,-2.3251,-2.4277,-2.4924,-2.5365,-2.5571,-2.5576,-2.56,-2.5671,-2.5678,-2.5665,-2.5665,-2.5665,-2.5678,-2.5675,-2.5679,-2.5671,-2.5667,-2.5609,-2.5576,-2.557,0.0,0.0,0.0,0.0,0.0,0.0,0.0,0.0,0.0,0.0,0.0,0.0,-2.1276,-2.1321,-2.1151,-2.043,-2.0396,-2.0353,-2.0227,-2.004,-1.9484,-1.849,-1.817,0.0,-1.6634,-1.7045,-1.722,-1.7124,-1.7582,-1.7698,-1.7555,-1.728,-1.7142,-1.715,-1.7787,-1.8104,-1.8181,-1.8295,-1.7981,-1.7382,-1.7345,-1.6378,-1.5003,-1.5606,-1.5324,-1.484,-1.6311,-1.6907,-1.7112,-1.7959,-1.8348,-1.8378,-1.7887,-1.7833,-1.7871,0.0,0.0,0.0,-1.5497,-1.4659,-1.3826,-1.3053,-1.2219,-1.1548,-1.1493,0.0,0.0,0.0,0.0,0.0,0.0,0.0,0.0,0.0,0.0,0.0,0.0,0.0,0.0,0.0,0.0,0.0,0.0,0.0,0.0,0.0,0.0,0.0,-2.0599,-2.0599,-2.0575,-2.0503,-2.0549,-2.0574,-2.0566,-2.1362,-2.2596,-2.4213,-2.4244,-2.4709,-2.5499,-2.5506,-2.5538,-2.5613,-2.5604,-2.5601,-2.5601,-2.5601,-2.5601,-2.5621,-2.5619,-2.561,-2.5605,-2.5523,-2.5518,-2.5495,0.0,0.0,0.0,0.0,0.0,0.0,0.0,0.0,0.0,0.0,0.0,0.0,0.0,-2.2346,-2.2339,-2.2154,-2.159,-2.121,-2.1146,-2.0469,-1.9821,-1.9291,-1.9012,-1.8593,-1.8017,-1.8018,-1.787,-1.7624,-1.7569,-1.7408,-1.7175,-1.6901,-1.6722,-1.6696,-1.7174,-1.7449,-1.7609,-1.7825,-1.7538,-1.6932,-1.6561,-1.5729,-1.471,-1.4435,-1.4399,-1.4631,-1.5553,0.0,-1.6703,-1.749,-1.7825,-1.791,-1.7857,-1.8019,-1.8192,-1.7876,-1.7002,-1.6111,-1.5938,-1.4932,-1.3725,-1.2884,-1.205,-1.1277,-1.0641,-1.0449,-1.0618,0.0,0.0,0.0,0.0,0.0,0.0,0.0,0.0,0.0,0.0,0.0,0.0,0.0,0.0,0.0,0.0,0.0,0.0,0.0,0.0,0.0,-2.0545,-2.0547,-2.0522,-2.0499,-2.0465,-2.0434,-2.0432,-2.1236,-2.194,-2.2539,-2.3613,-2.43,-2.4625,-2.5182,-2.5441,-2.5476,-2.5525,-2.5568,-2.5595,-2.5595,-2.5595,-2.559,-2.5554,-2.5543,-2.5531,-2.5505,-2.5468,-2.5437,0.0,0.0,0.0,0.0,0.0,0.0,0.0,0.0,0.0,0.0,0.0,0.0,0.0,0.0,-2.33,-2.3116,-2.2535,-2.2146,-2.2066,-2.1139,-2.0487,-2.0259,-1.9705,-1.9234,-1.8912,-1.8585,-1.8246,-1.7922,-1.7589,-1.7288,-1.7027,-1.6789,-1.6659,-1.6644,-1.6901,-1.7076,-1.7199,-1.7526,-1.7175,-1.637,-1.6033,-1.5279,-1.4297,-1.3749,-1.3939,-1.4579,0.0,0.0,0.0,-1.7073,-1.7304,-1.7342,-1.7478,-1.7821,-1.8114,-1.7844,-1.6999,-1.6156,-1.6064,-1.4912,-1.3564,-1.275,-1.1939,-1.1086,-1.0185,0.0,0.0,0.0,0.0,0.0,0.0,0.0,0.0,0.0,0.0,0.0,0.0,0.0,0.0,0.0,0.0,0.0,0.0,0.0,0.0,0.0,0.0,0.0,-2.0503,-2.0506,-2.0492,-2.0473,-2.039,-2.0371,-2.0366,-2.0873,-2.127,-2.1579,-2.299,-2.3818,-2.4135,-2.5001,-2.5404,-2.5393,-2.5456,-2.5503,-2.5577,-2.5577,-2.5577,-2.5551,-2.5492,-2.5478,-2.5464,-2.5476,-2.5423,-2.5378,0.0,0.0,0.0,0.0,0.0,0.0,0.0,0.0,0.0,-2.498,0.0,0.0,0.0,0.0,0.0,-2.3244,-2.3154,-2.3113,-2.3053,-2.2158,-2.1543,-2.1359,-2.0255,-1.9495,-1.915,-1.8662,-1.8273,-1.8005,-1.7612,-1.7296,-1.7109,-1.6917,-1.685,-1.6935,-1.706,-1.706,-1.696,-1.7415,-1.6845,-1.5656,-1.5865,-1.5072,-1.3787,-1.3705,-1.4041,0.0,-1.5224,-1.5735,0.0,-1.6709,0.0,0.0,0.0,-1.7197,-1.7603,-1.7207,-1.683,-1.6401,0.0,0.0,0.0,-1.2608,-1.1812,-1.0993,-1.0138,0.0,0.0,0.0,0.0,0.0,0.0,0.0,0.0,0.0,0.0,0.0,0.0,0.0,0.0,0.0,0.0,0.0,0.0,0.0,0.0,0.0,0.0,-2.0463,-2.0497,-2.0502,-2.0459,-2.0399,-2.0327,-2.0292,-2.0285,-2.023,-2.0625,-2.1462,-2.2354,-2.3217,-2.4091,-2.4965,-2.5369,-2.5406,-2.5406,-2.544,-2.5495,-2.5495,-2.5495,-2.5488,-2.5437,-2.5401,-2.5393,-2.5388,-2.5351,-2.5303,0.0,0.0,0.0,0.0,0.0,0.0,0.0,0.0,-2.4981,0.0,0.0,0.0,-2.5163,-2.5249,-2.5222,-2.5009,-2.4404,-2.4026,-2.4007,-2.3134,-2.2527,-2.2323,-2.1268,-2.0552,-2.027,-1.9233,-1.8533,-1.8235,-1.7902,-1.7676,-1.7532,-1.7429,-1.7412,-1.7489,-1.771,-1.7864,-1.7915,-1.7945,-1.7518,-1.6848,-1.7047,-1.6581,-1.5722,0.0,0.0,0.0,0.0,-1.6416,-1.6392,0.0,-1.6722,-1.6448,0.0,-1.6548,-1.6889,-1.7103,-1.6888,-1.6481,-1.6112,0.0,0.0,0.0,0.0,0.0,0.0,0.0,0.0,0.0,0.0,0.0,0.0,0.0,0.0,0.0,0.0,0.0,0.0,0.0,0.0,0.0,0.0,0.0,0.0,0.0,0.0,0.0,-1.9331,-1.9749,-2.039,-2.0372,-2.0321,-2.025,-2.0246,-2.0205,-2.0153,-2.019,-2.0333,-2.0573,-2.1444,-2.2315,-2.3198,-2.4015,-2.4736,-2.5332,-2.5379,-2.5416,-2.5434,-2.5432,-2.5432,-2.5432,-2.5406,-2.536,-2.5332,-2.5322,-2.5282,-2.522,0.0,0.0,0.0,0.0,0.0,0.0,-2.4994,-2.505,-2.513,0.0,0.0,0.0,-2.5576,-2.5645,-2.5691,-2.5698,-2.5249,-2.4931,-2.4935,-2.4101,-2.3509,-2.3338,-2.2315,-2.1635,-2.1376,-2.0523,-1.9774,-1.9089,-1.8813,-1.8468,-1.8027,-1.7967,-1.7975,-1.8083,-1.8323,-1.8516,-1.8646,-1.8664,-1.8253,-1.7574,-1.7736,0.0,0.0,-1.6635,-1.6715,0.0,0.0,0.0,-1.702,-1.7035,-1.6602,0.0,0.0,0.0,-1.6208,-1.6668,-1.6546,-1.6244,-1.5899,-1.5515,-1.4845,-1.3431,0.0,0.0,-1.1049,-1.0235,0.0,0.0,0.0,0.0,0.0,0.0,0.0,0.0,0.0,0.0,0.0,0.0,0.0,0.0,0.0,0.0,0.0,0.0,0.0,0.0,-1.8648,-1.9426,-2.0275,-2.0284,-2.0227,-2.0169,-2.0134,-2.0098,-2.0069,-2.0108,-2.0108,-2.0136,-2.1024,-2.1905,-2.2748,-2.3611,-2.4476,-2.5293,-2.5341,-2.5361,-2.5361,-2.5351,-2.5369,-2.5397,-2.538,-2.5332,-2.5302,-2.528,-2.5217,-2.5184,0.0,0.0,0.0,-2.5209,-2.5195,-2.5184,-2.5115,-2.5164,-2.5248,0.0,-2.5374,-2.5493,-2.5687,-2.5707,-2.5698,-2.5697,-2.5698,-2.5694,-2.5696,-2.4976,-2.4495,-2.4358,-2.3388,-2.2757,-2.2493,-2.214,-2.1451,-2.0404,-2.0154,-1.9571,-1.8712,-1.8673,-1.8641,-1.8699,-1.8893,-1.9057,-1.9179,-1.9448,-1.9012,-1.8141,-1.825,-1.7887,0.0,0.0,-1.7541,-1.7954,-1.7748,-1.78,-1.7868,-1.7342,-1.6491,0.0,0.0,0.0,0.0,0.0,-1.6072,-1.5901,-1.5566,-1.5222,-1.4695,-1.3432,0.0,0.0,-1.1214,-1.0376,-0.9504,0.0,0.0,0.0,0.0,0.0,0.0,0.0,0.0,0.0,0.0,0.0,0.0,0.0,0.0,0.0,0.0,0.0,-1.6141,-1.6246,-1.7944,-1.9296,-2.0011,-2.0131,-2.0153,-2.0098,-2.0011,-2.0,-1.9988,-1.9988,-1.9988,-2.0017,-2.0842,-2.1722,-2.262,-2.3467,-2.4389,-2.5292,-2.5293,-2.5303,-2.5303,-2.5303,-2.5341,-2.538,-2.5331,-2.5282,-2.529,-2.5214,-2.518,-2.5156,0.0,0.0,-2.5282,-2.5271,-2.5231,-2.5201,-2.5182,-2.5233,-2.5303,-2.5369,-2.5479,-2.56,-2.5687,-2.5703,-2.5693,-2.5699,-2.5691,-2.5696,-2.5704,-2.5535,-2.5405,-2.5329,-2.4426,-2.3821,-2.3658,-2.2768,-2.2103,-2.1734,-2.1516,0.0,-2.0041,-2.0076,-1.978,-1.9237,-1.9415,-1.954,-1.9676,-1.9824,-1.9766,-1.9585,-1.9564,-1.9435,-1.9242,-1.9189,-1.9167,-1.9128,-1.887,-1.861,-1.8228,-1.7278,-1.6575,-1.5994,0.0,0.0,0.0,-1.5739,0.0,-1.632,-1.6026,-1.5733,-1.5326,0.0,0.0,0.0,-1.2658,-1.1566,-1.0339,0.0,0.0,0.0,0.0,0.0,0.0,0.0,0.0,0.0,0.0,0.0,0.0,0.0,0.0,0.0,0.0,0.0,-1.4606,-1.5303,-1.7573,-1.8958,-1.9075,-1.9688,-2.003,-2.0026,-1.9945,-1.9922,-1.9919,-1.9911,-1.9952,-2.0004,-2.0199,-2.1088,-2.2601,-2.2793,-2.3753,-2.5311,-2.5292,-2.5312,-2.5303,-2.5303,-2.5322,-2.5302,-2.5252,-2.5209,-2.5203,-2.5132,-2.5089,-2.5018,-2.5312,-2.5312,-2.5312,-2.5312,-2.5273,-2.5252,-2.5243,-2.5274,-2.5332,-2.5432,-2.5537,-2.5636,-2.5681,-2.5696,-2.5703,-2.5709,-2.5696,-2.5707,-2.5704,-2.5694,-2.5695,-2.5644,-2.5174,-2.4839,-2.4692,-2.411,-2.3519,-2.2943,0.0,0.0,0.0,-2.097,-2.0602,-2.0231,-1.9936,-1.9858,-1.996,-2.005,-2.0363,-2.0744,-2.0222,0.0,-1.9933,-1.9877,-1.9786,-1.9676,-1.9439,-1.8974,-1.8327,-1.7518,-1.6919,0.0,0.0,-1.5826,-1.5769,0.0,-1.6215,-1.6527,0.0,0.0,0.0,-1.5175,0.0,0.0,0.0,-1.2198,-1.1286,-1.0886,0.0,0.0,0.0,0.0,0.0,0.0,0.0,0.0,0.0,0.0,0.0,0.0,0.0,0.0,0.0,0.0,-1.3669,-1.4942,-1.6636,-1.7943,-1.8755,-1.9173,-1.958,-1.9941,-1.9919,-1.9877,-1.9842,-1.9854,-1.9866,-1.9908,-1.9963,-2.0674,-2.1915,-2.2388,-2.3339,-2.4626,-2.5098,-2.5292,-2.5312,-2.5303,-2.5283,-2.5252,-2.5201,-2.5206,-2.5199,-2.5089,-2.5004,-2.4931,-2.5282,-2.5302,-2.5303,-2.5303,-2.5312,-2.5302,-2.5303,-2.5313,-2.5418,-2.5712,-2.5957,-2.6115,-2.6174,-2.6188,-2.6175,-2.6175,-2.6029,-2.5928,-2.5935,-2.5769,-2.5679,-2.5691,-2.5629,-2.5544,-2.542,-2.5301,-2.4869,-2.4115,0.0,0.0,0.0,-2.1945,-2.1464,-2.1126,-2.0546,-2.0221,-2.0142,-2.0381,-2.0912,-2.1544,0.0,-2.0621,-2.0612,-2.0537,-2.0486,-2.0388,-2.0144,-1.9591,-1.8886,-1.8194,-1.7636,-1.7122,-1.6623,-1.6324,0.0,0.0,0.0,0.0,0.0,0.0,0.0,0.0,0.0,-1.4349,0.0,0.0,0.0,-1.2233,-1.1587,0.0,0.0,0.0,0.0,0.0,0.0,0.0,0.0,0.0,0.0,0.0,0.0,0.0,0.0,0.0,-1.2971,-1.4642,-1.5583,-1.6812,-1.8479,-1.8716,-1.9142,-1.9904,-1.9908,-1.9873,-1.98,-1.98,-1.98,-1.98,-1.9908,-2.0399,-2.1229,-2.2155,-2.3048,-2.396,-2.4867,-2.5282,-2.5292,-2.5293,-2.5253,-2.5212,-2.5198,-2.5184,-2.5144,-2.5018,-2.4917,-2.4842,-2.529,-2.5292,-2.5302,-2.5303,-2.5303,-2.5303,-2.5303,-2.5351,-2.5691,-2.6533,-2.7387,-2.7912,-2.7916,-2.792,-2.792,-2.7913,-2.7214,0.0,-2.6753,0.0,-2.5605,-2.5609,-2.5604,-2.5582,-2.5492,-2.5476,-2.5371,-2.5215,0.0,0.0,0.0,0.0,-2.2795,-2.1359,-2.1344,-2.0935,-2.0335,-2.1111,-2.1492,0.0,-2.2319,-2.2549,0.0,-2.2422,-2.2354,-2.2239,-2.185,-2.1482,-2.097,0.0,-1.9061,-1.8461,0.0,-1.7003,-1.6894,-1.6894,0.0,0.0,0.0,0.0,0.0,0.0,-1.6622,0.0,0.0,0.0,-1.3841,-1.3116,0.0,-1.1862,-1.1863,0.0,0.0,0.0,0.0,0.0,0.0,0.0,0.0,0.0,0.0,0.0,0.0,0.0,0.0,-1.3814,-1.473,-1.5971,-1.7649,-1.8403,-1.9172,-1.9969,-1.9934,-1.9866,-1.98,-1.98,-1.98,-1.98,-1.983,-2.0304,-2.1229,-2.211,-2.3023,-2.396,-2.4826,-2.5252,-2.5311,-2.5292,-2.5262,-2.5212,-2.5198,-2.5118,-2.5012,-2.487,-2.4783,-2.4707,-2.5214,-2.525,-2.5252,-2.5283,-2.5302,-2.5312,-2.5303,-2.5793,-2.6489,-2.7433,-2.7893,-2.8157,-2.8204,-2.8179,-2.8135,-2.814,0.0,-2.7373,0.0,0.0,-2.6085,-2.5618,-2.5593,-2.5587,-2.5556,-2.557,-2.5536,-2.5468,-2.5401,0.0,0.0,0.0,-2.3683,-2.2951,-2.252,-2.213,-2.1828,0.0,-2.2654,0.0,0.0,0.0,0.0,-2.315,-2.2661,-2.2494,-2.2233,-2.1934,-2.1636,0.0,-2.0418,0.0,0.0,0.0,0.0,0.0,0.0,0.0,0.0,0.0,0.0,0.0,0.0,0.0,-1.6096,0.0,-1.4769,0.0,0.0,0.0,0.0,0.0,0.0,0.0,0.0,0.0,0.0,0.0,0.0,0.0,0.0,0.0,0.0,0.0,0.0,0.0,0.0,-1.5085,-1.6812,-1.7674,-1.8477,-1.9287,-1.973,-1.9934,-1.9866,-1.9811,-1.98,-1.98,-1.98,-2.0269,-2.1171,-2.209,-2.2985,-2.3893,-2.4801,-2.5217,-2.525,-2.5241,-2.522,-2.5176,-2.5111,-2.5038,-2.498,-2.4861,-2.4723,-2.4631,-2.5076,-2.5153,-2.522,-2.5252,-2.5493,-2.5744,-2.5986,-2.6786,-2.763,-2.8342,-2.883,-2.9168,-2.9214,-2.9162,0.0,-2.9136,-2.8715,-2.8087,0.0,0.0,-2.6424,-2.5601,-2.5576,-2.5576,0.0,-2.5609,-2.5577,-2.5531,-2.5524,-2.5503,0.0,0.0,-2.4416,-2.413,-2.3526,-2.312,-2.2946,0.0,-2.362,-2.4223,-2.4392,-2.4829,-2.5226,-2.3967,-2.3379,-2.3221,-2.3031,-2.2834,-2.2582,-2.206,-2.1733,0.0,-2.101,0.0,0.0,0.0,0.0,0.0,-1.931,0.0,0.0,0.0,0.0,0.0,0.0,0.0,0.0,0.0,0.0,0.0,0.0,0.0,-1.2749,-1.2412,0.0,0.0,0.0,0.0,0.0,0.0,0.0,0.0,0.0,0.0,0.0,0.0,0.0,0.0,-1.5983,-1.7083,-1.8018,-1.8828,-1.965,-2.0009,-1.9922,-1.9877,-1.9842,-1.98,-1.98,-2.0263,-2.113,-2.2041,-2.2955,-2.3821,-2.4774,-2.5203,-2.5206,-2.5198,-2.5206,-2.518,-2.5057,-2.4993,-2.4926,-2.4821,-2.4679,-2.4547,-2.4884,-2.5063,-2.5195,-2.5201,-2.5953,-2.683,0.0,0.0,0.0,0.0,0.0,0.0,0.0,0.0,0.0,0.0,0.0,-2.8989,-2.8117,0.0,-2.6403,-2.5538,-2.5499,-2.5525,0.0,0.0,0.0,-2.5601,-2.5602,-2.5596,-2.5596,-2.5499,-2.5046,-2.4284,-2.4193,-2.3721,-2.3043,-2.384,-2.4165,-2.4262,-2.505,-2.5341,-2.5303,0.0,-2.5184,-2.5099,-2.4968,0.0,0.0,-2.3468,-2.3007,0.0,0.0,0.0,0.0,0.0,0.0,0.0,0.0,0.0,0.0,-2.0027,0.0,0.0,0.0,0.0,-1.6899,0.0,0.0,0.0,0.0,-1.5026,-1.4631,-1.3203,-1.3027,0.0,0.0,0.0,0.0,0.0,0.0,0.0,0.0,0.0,0.0,0.0,0.0,0.0,-1.5146,-1.6862,-1.8159,-1.897,-1.9777,-2.0127,-1.9998,-1.9985,-1.9919,-1.98,-1.98,-2.027,-2.1123,-2.1998,-2.288,-2.3759,-2.4751,-2.5191,-2.5191,-2.5191,-2.5191,-2.5199,-2.5044,-2.4917,-2.4813,-2.4729,-2.4615,-2.4478,-2.5421,-2.5683,-2.585,-2.5975,-2.6293,0.0,0.0,-2.9445,0.0,0.0,-3.1932,0.0,0.0,-3.2658,-3.2416,0.0,0.0,-3.0337,-2.8916,-2.8008,0.0,-2.632,-2.5786,-2.551,0.0,0.0,0.0,0.0,0.0,-2.5595,-2.5595,-2.5589,-2.5428,-2.5156,-2.5092,-2.4904,0.0,0.0,0.0,0.0,0.0,-2.5313,-2.5303,0.0,0.0,-2.519,-2.5094,-2.4993,0.0,-2.4392,-2.4142,-2.3975,-2.3628,-2.3467,-2.3287,-2.275,-2.2605,0.0,0.0,0.0,-2.1152,-2.0987,0.0,0.0,0.0,0.0,0.0,0.0,0.0,0.0,0.0,-1.5363,-1.5107,-1.4261,-1.4226,-1.3888,0.0,0.0,0.0,0.0,0.0,0.0,0.0,0.0,0.0,0.0,0.0,0.0,0.0,-1.656,-1.7926,-1.8204,-1.9496,-2.018,-2.0127,-2.0048,-1.9974,-1.9949,-2.0426,-2.1117,-2.199,-2.2776,-2.3661,-2.4593,-2.4917,-2.5082,-2.5139,-2.5139,-2.5114,-2.5057,-2.4977,-2.4842,-2.4738,-2.4714,-2.4584,-2.4411,-2.6149,-2.6427,-2.6578,-2.6759,0.0,0.0,0.0,0.0,0.0,0.0,-3.2941,0.0,-3.3514,0.0,-3.3261,0.0,-3.2081,-3.1124,-2.9746,-2.855,0.0,-2.6743,-2.5912,0.0,0.0,0.0,0.0,0.0,0.0,-2.5595,-2.5595,-2.5595,-2.5595,-2.5589,-2.5525,-2.5505,-2.551,-2.5437,-2.5395,0.0,0.0,-2.5303,0.0,0.0,-2.5273,-2.5241,0.0,-2.5106,-2.5063,-2.4921,-2.4818,-2.4731,-2.4648,-2.4601,-2.4476,-2.3967,-2.379,-2.3633,-2.3045,-2.2562,0.0,-2.1878,-2.101,0.0,-1.9376,0.0,0.0,0.0,0.0,0.0,0.0,0.0,-1.5466,-1.4903,-1.4948,-1.4675,0.0,-1.3018,0.0,0.0,0.0,0.0,0.0,0.0,0.0,0.0,0.0,0.0,0.0,0.0,-1.7834,-1.7833,-1.9406,-2.0215,-2.0208,-2.0108,-2.0048,-2.0004,-2.0776,-2.1576,-2.2386,-2.3145,-2.4021,-2.4922,-2.495,-2.4991,-2.5031,-2.5031,-2.5004,-2.4964,-2.4856,-2.4768,-2.4695,-2.4682,-2.4551,-2.4358,-2.7009,-2.7298,0.0,0.0,-2.853,0.0,0.0,0.0,-3.2119,0.0,-3.3877,-3.4422,-3.4422,-3.4422,-3.4383,-3.4306,-3.2744,-3.1433,-3.0623,-2.8887,0.0,0.0,-2.5888,-2.5423,-2.5484,0.0,0.0,0.0,0.0,-2.5596,-2.5596,-2.5589,-2.5589,-2.5596,-2.5518,0.0,-2.5503,-2.5423,-2.5397,-2.5389,-2.5341,-2.5303,-2.5303,-2.5303,0.0,-2.5292,-2.5222,-2.5198,-2.5191,-2.505,-2.5013,-2.4993,-2.4929,-2.4915,-2.4915,-2.4915,-2.4847,-2.4794,-2.4704,-2.4004,-2.3157,-2.2755,0.0,0.0,0.0,0.0,-1.8211,0.0,0.0,0.0,0.0,0.0,-1.5717,-1.5114,-1.5176,-1.5174,-1.4882,0.0,0.0,0.0,0.0,0.0,0.0,0.0,0.0,0.0,0.0,0.0,0.0,0.0,0.0,-1.7893,-1.9463,-2.0262,-2.0215,-2.0208,-2.0127,-2.0017,-2.0861,-2.1633,-2.234,-2.3168,-2.4015,-2.4806,-2.4861,-2.4884,-2.4884,-2.4884,-2.4884,-2.487,-2.4753,-2.4695,-2.4666,-2.4615,-2.4462,-2.4303,-2.7659,-2.9063,-3.0158,0.0,-3.06,-3.1257,0.0,0.0,0.0,0.0,-3.5504,-3.6089,-3.6089,-3.6084,-3.5592,-3.4321,-3.3224,0.0,0.0,0.0,0.0,-2.7595,-2.6169,-2.5416,-2.5423,-2.5476,-2.5492,-2.5507,0.0,-2.5525,-2.5525,-2.5525,-2.5525,-2.5518,-2.5517,-2.5495,-2.5503,-2.5423,-2.536,-2.5322,-2.5313,-2.5303,0.0,0.0,-2.5303,-2.5293,-2.5292,-2.5271,-2.525,-2.5179,-2.5145,-2.5141,-2.513,-2.5099,-2.5056,-2.5038,-2.5006,-2.4926,-2.4813,-2.4441,-2.4005,-2.3649,-2.2625,-2.1522,0.0,0.0,0.0,0.0,0.0,0.0,0.0,0.0,0.0,-1.539,-1.5176,-1.5114,-1.5235,0.0,0.0,-1.4858,0.0,0.0,0.0,0.0,0.0,0.0,0.0,0.0,0.0,0.0,0.0,-1.7902,-1.95,-2.0334,-2.026,-2.0222,-2.0164,-2.0087,-2.146,-2.2167,-2.2359,-2.375,-2.4507,-2.4732,-2.4745,-2.4742,-2.4753,-2.4753,-2.4757,-2.4745,-2.4714,-2.4634,-2.4534,-2.4429,-2.4339,-2.4303,-2.9005,0.0,0.0,-3.2164,0.0,0.0,-3.3716,0.0,0.0,-3.6227,-3.6888,0.0,-3.6738,-3.6695,-3.6185,-3.4872,-3.3622,0.0,-3.2256,0.0,0.0,-2.7892,-2.6275,-2.537,-2.5397,-2.5443,0.0,-2.5456,0.0,-2.549,-2.5498,-2.5492,-2.5511,-2.5498,-2.5495,-2.5472,-2.544,-2.5378,-2.5332,-2.5303,-2.5303,0.0,0.0,-2.5303,-2.5303,-2.5303,-2.5293,-2.5302,-2.5292,-2.5252,-2.5212,-2.5209,-2.5209,-2.5179,-2.5138,-2.5141,-2.5113,-2.5006,-2.4879,-2.467,-2.4391,-2.402,-2.3225,-2.23,-2.1396,-2.0107,-1.8901,0.0,0.0,0.0,0.0,0.0,0.0,-1.5853,-1.5575,-1.5434,0.0,0.0,0.0,0.0,-1.4813,0.0,0.0,0.0,0.0,0.0,0.0,0.0,0.0,0.0,0.0,-1.7896,-1.9521,-2.0379,-2.0334,-2.0281,-2.0199,-2.0127,-2.1654,-2.2369,-2.2346,-2.3964,-2.4682,-2.465,-2.4615,-2.4613,-2.461,-2.461,-2.4613,-2.4615,-2.4615,-2.4549,-2.4447,-2.4339,-2.4284,-2.4247,-3.0609,0.0,0.0,0.0,0.0,0.0,0.0,-3.556,0.0,-3.771,0.0,-3.7715,-3.6919,-3.6838,-3.6503,-3.557,0.0,-3.2891,-3.2891,-2.9852,-2.8005,-2.789,-2.6351,-2.5438,-2.5389,-2.5398,-2.5397,0.0,0.0,-2.5492,-2.5488,-2.549,-2.549,-2.5488,-2.5492,-2.544,0.0,-2.5332,-2.5303,-2.5303,-2.5303,-2.5303,-2.5303,-2.5303,-2.5303,-2.5303,-2.5303,-2.5293,-2.5292,-2.5292,-2.5262,-2.5203,-2.5203,-2.5203,-2.5212,-2.5209,-2.5153,-2.5069,-2.4929,-2.4749,-2.4513,-2.4098,-2.3595,-2.2893,-2.1644,-2.0833,-2.0003,-1.8917,-1.7883,0.0,0.0,0.0,0.0,-1.6371,0.0,0.0,0.0,0.0,0.0,0.0,0.0,0.0,0.0,0.0,0.0,0.0,0.0,0.0,0.0,0.0,0.0,0.0,-1.9585,0.0,-2.0392,0.0,-2.0216,-2.0098,-2.1646,-2.235,-2.2332,-2.3948,-2.4634,-2.4582,-2.4495,-2.4478,-2.4478,-2.4478,-2.4478,-2.4478,-2.4478,-2.4428,-2.4376,-2.4321,-2.4247,-2.421,-3.1506,0.0,0.0,0.0,0.0,-3.6904,-3.7709,-3.7408,-3.7471,-3.8422,-3.8708,-3.8475,-3.7615,-3.7619,-3.7083,-3.5547,-3.3865,0.0,0.0,0.0,0.0,-2.7928,-2.6928,-2.6043,-2.5332,-2.5361,-2.5398,0.0,0.0,0.0,-2.5423,-2.5412,-2.5412,-2.5423,-2.5423,-2.5406,-2.5398,-2.5322,0.0,-2.5303,-2.5303,-2.5303,-2.5303,-2.5303,-2.5303,-2.5303,-2.5303,-2.5303,-2.5303,-2.5303,-2.5293,-2.5274,-2.5274,-2.5274,-2.5264,-2.5222,-2.5149,-2.5068,-2.4942,-2.4749,-2.4513,-2.4098,-2.3635,-2.3082,-2.2357,-2.1351,-2.0381,-1.9792,-1.8796,-1.7823,-1.7076,0.0,0.0,0.0,0.0,0.0,0.0,0.0,0.0,0.0,0.0,0.0,0.0,0.0,0.0,0.0,0.0,0.0,0.0,0.0,0.0,0.0,0.0,0.0,0.0,0.0,0.0,-2.003,-2.1587,-2.227,-2.2281,-2.3838,-2.45,-2.4447,-2.4357,-2.4339,-2.4339,-2.4339,-2.4339,-2.4339,-2.4339,-2.4303,-2.4229,-2.421,-2.421,-2.4209,-3.4148,0.0,0.0,0.0,0.0,0.0,0.0,-3.8367,0.0,-3.925,-3.9469,-3.909,-3.7847,-3.7816,-3.7226,-3.5552,-3.3865,-3.2891,-3.2891,-3.0506,-2.8736,-2.7928,-2.7063,0.0,-2.5322,-2.5322,-2.538,-2.5398,0.0,0.0,-2.5406,-2.5406,-2.5406,-2.5406,-2.5397,-2.5379,0.0,0.0,0.0,-2.5303,-2.5303,-2.5303,-2.5303,-2.5303,-2.5303,-2.5303,-2.5303,-2.5303,-2.5303,-2.5303,-2.5303,-2.5303,-2.5303,-2.5303,-2.5293,-2.5222,-2.5149,-2.5061,-2.4942,-2.4746,-2.4528,-2.4192,-2.3759,-2.3259,-2.2721,-2.1959,-2.1189,-2.0774,-1.9875,-1.8934,-1.8078,-1.7718,0.0,0.0,0.0,0.0,0.0,0.0,0.0,0.0,0.0,0.0,0.0,0.0,0.0,0.0,0.0,0.0,0.0,0.0,0.0,0.0,0.0,0.0,0.0,0.0,0.0,-1.9958,-2.1123,-2.1816,-2.2137,-2.3305,-2.4021,-2.4339,-2.4284,-2.4247,-2.4247,-2.4247,-2.4266,-2.4284,-2.4284,-2.4266,-2.4192,-2.4192,-2.4191,-2.419,0.0,-3.6747,0.0,0.0,-3.7739,0.0,-3.8313,-3.8906,-3.9452,-3.9781,-3.98,-3.924,-3.7812,-3.7613,-3.7006,-3.5499,-3.3851,-3.2897,-3.2891,-3.0679,-2.8929,-2.7928,-2.7236,-2.639,-2.5322,-2.5303,-2.5341,0.0,0.0,0.0,0.0,-2.5369,0.0,0.0,0.0,0.0,0.0,0.0,-2.5303,-2.5303,-2.5303,-2.5303,-2.5303,-2.5303,-2.5303,-2.5303,-2.5303,-2.5303,-2.5303,-2.5303,-2.5303,-2.5303,-2.5303,-2.5303,-2.5293,-2.5222,-2.5149,-2.5068,-2.4942,-2.4741,-2.4543,-2.4284,-2.3881,-2.3414,-2.2965,-2.2493,-2.2027,-2.1645,-2.0784,-1.9925,-1.9289,-1.9122,0.0,0.0,0.0,0.0,0.0,0.0,0.0,0.0,0.0,0.0,0.0,0.0,0.0,0.0,0.0,0.0,0.0,0.0,0.0,0.0,0.0,0.0,-2.0153,0.0,-1.9988,0.0,-2.0653,-2.1372,-2.2009,-2.2794,-2.3561,-2.4266,-2.4229,-2.421,-2.421,-2.421,-2.4229,-2.4284,-2.4284,-2.4266,-2.421,-2.4173,-2.419,-2.417,0.0,0.0,0.0,0.0,0.0,0.0,0.0,-3.9073,-3.9219,-3.9502,-3.9071,-3.8431,-3.7602,-3.6993,-3.6274,-3.5377,-3.3843,-3.2891,-3.291,-3.1256,-2.9563,-2.7967,-2.7813,-2.7005,-2.5341,-2.5303,-2.5303,0.0,0.0,-2.5313,0.0,0.0,0.0,0.0,0.0,0.0,0.0,-2.5303,-2.5303,-2.5303,-2.5303,-2.5303,-2.5303,-2.5303,-2.5303,-2.5303,-2.5303,-2.5303,-2.5303,-2.5303,-2.5303,-2.5303,-2.5303,-2.5293,-2.5292,-2.5222,-2.5145,-2.5069,-2.4929,-2.4741,-2.4543,-2.4284,-2.3939,-2.3562,-2.3157,-2.2807,-2.2446,-2.2096,-2.1254,-2.0525,-2.0459,-1.9981,-1.9651,0.0,0.0,0.0,0.0,0.0,0.0,-1.7147,0.0,0.0,0.0,0.0,0.0,0.0,0.0,0.0,0.0,0.0,0.0,0.0,0.0,-2.003,-2.0019,-1.9881,0.0,-1.9726,-2.0467,-2.1216,-2.1932,-2.2696,-2.3455,-2.421,-2.419,-2.419,-2.419,-2.419,-2.4209,-2.4209,-2.4209,-2.4209,-2.419,-2.4133,-2.4113,-2.4094,0.0,0.0,0.0,0.0,0.0,0.0,0.0,-3.9007,-3.9073,-3.9245,-3.8788,-3.821,-3.7523,-3.6843,-3.6129,-3.5315,-3.3801,-3.2897,-3.2904,-3.134,-2.9871,-2.8659,-2.8459,-2.7651,-2.612,-2.5572,-2.5303,0.0,0.0,0.0,0.0,0.0,0.0,0.0,0.0,-2.5303,-2.5303,-2.5303,-2.5303,-2.5303,-2.5303,-2.5303,-2.5303,-2.5303,-2.5303,-2.5303,-2.5303,-2.5303,-2.5303,-2.5303,-2.5303,-2.5303,-2.5312,-2.5302,-2.5301,-2.5217,-2.516,-2.5057,-2.4953,-2.4779,-2.461,-2.4375,-2.4096,-2.3792,-2.3481,-2.3175,-2.2884,-2.2624,-2.2207,-2.1851,-2.1851,-2.1649,-2.1387,0.0,0.0,0.0,0.0,0.0,0.0,0.0,0.0,-1.7342,0.0,0.0,0.0,0.0,0.0,0.0,0.0,0.0,0.0,-1.9794,0.0,-1.975,-1.9701,-1.9643,-1.9582,-1.9518,-1.9826,-2.0597,-2.1783,-2.2096,-2.2941,-2.419,-2.4209,-2.419,-2.419,-2.419,-2.419,-2.4208,-2.4151,-2.4151,-2.4113,-2.4074,-2.4016,-2.3976,-3.9087,0.0,-3.9068,0.0,-3.8851,-3.8851,-3.8881,-3.891,-3.8886,-3.8767,-3.8252,-3.7765,-3.7383,-3.6502,-3.5737,-3.5231,-3.3757,-3.2856,-3.2897,-3.1296,-2.9994,-2.914,-2.892,0.0,-2.664,-2.6005,-2.5553,-2.5303,-2.5303,0.0,0.0,0.0,0.0,0.0,-2.5303,-2.5303,-2.5303,-2.5303,-2.5303,-2.5303,-2.5303,-2.5303,-2.5303,-2.5303,-2.5303,-2.5303,-2.5303,-2.5303,-2.5303,-2.5303,-2.5303,-2.5293,-2.5292,-2.529,-2.5269,-2.5203,-2.5144,-2.5038,-2.4898,-2.4783,-2.4647,-2.4429,-2.4191,-2.3958,-2.3685,-2.3481,-2.3247,-2.307,-2.2952,-2.2884,-2.2884,-2.2884,-2.276,0.0,0.0,0.0,0.0,0.0,0.0,0.0,-1.7974,-1.7869,-1.8373,0.0,0.0,0.0,0.0,0.0,0.0,0.0,0.0,0.0,0.0,0.0,0.0,0.0,-1.9341,-1.9314,-1.9298,-2.0107,-2.1661,-2.2136,-2.3033,-2.4151,-2.4151,-2.4151,-2.4151,-2.4151,-2.4151,-2.4133,-2.4074,-2.4036,-2.4016,-2.3974,-2.3894,-2.3813,-3.9831,-3.98,-3.9643,-3.8836,-3.8707,-3.8719,-3.8792,-3.8822,-3.8586,-3.7997,-3.7225,-3.6833,-3.7175,-3.5833,-3.4982,-3.5174,-3.3681,-3.2752,-3.2883,-3.1264,-2.9932,0.0,0.0,-2.8313,-2.664,-2.6582,-2.6159,-2.5303,0.0,0.0,-2.5303,0.0,0.0,-2.5303,-2.5303,-2.5303,-2.5303,-2.5303,-2.5303,-2.5303,-2.5303,-2.5303,-2.5303,-2.5303,-2.5303,-2.5303,-2.5303,-2.5303,-2.5303,-2.5303,-2.5293,-2.5311,-2.5311,-2.5258,-2.5191,-2.5191,-2.5114,-2.4964,-2.4842,-2.4757,-2.4634,-2.4375,-2.4192,-2.402,-2.3756,-2.3642,-2.3526,-2.3336,-2.3289,-2.3289,-2.3289,-2.3336,-2.3383,-2.3383,0.0,0.0,0.0,0.0,0.0,0.0,-1.8638,-1.8561,-1.8505,0.0,0.0,0.0,0.0,0.0,0.0,0.0,0.0,-1.9115,-1.9115,0.0,-1.9014,-1.9,-1.9036,-1.9104,-1.9036,-1.9884,-2.157,-2.3229,-2.3978,-2.3996,-2.3996,-2.3996,-2.3996,-2.3996,-2.3996,-2.3996,-2.3917,-2.3896,-2.3896,-2.3828,-2.3743,-2.37,-3.9871,-3.9717,-3.9562,-3.8805,-3.8707,-3.8707,-3.8719,-3.8762,-3.8527,-3.7802,-3.7099,-3.6533,-3.6091,-3.5327,-3.4661,0.0,-3.3258,-3.2473,0.0,-3.09,-3.0201,-2.9932,-2.996,-2.9451,-2.8332,-2.7351,-2.664,-2.6197,0.0,0.0,0.0,-2.5303,-2.5303,-2.5303,-2.5303,-2.5303,-2.5303,-2.5303,-2.5303,-2.5303,-2.5303,-2.5303,-2.5303,-2.5303,-2.5303,-2.5303,-2.5303,-2.5303,-2.5303,-2.5302,-2.5262,-2.5241,-2.5217,-2.5214,-2.5168,-2.5082,-2.5004,-2.4903,-2.4768,-2.466,-2.453,-2.4393,-2.4266,-2.4114,-2.3937,-2.3813,-2.3728,-2.3646,-2.3624,-2.3624,-2.3624,-2.3664,-2.3685,-2.3685,0.0,0.0,0.0,0.0,0.0,0.0,-2.039,-2.0291,0.0,-2.0026,0.0,0.0,0.0,0.0,0.0,0.0,0.0,0.0,-1.9934,0.0,-2.0159,-2.0197,-2.0256,-2.0316,-2.0337,-2.099,-2.2211,-2.3358,-2.3891,-2.3917,-2.3917,-2.3976,-2.3996,-2.3937,-2.3917,-2.3935,-2.3871,-2.3789,-2.3765,-2.3696,-2.3544,-2.343,-4.0276,-3.9922,-3.9497,-3.8805,-3.8707,-3.8707,-3.8707,-3.8719,-3.8589,-3.8087,-3.7147,-3.6163,-3.512,-3.4753,0.0,-3.3734,-3.3006,-3.2248,-3.145,-3.0694,-3.0267,-3.0304,-3.0359,-2.9998,-2.9121,0.0,0.0,-2.7082,-2.6217,-2.5793,-2.5793,-2.5437,-2.5303,-2.5303,-2.5303,-2.5303,-2.5303,-2.5303,-2.5303,-2.5303,-2.5303,-2.5303,-2.5303,-2.5303,-2.5303,-2.5303,-2.5303,-2.5303,-2.5293,-2.5292,-2.5261,-2.5187,-2.513,-2.5113,-2.5063,-2.4991,-2.4903,-2.4798,-2.4657,-2.4545,-2.4462,-2.4339,-2.4266,-2.4171,-2.4056,-2.3937,-2.3876,-2.3876,-2.3876,-2.3876,-2.3876,-2.3876,-2.3876,-2.3876,0.0,-2.3585,-2.2803,0.0,0.0,0.0,0.0,0.0,0.0,-2.0762,0.0,0.0,0.0,0.0,0.0,0.0,0.0,-1.9757,-2.0166,0.0,-2.0442,-2.0518,-2.057,-2.0678,-2.1132,-2.1693,-2.2382,-2.3253,-2.37,-2.3789,-2.3789,-2.3831,-2.3873,-2.381,-2.3789,-2.3768,-2.3678,-2.3611,-2.3544,-2.3476,-2.3313,-2.3144,-4.0775,-4.0185,0.0,0.0,-3.8707,0.0,-3.8707,-3.8707,-3.8707,-3.8701,-3.7294,-3.5754,-3.4315,-3.4189,-3.4001,-3.3525,0.0,0.0,0.0,-3.0624,-3.024,-3.0292,-3.0362,0.0,-2.9198,-2.9913,-2.952,-2.7948,-2.7101,-2.6659,-2.6582,-2.5774,-2.536,-2.5303,-2.5303,-2.5303,-2.5303,-2.5303,-2.5303,-2.5303,-2.5303,-2.5303,-2.5303,-2.5303,-2.5303,-2.5303,-2.5303,-2.5293,-2.5311,-2.5292,-2.5258,-2.518,-2.5038,-2.4947,-2.4884,-2.4884,-2.4798,-2.466,-2.4528,-2.4479,-2.4429,-2.4266,-2.4192,-2.4173,-2.4113,-2.4074,-2.4016,-2.4016,-2.4016,-2.4016,-2.4016,-2.4016,-2.4016,-2.4016,-2.4016,-2.376,-2.2994,0.0,0.0,0.0,0.0,0.0,0.0,-2.0987,-2.0784,0.0,0.0,0.0,0.0,0.0,-2.0094,-2.0069,-2.0043,-2.006,-2.011,-2.0187,-2.0303,-2.046,-2.1481,-2.2019,-2.2175,-2.3,-2.3448,-2.3585,-2.3585,-2.3629,-2.3678,-2.3607,-2.3585,-2.3562,-2.3448,-2.3336,-2.3265,-2.3193,-2.3045,-2.2893,0.0,0.0,-3.9414,-3.8674,-3.864,-3.8707,-3.8707,-3.8707,-3.8695,-3.8699,-3.7284,-3.568,-3.4057,-3.4087,-3.3673,-3.2353,-3.2297,-3.1727,-3.0352,-3.0208,-3.0199,-3.0226,-3.0286,-3.0239,-3.0009,-2.9417,-2.8901,-2.8508,-2.7901,-2.7255,-2.6601,-2.639,-2.5947,-2.5303,-2.5303,-2.5303,-2.5303,-2.5303,-2.5303,-2.5303,-2.5303,-2.5303,-2.5303,-2.5303,-2.5303,-2.5303,-2.5303,-2.5293,-2.5282,-2.5252,-2.5198,-2.518,-2.5032,-2.4926,-2.4808,-2.4768,-2.4642,-2.4528,-2.4515,-2.4375,-2.4248,-2.421,-2.4191,-2.4209,-2.417,-2.417,-2.4151,-2.4151,-2.4151,-2.4151,-2.4151,-2.4151,-2.4151,-2.4151,-2.4151,-2.4078,-2.3838,-2.378,0.0,0.0,-2.3211,-2.3106,-2.2923,-2.2787,-2.2582,0.0,0.0,0.0,0.0,0.0,-2.1093,-2.0611,-2.1099,-2.1354,-2.1371,-2.1423,-2.1619,-2.1907,-2.2306,-2.2573,-2.2716,-2.2982,-2.3193,-2.336,-2.336,-2.343,-2.3539,-2.3407,-2.336,-2.336,-2.3217,-2.3095,-2.2977,-2.2995,-2.2825,-2.2659,-3.9317,-3.9161,-3.8944,-3.8656,-3.8645,-3.8707,-3.8707,-3.8707,-3.8695,-3.8689,-3.6646,-3.4807,-3.3905,-3.3943,-3.3414,-3.1935,-3.2064,-3.1543,-3.0004,-3.0003,-3.0094,-3.0204,-3.0221,-3.0273,-3.0304,-2.9721,-2.9456,-2.9478,-2.8786,-2.8198,-2.7736,-2.6967,-2.6351,-2.589,-2.5476,-2.5303,-2.5303,-2.5293,-2.5312,-2.5312,-2.5273,-2.5253,-2.5253,-2.5283,-2.5312,-2.5293,-2.5303,-2.5302,-2.529,-2.522,-2.5153,-2.5088,-2.4953,-2.4842,-2.4742,-2.4647,-2.4566,-2.4479,-2.4393,-2.4284,-2.4192,-2.4191,-2.419,-2.419,-2.419,-2.419,-2.419,-2.419,-2.419,-2.419,-2.419,-2.419,-2.419,-2.419,-2.419,-2.419,-2.4151,-2.4113,0.0,-2.3917,-2.3837,-2.3728,-2.3562,-2.3401,-2.3193,-2.2919,0.0,0.0,-2.222,-2.1873,-2.1543,-2.1176,-2.139,-2.1526,-2.1587,-2.1708,-2.1915,-2.2186,-2.2298,-2.2508,-2.2712,-2.2764,-2.2893,-2.3119,-2.3119,-2.3193,-2.3313,-2.3217,-2.3126,-2.3119,-2.3003,-2.2893,-2.2764,-2.2764,-2.2632,-2.246,-3.8904,-3.8673,-3.8419,-3.8606,-3.8682,-3.8695,-3.8707,-3.8707,-3.8695,-3.8689,-3.5842,-3.3797,-3.3805,-3.3795,-3.3246,-3.1881,-3.1955,-3.1429,-2.9975,-2.9874,-2.9972,-3.0142,-3.0171,-3.0226,-3.0279,-3.0292,-3.0323,-3.0386,-2.9648,-2.9206,-2.9052,-2.7764,-2.6956,-2.6553,-2.5812,-2.5408,-2.5274,-2.5273,-2.5282,-2.5282,-2.5222,-2.5192,-2.5212,-2.5252,-2.5282,-2.5282,-2.5283,-2.5282,-2.5278,-2.5217,-2.5106,-2.498,-2.4837,-2.4757,-2.4666,-2.4534,-2.4482,-2.4429,-2.4248,-2.4192,-2.421,-2.4209,-2.419,-2.419,-2.419,-2.419,-2.419,-2.419,-2.419,-2.419,-2.419,-2.419,-2.419,-2.419,-2.419,-2.419,-2.419,0.0,-2.4094,-2.4016,-2.3896,-2.3771,-2.3629,-2.343,-2.3217,-2.2944,-2.2685,0.0,0.0,-2.1915,-2.1694,-2.162,-2.1341,-2.1215,-2.1262,-2.145,-2.1634,-2.184,-2.1911,-2.2101,-2.2415,-2.2443,-2.2579,-2.2842,-2.2868,-2.2944,-2.3028,-2.297,-2.2919,-2.2842,-2.2764,-2.2659,-2.2552,-2.2525,-2.2405,-2.222,-3.7918,-3.8056,-3.8219,-3.8401,-3.8588,-3.87,-3.8707,-3.8707,-3.8695,-3.8689,-3.5842,-3.3788,-3.3807,-3.3787,-3.3195,-3.1673,-3.1733,-3.1243,-2.9814,-2.9773,-2.9857,-2.9937,-3.0064,-3.0157,-3.0213,-3.0266,-3.0305,-3.0324,-3.0171,-2.9749,-2.9039,-2.9505,-2.8572,-2.6507,-2.6362,-2.5913,-2.5222,-2.5222,-2.5222,-2.5222,-2.5192,-2.5192,-2.5192,-2.5212,-2.5222,-2.5222,-2.5222,-2.522,-2.5217,-2.5203,-2.5113,-2.498,-2.4837,-2.4757,-2.465,-2.4465,-2.4394,-2.4303,-2.421,-2.4191,-2.4209,-2.419,-2.419,-2.419,-2.419,-2.419,-2.419,-2.419,-2.419,-2.419,-2.419,-2.419,-2.419,-2.419,-2.419,-2.419,0.0,0.0,-2.4151,-2.4016,-2.3976,-2.3894,-2.37,-2.3544,-2.336,-2.3095,-2.2816,-2.2579,-2.2377,-2.2061,-2.1811,-2.1694,-2.1356,-2.1183,-2.1135,-2.1215,-2.1325,-2.1479,-2.1587,-2.1797,-2.2084,-2.2141,-2.2298,-2.2569,-2.2605,-2.2685,-2.2764,-2.2685,-2.2659,-2.2632,-2.2515,-2.2405,-2.2338,-2.2276,-2.2118,-2.1874,-3.7594,-3.7934,-3.8192,-3.8256,-3.8524,-3.8706,-3.87,-3.8695,-3.8695,-3.8689,-3.5842,-3.3806,-3.3798,-3.3797,-3.318,-3.1624,-3.1592,-3.1028,-2.9584,-2.9645,-2.9773,-2.9841,-2.9956,-3.0064,-3.0204,-3.0272,-3.0292,-3.0292,-3.0292,-3.0101,-2.9717,-3.0107,-2.9665,-2.8483,-2.711,-2.6293,-2.588,-2.5409,-2.5176,-2.5153,-2.516,-2.5149,-2.5149,-2.5153,-2.5164,-2.5187,-2.5209,-2.5179,-2.5145,-2.5149,-2.5025,-2.4874,-2.4779,-2.4676,-2.4566,-2.4393,-2.4303,-2.4228,-2.4209,-2.4209,-2.419,-2.419,-2.419,-2.419,-2.419,-2.419,-2.419,-2.419,-2.419,-2.419,-2.419,-2.419,-2.419,-2.419,-2.419,0.0,0.0,-2.419,-2.4151,-2.4016,-2.3996,-2.3915,-2.3721,-2.3567,-2.3383,-2.3119,-2.2868,-2.2605,-2.2405,-2.2089,-2.184,-2.1708,-2.1277,-2.1006,-2.0907,-2.0924,-2.1006,-2.1119,-2.1309,-2.1526,-2.184,-2.1911,-2.2101,-2.2377,-2.2432,-2.2487,-2.2596,-2.2515,-2.246,-2.2432,-2.2231,-2.2147,-2.2027,-2.1551,-2.1287,-2.1056,-3.7394,-3.7775,-3.8075,-3.8176,-3.8394,-3.8593,-3.8693,-3.8682,-3.8695,-3.8707,-3.5852,-3.3797,-3.3798,-3.3807,-3.3319,-3.2133,-3.1685,-3.0849,-2.9342,-2.9472,-2.9664,-2.9773,-2.9857,-2.9988,-3.0142,-3.0213,-3.024,-3.024,-3.0259,-3.0259,-3.024,-3.0247,-3.026,-3.0164,-2.8013,-2.6809,-2.6383,-2.5722,-2.5284,-2.5057,-2.5051,-2.5057,-2.5038,-2.5044,-2.5101,-2.5156,-2.5141,-2.5111,-2.5068,-2.5069,-2.4929,-2.4785,-2.4704,-2.4613,-2.4461,-2.4339,-2.4247,-2.419,-2.419,-2.419,-2.419,-2.419,-2.419,-2.419,-2.419,-2.419,-2.419,-2.419,-2.419,-2.419,-2.419,-2.419,-2.419,-2.419,0.0,0.0,0.0,-2.419,-2.4151,-2.4016,-2.3996,-2.3894,-2.3721,-2.3567,-2.336,-2.3119,-2.2868,-2.2605,-2.2432,-2.2118,-2.184,-2.1617,-2.1166,-2.086,-2.0693,-2.066,-2.0711,-2.0844,-2.1038,-2.1262,-2.1603,-2.1708,-2.1903,-2.218,-2.2209,-2.2276,-2.2388,-2.2304,-2.2248,-2.218,-2.2015,-2.1782,-2.1508,-2.0858,-2.043,-2.0041,-3.7017,-3.7356,-3.7757,-3.8128,-3.8228,-3.8328,-3.8652,-3.87,-3.8695,-3.8704,-3.5834,-3.3799,-3.3807,-3.3807,-3.3758,-3.3642,-3.2269,-3.0722,-2.9126,-2.9267,-2.9509,-2.9701,-2.9823,-2.994,-3.0003,-3.0068,-3.0117,-3.0117,-3.0175,-3.0175,-3.0117,-3.0117,-3.0113,-3.0085,-2.907,-2.7733,-2.6222,-2.6146,-2.5663,-2.4915,-2.4915,-2.4915,-2.4915,-2.4915,-2.4961,-2.5006,-2.5006,-2.5006,-2.5006,-2.4947,-2.4851,-2.4772,-2.4657,-2.4564,-2.4464,-2.4339,-2.4247,-2.419,-2.419,-2.419,-2.419,-2.419,-2.419,-2.419,-2.419,-2.419,-2.419,-2.419,-2.419,-2.419,-2.419,-2.419,-2.419,-2.419,0.0,0.0,-2.419,-2.419,-2.4151,-2.4016,-2.3955,-2.3834,-2.3721,-2.3522,-2.3313,-2.3119,-2.2868,-2.2632,-2.2515,-2.2186,-2.1794,-2.134,-2.1039,-2.086,-2.0693,-2.0577,-2.0561,-2.0726,-2.0794,-2.0974,-2.1247,-2.1497,-2.1694,-2.184,-2.1986,-2.2027,-2.2027,-2.1969,-2.1928,-2.1928,-2.1768,-2.1249,-2.0582,-2.0463,-1.9877,-1.9013,-3.6943,-3.7108,-3.7356,-3.7774,-3.8043,-3.8251,-3.8365,-3.8382,-3.771,-3.5889,-3.4582,-3.3807,-3.378,-3.3807,-3.3805,-3.3806,-3.233,-3.0711,-2.9108,-2.9093,-2.933,-2.9683,-2.9754,-2.9841,-2.9926,-2.9956,-2.9972,-2.9972,-3.0067,-3.0105,-3.0086,-2.9972,-2.9915,-2.9893,-2.9099,-2.8347,-2.7616,-2.6582,-2.5929,-2.5525,-2.5001,-2.4779,-2.4779,-2.4779,-2.4808,-2.4884,-2.4884,-2.4898,-2.4926,-2.4865,-2.4779,-2.4707,-2.4629,-2.4495,-2.4356,-2.4266,-2.4228,-2.419,-2.419,-2.419,-2.419,-2.419,-2.419,-2.419,-2.419,-2.419,-2.419,-2.419,-2.419,-2.419,-2.419,-2.419,-2.419,-2.419,0.0,-2.419,-2.419,-2.419,-2.4151,-2.4016,-2.3937,-2.3831,-2.3674,-2.3453,-2.3265,-2.3052,-2.279,-2.2605,-2.2515,-2.2101,-2.1691,-2.1309,-2.099,-2.0745,-2.0577,-2.0441,-2.0407,-2.0525,-2.066,-2.0827,-2.1007,-2.1277,-2.1542,-2.1738,-2.184,-2.1899,-2.194,-2.1869,-2.1797,-2.1645,-2.1065,-2.0573,-2.0067,-1.9138,-1.8499,-1.801,-3.6713,-3.6776,-3.6886,-3.7332,-3.7737,-3.8007,-3.8,-3.8107,-3.7111,-3.4063,-3.3756,-3.3789,-3.3789,-3.3807,-3.3797,-3.381,-3.279,-3.1268,-2.913,-2.9003,-2.9188,-2.9588,-2.9645,-2.97,-2.979,-2.9825,-2.9841,-2.9841,-2.9935,-2.9992,-2.9992,-2.9822,-2.9729,-2.9691,-2.9219,-2.8825,-2.8433,-2.7288,-2.6449,-2.5871,-2.5295,-2.4885,-2.466,-2.466,-2.4707,-2.4768,-2.4768,-2.4802,-2.4832,-2.4783,-2.4707,-2.4629,-2.4582,-2.4426,-2.4248,-2.4209,-2.419,-2.419,-2.419,-2.419,-2.419,-2.419,-2.419,-2.419,-2.419,-2.419,-2.419,-2.419,-2.419,-2.419,-2.419,-2.419,-2.419,-2.419,-2.419,-2.419,-2.419,-2.417,-2.4132,-2.4016,-2.3915,-2.3789,-2.3607,-2.3383,-2.3193,-2.2977,-2.2738,-2.2525,-2.2343,-2.1974,-2.1617,-2.1309,-2.0958,-2.0695,-2.046,-2.0323,-2.027,-2.0388,-2.0509,-2.0677,-2.0844,-2.1071,-2.1309,-2.1587,-2.1648,-2.1691,-2.1751,-2.1661,-2.1425,-2.1028,-2.0404,-1.9787,-1.9097,-1.8073,-1.7471,-1.7052,-3.6301,-3.6288,-3.6464,-3.6925,-3.7314,-3.7593,-3.7594,-3.7914,-3.7007,-3.3833,-3.3647,-3.379,-3.379,-3.3817,-3.3797,-3.3784,-3.3802,-3.2416,-2.921,-2.8998,-2.9123,-2.9386,-2.953,-2.9588,-2.9588,-2.9664,-2.9701,-2.9701,-2.9701,-2.972,-2.9795,-2.9664,-2.957,-2.9495,-2.9645,-2.9176,-2.8315,-2.8315,-2.7343,-2.5831,-2.5813,-2.5327,-2.4599,-2.4599,-2.465,-2.4701,-2.4701,-2.4701,-2.4701,-2.4701,-2.4601,-2.45,-2.45,-2.4357,-2.4192,-2.4209,-2.419,-2.419,-2.419,-2.419,-2.419,-2.419,-2.419,-2.419,-2.419,-2.419,-2.419,-2.419,-2.419,-2.419,-2.419,-2.419,-2.419,-2.419,-2.419,-2.419,-2.419,-2.4151,-2.4074,-2.4016,-2.3891,-2.3739,-2.3607,-2.336,-2.3119,-2.2902,-2.2712,-2.2426,-2.2027,-2.1811,-2.1587,-2.1325,-2.0958,-2.0662,-2.0388,-2.0185,-2.0185,-2.0304,-2.0304,-2.0441,-2.0693,-2.0844,-2.1039,-2.1309,-2.1355,-2.1386,-2.1386,-2.134,-2.0795,-1.9999,-1.9922,-1.8912,-1.7499,-1.7483,-1.6905,-1.6095,-3.5814,-3.6079,-3.634,-3.647,-3.6904,-3.7248,-3.756,-3.5823,-3.4207,-3.3471,-3.3484,-3.3585,-3.379,-3.3799,-3.3817,-3.3797,-3.3788,-3.2422,-2.9208,-2.8984,-2.9038,-2.9119,-2.9349,-2.9488,-2.9527,-2.9549,-2.9569,-2.9569,-2.9474,-2.9472,-2.9586,-2.9415,-2.9321,-2.9282,-2.9377,-2.9245,-2.8945,-2.8347,-2.7807,-2.7249,-2.6061,-2.5468,-2.5153,-2.4597,-2.4429,-2.4482,-2.4482,-2.4498,-2.4495,-2.4481,-2.4465,-2.4393,-2.4321,-2.4248,-2.4192,-2.4209,-2.419,-2.419,-2.419,-2.419,-2.419,-2.419,-2.419,-2.419,-2.419,-2.419,-2.419,-2.419,-2.419,-2.419,-2.419,-2.419,-2.419,-2.419,-2.419,-2.419,-2.419,-2.4151,-2.4074,-2.3937,-2.381,-2.3656,-2.3494,-2.3217,-2.2995,-2.2842,-2.2569,-2.2276,-2.2027,-2.1811,-2.1587,-2.1325,-2.0958,-2.0662,-2.0388,-2.0185,-2.008,-2.0111,-2.0235,-2.0339,-2.0441,-2.0695,-2.0909,-2.1039,-2.1183,-2.1262,-2.1262,-2.1199,-2.0927,-2.0448,-1.9342,-1.8561,-1.7913,-1.6868,-1.6235,-1.5942,-3.5579,-3.5822,-3.6088,-3.6271,-3.6527,-3.6471,-3.5669,-3.4039,-3.2968,-3.3167,-3.3328,-3.347,-3.3632,-3.3762,-3.3799,-3.3789,-3.264,-3.1084,-2.9122,-2.9003,-2.9007,-2.9007,-2.916,-2.9286,-2.9386,-2.937,-2.9372,-2.9372,-2.9293,-2.9291,-2.9386,-2.927,-2.9175,-2.9119,-2.9212,-2.9249,-2.923,-2.8688,-2.8278,-2.7908,-2.6908,-2.6094,-2.5448,-2.4968,-2.4598,-2.4358,-2.4358,-2.4357,-2.4374,-2.4375,-2.4339,-2.4321,-2.4228,-2.4412,-2.4669,-2.4668,-2.4905,-2.5144,-2.5144,-2.5144,-2.5144,-2.5144,-2.4667,-2.419,-2.419,-2.419,-2.419,-2.419,-2.419,-2.419,-2.419,-2.419,-2.419,-2.419,-2.419,-2.419,-2.417,-2.4094,-2.4016,-2.3876,-2.3747,-2.3567,-2.3383,-2.3144,-2.2919,-2.2685,-2.2388,-2.2118,-2.2027,-2.1781,-2.1542,-2.1325,-2.0958,-2.0677,-2.0354,-2.0166,-2.0025,-2.0005,-2.0061,-2.0166,-2.0304,-2.0509,-2.0695,-2.0827,-2.0941,-2.099,-2.099,-2.0941,-2.0636,-2.0078,-1.9123,-1.8315,-1.7532,-1.6621,-1.6023,-1.5668,-3.561,-3.562,-3.5744,-3.6167,-3.6029,-3.5101,-3.2718,-3.2651,-3.2869,-3.2888,-3.3183,-3.3364,-3.3411,-3.3632,-3.3762,-3.379,-3.0844,-2.9004,-2.8989,-2.8994,-2.8994,-2.8994,-2.9007,-2.9075,-2.9178,-2.9178,-2.92,-2.92,-2.9178,-2.9178,-2.9197,-2.9197,-2.9123,-2.9008,-2.9141,-2.9178,-2.9178,-2.9178,-2.875,-2.8064,-2.7994,-2.7073,-2.5687,-2.5558,-2.5041,-2.4395,-2.4321,-2.4303,-2.4303,-2.4303,-2.4303,-2.432,-2.4319,-2.485,-2.5513,-2.5513,-2.6025,-2.6612,-2.6612,-2.6612,-2.6612,-2.6612,-2.5493,-2.441,-2.441,-2.4373,-2.4355,-2.4355,-2.4262,-2.4207,-2.4207,-2.4207,-2.4207,-2.4207,-2.428,-2.4298,-2.424,-2.4217,-2.4117,-2.3922,-2.3768,-2.3565,-2.333,-2.3095,-2.2842,-2.2515,-2.2186,-2.1998,-2.1998,-2.1738,-2.1481,-2.1294,-2.0958,-2.0628,-2.0304,-2.0096,-2.0005,-1.997,-1.9848,-1.9955,-2.027,-2.027,-2.0441,-2.0644,-2.0693,-2.0693,-2.0693,-2.066,-2.012,-1.9285,-1.919,-1.8216,-1.6862,-1.6771,-1.6202,-1.5432,-3.5588,-3.5579,-3.5643,-3.5753,-3.4112,-3.2586,-3.2004,-3.2266,-3.2611,-3.2876,-3.2952,-3.3104,-3.3364,-3.347,-3.3593,-3.3779,-3.0865,-2.9003,-2.9009,-2.9007,-2.8994,-2.8994,-2.8998,-2.9021,-2.904,-2.9097,-2.9163,-2.92,-2.9152,-2.9149,-2.9185,-2.9104,-2.9021,-2.9003,-2.9021,-2.904,-2.904,-2.904,-2.8929,-2.8727,-2.8107,-2.7629,-2.7169,-2.5901,-2.5312,-2.5073,-2.4448,-2.4228,-2.4228,-2.4228,-2.4632,-2.5127,-2.5146,-2.5676,-2.6337,-2.6337,-2.6465,-2.6612,-2.6612,-2.6612,-2.6612,-2.6612,-2.6337,-2.608,-2.608,-2.5745,-2.5447,-2.5447,-2.478,-2.4187,-2.4187,-2.4187,-2.4187,-2.4187,-2.485,-2.5366,-2.5366,-2.5568,-2.5461,-2.4753,-2.4497,-2.4052,-2.3221,-2.2868,-2.2605,-2.2432,-2.2158,-2.1969,-2.1911,-2.1631,-2.134,-2.1151,-2.0876,-2.0543,-2.015,-2.0061,-1.9919,-1.9762,-1.9797,-1.9833,-1.9919,-2.02,-2.0339,-2.0407,-2.0509,-2.0527,-2.0543,-2.0441,-2.0246,-1.9977,-1.9137,-1.859,-1.8175,-1.7357,-1.6623,-1.5826,-3.5576,-3.5615,-3.5164,-3.376,-3.2394,-3.1594,-3.1757,-3.1982,-3.2249,-3.261,-3.2811,-3.2973,-3.3152,-3.3298,-3.3465,-3.3605,-3.2065,-3.0516,-2.9101,-2.9004,-2.8997,-2.8994,-2.8994,-2.8994,-2.8994,-2.9026,-2.9071,-2.9089,-2.9085,-2.9062,-2.9099,-2.9017,-2.8994,-2.8994,-2.8994,-2.8994,-2.8994,-2.8994,-2.8994,-2.8957,-2.8539,-2.8136,-2.7714,-2.6851,-2.6082,-2.5348,-2.4905,-2.4759,-2.4759,-2.4759,-2.5309,-2.597,-2.597,-2.6521,-2.7163,-2.7163,-2.7438,-2.775,-2.775,-2.775,-2.775,-2.775,-2.775,-2.7548,-2.6778,-2.6182,-2.5792,-2.5792,-2.557,-2.5421,-2.5661,-2.5737,-2.5643,-2.5403,-2.575,-2.606,-2.5994,-2.6105,-2.5971,-2.5386,-2.518,-2.4794,-2.4077,-2.3753,-2.3545,-2.3418,-2.3177,-2.2842,-2.2388,-2.2095,-2.1681,-2.1103,-2.0843,-2.0509,-2.01,-2.0025,-1.9884,-1.969,-1.9726,-1.9762,-1.9797,-1.9975,-2.0096,-2.0166,-2.0235,-2.0254,-2.027,-2.02,-2.0131,-1.998,-1.9421,-1.8917,-1.8431,-1.7815,-1.6784,-1.5632,-3.5615,-3.518,-3.4092,-3.1645,-3.1183,-3.1314,-3.1634,-3.1768,-3.1932,-3.2249,-3.2613,-3.2814,-3.2802,-3.31,-3.3328,-3.3338,-3.3378,-3.2301,-2.9719,-2.9325,-2.9101,-2.8983,-2.897,-2.897,-2.8975,-2.8975,-2.8994,-2.8994,-2.8994,-2.8994,-2.8994,-2.8994,-2.8994,-2.8994,-2.8994,-2.8994,-2.8994,-2.8994,-2.8994,-2.8994,-2.8994,-2.8613,-2.7989,-2.7842,-2.6961,-2.5807,-2.566,-2.5623,-2.5623,-2.5623,-2.6135,-2.6814,-2.6814,-2.7365,-2.8007,-2.8007,-2.8576,-2.9195,-2.9195,-2.9329,-2.942,-2.942,-2.942,-2.9072,-2.7732,-2.6863,-2.6344,-2.6344,-2.6698,-2.7145,-2.7595,-2.7669,-2.7518,-2.705,-2.6933,-2.6826,-2.669,-2.662,-2.6405,-2.6032,-2.5702,-2.5365,-2.4988,-2.4778,-2.4645,-2.4495,-2.4305,-2.3831,-2.3106,-2.2671,-2.207,-2.1263,-2.084,-2.0475,-2.008,-1.999,-1.9884,-1.969,-1.969,-1.9726,-1.9762,-1.9797,-1.9848,-1.997,-2.0005,-2.0005,-2.0005,-1.997,-1.9884,-1.9762,-1.969,-1.9146,-1.8375,-1.8007,-1.6916,-1.555,-3.5581,-3.355,-3.1664,-3.1271,-3.1219,-3.1223,-3.1266,-3.1582,-3.1839,-3.1878,-3.2214,-3.2473,-3.2482,-3.2763,-3.3001,-3.313,-3.3299,-3.2966,-3.1929,-3.06,-2.9587,-2.893,-2.8858,-2.8858,-2.8905,-2.8929,-2.8929,-2.8994,-2.8994,-2.8994,-2.8994,-2.8994,-2.8994,-2.8994,-2.8994,-2.8994,-2.8994,-2.8994,-2.8994,-2.8994,-2.8994,-2.892,-2.8778,-2.8062,-2.7658,-2.7383,-2.6686,-2.6447,-2.6447,-2.6447,-2.6961,-2.764,-2.764,-2.8191,-2.8851,-2.8851,-2.942,-3.0044,-3.0044,-3.0558,-3.1072,-3.1072,-3.1072,-3.1017,-3.0797,-2.9622,-2.8572,-2.8572,-2.8608,-2.8705,-2.8778,-2.8778,-2.8718,-2.8544,-2.8456,-2.8361,-2.8214,-2.8098,-2.77,-2.6765,-2.5729,-2.5,-2.4849,-2.4705,-2.4571,-2.4402,-2.4227,-2.3999,-2.3687,-2.2817,-2.2162,-2.1813,-2.0889,-2.032,-2.0041,-1.9884,-1.9762,-1.969,-1.969,-1.969,-1.9726,-1.9762,-1.9797,-1.9848,-1.9955,-2.0005,-2.0005,-1.9884,-1.9762,-1.969,-1.945,-1.9207,-1.8861,-1.7782,-1.7129,-1.6637,-3.3482,-3.2075,-3.1187,-3.1207,-3.1207,-3.1201,-3.1189,-3.1359,-3.1545,-3.1785,-3.1965,-3.2161,-3.2371,-3.271,-3.292,-3.2988,-3.3075,-3.2823,-3.2187,-3.1492,-3.0812,-3.0097,-2.9657,-2.9435,-2.946,-2.9053,-2.8858,-2.89,-2.897,-2.8994,-2.8994,-2.8994,-2.8994,-2.8952,-2.8989,-2.8965,-2.89,-2.8955,-2.8973,-2.8936,-2.8936,-2.8942,-2.8915,-2.8549,-2.8168,-2.7677,-2.6888,-2.6888,-2.7273,-2.7273,-2.7805,-2.8484,-2.8484,-2.9017,-2.9677,-2.9677,-3.0246,-3.087,-3.087,-3.1127,-3.1384,-3.1384,-3.1384,-3.1384,-3.1384,-3.0852,-3.0094,-2.9186,-2.8998,-2.9284,-3.0167,-3.0271,-3.0064,-2.96,-2.9405,-2.9109,-2.8546,-2.8282,-2.7929,-2.7233,-2.6588,-2.6155,-2.5999,-2.5856,-2.5711,-2.5581,-2.5413,-2.4975,-2.4341,-2.3703,-2.3067,-2.2386,-2.1393,-2.0804,-2.0552,-2.0065,-1.9762,-1.969,-1.969,-1.969,-1.969,-1.9726,-1.9726,-1.9762,-1.9797,-1.9848,-1.9797,-1.9741,-1.9669,-1.9596,-1.9302,-1.8965,-1.85,-1.7871,-1.718,-1.6559]}]]